[[{"header":{"parameterUnit":"m.s-1","parameterCategory":1,"la1":31.0,"la2":29.5877,"lo1":-88.7671,"lo2":-86.6584,"dx":0.0162,"dy":0.0185,"nx":115,"ny":88,"refTime":"2023-02-02T06:00:00:Z","depth":0,"parameterNumber":2,"parameterNumberName":"U-component_of_WINDS"},"data":[0.0,0.0,0.0,0.0,0.0,0.0,0.0,0.0,0.0,0.0,0.0,0.0,0.0,0.0,0.0,0.0,0.0,0.0,0.0,0.0,0.0,0.0,0.0,0.0,0.0,0.0,0.0,0.0,0.0,0.0,0.0,0.0,0.0,0.0,0.0,0.0,0.0,0.0,0.0,0.0,0.0,0.0,0.0,0.0,0.0,0.0,0.0,0.0,0.0,0.0,0.0,0.0,0.0,0.0,0.0,0.0,0.0,0.0,0.0,0.0,0.0,0.0,0.0,0.0,0.0,0.0,0.0,0.0,0.0,0.0,0.0,0.0,0.0,0.0,0.0,0.0,0.0,0.0,0.0,0.0,0.0,0.0,0.0,0.0,0.0,0.0,0.0,0.0,0.0,0.0,0.0,0.0,0.0,0.0,0.0,0.0,0.0,0.0,0.0,0.0,0.0,0.0,0.0,0.0,0.0,0.0,0.0,0.0,0.0,0.0,0.0,0.0,0.0,0.0,0.0,0.0,0.0,0.0,0.0,0.0,0.0,0.0,0.0,0.0,0.0,0.0,0.0,0.0,0.0,0.0,0.0,0.0,0.0,0.0,0.0,0.0,0.0,0.0,0.0,0.0,0.0,0.0,0.0,0.0,0.0,0.0,0.0,0.0,0.0,0.0,0.0,0.0,0.0,0.0,0.0,0.0,0.0,0.0,0.0,0.0,0.0,0.0,0.0,0.0,0.0,0.0,0.0,0.0,0.0,0.0,0.0,0.0,0.0,0.0,0.0,0.0,0.0,0.0,0.0,0.0,0.0,0.0,0.0,0.0,0.0,0.0,0.0,0.0,0.0,0.0,0.0,0.0,0.0,0.0,0.0,0.0,0.0,0.0,0.0,0.0,0.0,0.0,0.0,0.0,0.0,0.0,0.0,0.0,0.0,0.0,0.0,0.0,0.0,0.0,0.0,0.0,0.0,0.0,0.0,0.0,0.0,0.0,0.0,0.0,0.0,0.0,0.0,0.0,0.0,0.0,0.0,0.0,0.0,0.0,0.0,0.0,0.0,0.0,0.0,0.0,0.0,0.0,0.0,0.0,0.0,0.0,0.0,0.0,0.0,0.0,0.0,0.0,0.0,0.0,0.0,0.0,0.0,0.0,0.0,0.0,0.0,0.0,0.0,0.0,0.0,0.0,0.0,0.0,0.0,0.0,0.0,0.0,0.0,0.0,0.0,0.0,0.0,0.0,0.0,0.0,0.0,0.0,0.0,0.0,0.0,0.0,0.0,0.0,0.0,0.0,0.0,0.0,0.0,0.0,0.0,0.0,0.0,0.0,0.0,0.0,0.0,0.0,0.0,0.0,0.0,0.0,0.0,0.0,0.0,0.0,0.0,0.0,0.0,0.0,0.0,0.0,0.0,0.0,0.0,0.0,0.0,0.0,0.0,0.0,0.0,0.0,0.0,0.0,0.0,0.0,0.0,0.0,0.0,0.0,0.0,0.0,0.0,0.0,0.0,0.0,0.0,0.0,0.0,0.0,0.0,0.0,0.0,0.0,0.0,0.0,0.0,0.0,0.0,0.0,0.0,0.0,0.0,0.0,0.0,0.0,0.0,0.0,0.0,0.0,0.0,0.0,0.0,0.0,0.0,0.0,0.0,0.0,0.0,0.0,0.0,0.0,0.0,0.0,0.0,0.0,0.0,0.0,0.0,0.0,0.0,0.0,0.0,0.0,0.0,0.0,0.0,0.0,0.0,0.0,0.0,0.0,0.0,0.0,0.0,0.0,0.0,0.0,0.0,0.0,0.0,0.0,0.0,0.0,0.0,0.0,0.0,0.0,0.0,0.0,0.0,0.0,0.0,0.0,0.0,0.0,0.0,0.0,0.0,0.0,0.0,0.0,0.0,0.0,0.0,0.0,0.0,0.0,0.0,0.0,0.0,0.0,0.0,0.0,0.0,0.0,0.0,0.0,0.0,0.0,0.0,0.0,0.0,0.0,0.0,0.0,0.0,0.0,0.0,0.0,0.0,0.0,0.0,0.0,0.0,0.0,0.0,0.0,0.0,0.0,0.0,0.0,0.0,0.0,0.0,0.0,0.0,0.0,0.0,0.0,0.0,0.0,0.0,0.0,0.0,0.0,0.0,0.0,0.0,0.0,0.0,0.0,0.0,0.0,0.0,0.0,0.0,0.0,0.0,0.0,0.0,0.0,0.0,0.0,0.0,0.0,0.0,0.0,0.0,0.0,0.0,0.0,0.0,0.0,0.0,0.0,0.0,0.0,0.0,0.0,0.0,0.0,0.0,0.0,0.0,0.0,0.0,0.0,0.0,0.0,0.0,0.0,0.0,0.0,0.0,0.0,0.0,0.0,0.0,0.0,0.0,0.0,0.0,0.0,0.0,0.0,0.0,0.0,0.0,0.0,0.0,0.0,0.0,0.0,0.0,0.0,0.0,0.0,0.0,0.0,0.0,0.0,0.0,0.0,0.0,0.0,0.0,0.0,0.0,0.0,0.0,0.0,0.0,0.0,0.0,0.0,0.0,0.0,0.0,0.0,0.0,0.0,0.0,0.0,0.0,0.0,0.0,0.0,0.0,0.0,0.0,0.0,0.0,0.0,0.0,0.0,0.0,0.0,0.0,0.0,0.0,0.0,0.0,0.0,0.0,0.0,0.0,0.0,0.0,0.0,0.0,0.0,0.0,0.0,0.0,0.0,0.0,0.0,0.0,0.0,0.0,0.0,0.0,0.0,0.0,0.0,0.0,0.0,0.0,0.0,0.0,0.0,0.0,0.0,0.0,0.0,0.0,0.0,0.0,0.0,0.0,0.0,0.0,0.0,0.0,0.0,0.0,0.0,0.0,0.0,0.0,0.0,0.0,0.0,0.0,0.0,0.0,0.0,0.0,0.0,0.0,0.0,0.0,0.0,0.0,0.0,0.0,0.0,0.0,0.0,0.0,0.0,0.0,0.0,0.0,0.0,0.0,0.0,0.0,0.0,0.0,0.0,0.0,0.0,0.0,0.0,0.0,0.0,0.0,0.0,0.0,0.0,0.0,0.0,0.0,0.0,0.0,0.0,0.0,0.0,0.0,0.0,0.0,0.0,0.0,0.0,0.0,0.0,0.0,0.0,0.0,0.0,0.0,0.0,0.0,0.0,0.0,0.0,0.0,0.0,0.0,0.0,0.0,0.0,0.0,0.0,0.0,0.0,0.0,0.0,0.0,0.0,0.0,0.0,0.0,0.0,0.0,0.0,0.0,0.0,0.0,0.0,0.0,0.0,0.0,0.0,0.0,0.0,0.0,0.0,0.0,0.0,0.0,0.0,0.0,0.0,0.0,0.0,0.0,0.0,0.0,0.0,0.0,0.0,0.0,0.0,0.0,0.0,0.0,0.0,0.0,0.0,0.0,0.0,0.0,0.0,0.0,0.0,0.0,0.0,0.0,0.0,0.0,0.0,0.0,0.0,0.0,0.0,0.0,0.0,0.0,0.0,0.0,0.0,0.0,0.0,0.0,0.0,0.0,0.0,0.0,0.0,0.0,0.0,0.0,0.0,0.0,0.0,0.0,0.0,0.0,0.0,0.0,0.0,0.0,0.0,0.0,0.0,0.0,0.0,0.0,0.0,0.0,0.0,0.0,0.0,0.0,0.0,0.0,0.0,0.0,0.0,0.0,0.0,0.0,0.0,0.0,0.0,0.0,0.0,0.0,0.0,0.0,0.0,0.0,0.0,0.0,0.0,0.0,0.0,0.0,0.0,0.0,0.0,0.0,0.0,0.0,0.0,0.0,0.0,0.0,0.0,0.0,0.0,0.0,0.0,0.0,0.0,0.0,0.0,0.0,0.0,0.0,0.0,0.0,0.0,0.0,0.0,0.0,0.0,0.0,0.0,0.0,0.0,0.0,0.0,0.0,0.0,0.0,0.0,0.0,0.0,0.0,0.0,0.0,0.0,0.0,0.0,0.0,0.0,0.0,0.0,0.0,0.0,0.0,0.0,0.0,0.0,0.0,0.0,0.0,0.0,0.0,0.0,0.0,0.0,0.0,0.0,0.0,0.0,0.0,0.0,0.0,0.0,0.0,0.0,0.0,0.0,0.0,0.0,0.0,0.0,0.0,0.0,0.0,0.0,0.0,0.0,0.0,0.0,0.0,0.0,0.0,0.0,0.0,0.0,0.0,0.0,0.0,0.0,0.0,0.0,0.0,0.0,0.0,0.0,0.0,0.0,0.0,0.0,0.0,0.0,0.0,0.0,0.0,0.0,0.0,0.0,0.0,0.0,0.0,0.0,5.9961,0.0,0.0,0.0,0.0,0.0,0.0,0.0,0.0,0.0,0.0,0.0,0.0,0.0,0.0,0.0,0.0,0.0,0.0,0.0,0.0,0.0,0.0,0.0,0.0,0.0,0.0,0.0,0.0,0.0,0.0,0.0,0.0,0.0,0.0,0.0,0.0,0.0,0.0,0.0,0.0,0.0,0.0,0.0,0.0,0.0,0.0,0.0,0.0,0.0,0.0,0.0,0.0,0.0,0.0,0.0,0.0,0.0,0.0,0.0,0.0,0.0,0.0,0.0,0.0,0.0,0.0,0.0,0.0,0.0,0.0,0.0,0.0,0.0,0.0,0.0,0.0,0.0,0.0,0.0,0.0,0.0,0.0,0.0,0.0,0.0,0.0,0.0,0.0,0.0,0.0,0.0,0.0,0.0,0.0,0.0,0.0,0.0,0.0,0.0,0.0,0.0,0.0,0.0,0.0,0.0,0.0,0.0,0.0,0.0,0.0,6.0,6.1562,5.8672,5.832,6.0976,0.0,0.0,0.0,0.0,0.0,0.0,0.0,0.0,0.0,0.0,0.0,0.0,0.0,0.0,0.0,0.0,0.0,0.0,0.0,0.0,0.0,0.0,0.0,0.0,0.0,0.0,0.0,0.0,0.0,0.0,0.0,0.0,0.0,0.0,0.0,0.0,0.0,0.0,0.0,0.0,0.0,0.0,0.0,0.0,0.0,0.0,0.0,0.0,0.0,0.0,0.0,0.0,0.0,0.0,0.0,0.0,0.0,0.0,0.0,0.0,0.0,0.0,0.0,0.0,0.0,0.0,0.0,0.0,0.0,0.0,0.0,0.0,0.0,0.0,0.0,0.0,0.0,0.0,0.0,0.0,0.0,0.0,0.0,0.0,0.0,0.0,0.0,0.0,0.0,0.0,0.0,0.0,0.0,0.0,0.0,0.0,0.0,0.0,0.0,0.0,0.0,0.0,0.0,0.0,0.0,0.0,0.0,0.0,0.0,0.0,0.0,0.0,5.8789,5.8594,6.1797,0.0,0.0,0.0,0.0,0.0,0.0,0.0,0.0,0.0,0.0,0.0,0.0,0.0,0.0,0.0,0.0,0.0,0.0,0.0,0.0,0.0,0.0,0.0,0.0,0.0,0.0,0.0,0.0,0.0,0.0,0.0,0.0,0.0,0.0,0.0,0.0,0.0,0.0,0.0,0.0,0.0,0.0,0.0,0.0,0.0,0.0,0.0,0.0,0.0,0.0,0.0,0.0,0.0,0.0,0.0,0.0,0.0,0.0,0.0,0.0,0.0,0.0,0.0,0.0,0.0,0.0,0.0,0.0,0.0,0.0,0.0,0.0,0.0,0.0,0.0,0.0,0.0,0.0,0.0,0.0,0.0,0.0,0.0,0.0,0.0,0.0,0.0,0.0,0.0,0.0,0.0,0.0,0.0,0.0,0.0,0.0,0.0,0.0,0.0,0.0,0.0,0.0,0.0,0.0,0.0,0.0,0.0,0.0,0.0,0.0,6.1914,6.2851,6.2461,0.0,6.2851,0.0,0.0,0.0,0.0,0.0,0.0,0.0,0.0,0.0,0.0,0.0,0.0,0.0,0.0,0.0,0.0,0.0,0.0,0.0,0.0,0.0,0.0,0.0,0.0,0.0,0.0,0.0,0.0,0.0,0.0,0.0,0.0,0.0,0.0,0.0,0.0,0.0,0.0,0.0,0.0,0.0,0.0,0.0,0.0,0.0,0.0,0.0,0.0,0.0,0.0,0.0,0.0,0.0,0.0,0.0,0.0,0.0,0.0,0.0,0.0,0.0,0.0,0.0,0.0,0.0,0.0,0.0,0.0,0.0,0.0,0.0,0.0,0.0,0.0,0.0,0.0,0.0,0.0,0.0,0.0,0.0,0.0,0.0,0.0,0.0,0.0,0.0,0.0,0.0,0.0,0.0,0.0,0.0,0.0,0.0,0.0,0.0,0.0,0.0,0.0,0.0,0.0,0.0,0.0,0.0,0.0,0.0,0.0,0.0,0.0,6.2109,6.2969,6.3008,6.2734,0.0,0.0,0.0,0.0,0.0,0.0,0.0,0.0,0.0,0.0,0.0,0.0,0.0,0.0,0.0,0.0,0.0,0.0,0.0,0.0,0.0,0.0,0.0,0.0,0.0,0.0,0.0,0.0,0.0,0.0,0.0,0.0,0.0,0.0,0.0,0.0,0.0,0.0,0.0,0.0,0.0,0.0,0.0,0.0,0.0,0.0,0.0,0.0,0.0,0.0,0.0,0.0,0.0,0.0,0.0,0.0,0.0,0.0,0.0,0.0,0.0,0.0,0.0,0.0,0.0,0.0,0.0,0.0,0.0,0.0,0.0,0.0,0.0,0.0,0.0,0.0,0.0,0.0,0.0,0.0,0.0,0.0,0.0,0.0,0.0,0.0,0.0,0.0,0.0,0.0,0.0,0.0,0.0,0.0,0.0,0.0,0.0,0.0,0.0,0.0,0.0,0.0,0.0,0.0,0.0,0.0,0.0,0.0,0.0,0.0,6.2617,6.2109,6.293,6.2773,6.2461,6.207,0.0,0.0,0.0,0.0,0.0,0.0,0.0,0.0,0.0,0.0,0.0,0.0,0.0,0.0,0.0,0.0,0.0,0.0,0.0,0.0,0.0,0.0,0.0,0.0,0.0,0.0,0.0,0.0,0.0,0.0,0.0,0.0,0.0,0.0,0.0,0.0,0.0,0.0,0.0,0.0,0.0,0.0,0.0,0.0,0.0,0.0,0.0,0.0,0.0,0.0,0.0,0.0,0.0,0.0,0.0,0.0,0.0,0.0,0.0,0.0,0.0,0.0,0.0,0.0,0.0,0.0,0.0,0.0,0.0,0.0,0.0,0.0,0.0,0.0,0.0,0.0,0.0,0.0,0.0,0.0,0.0,0.0,0.0,0.0,0.0,0.0,0.0,0.0,0.0,0.0,0.0,0.0,0.0,0.0,0.0,0.0,0.0,0.0,0.0,0.0,0.0,0.0,0.0,0.0,0.0,0.0,0.0,0.0,6.414,6.2617,6.2109,6.293,6.2187,6.2109,0.0,0.0,0.0,0.0,0.0,0.0,0.0,0.0,0.0,0.0,0.0,0.0,0.0,0.0,0.0,0.0,0.0,0.0,0.0,0.0,0.0,0.0,0.0,0.0,0.0,0.0,0.0,0.0,0.0,0.0,0.0,0.0,0.0,0.0,0.0,0.0,0.0,0.0,0.0,0.0,0.0,0.0,0.0,0.0,0.0,0.0,0.0,0.0,0.0,0.0,0.0,0.0,0.0,0.0,0.0,0.0,0.0,0.0,0.0,0.0,0.0,0.0,0.0,0.0,0.0,0.0,0.0,0.0,0.0,0.0,0.0,0.0,0.0,0.0,0.0,0.0,0.0,0.0,0.0,0.0,0.0,0.0,0.0,0.0,0.0,0.0,0.0,0.0,0.0,0.0,0.0,0.0,0.0,0.0,0.0,0.0,0.0,0.0,0.0,0.0,0.0,0.0,0.0,0.0,0.0,0.0,0.0,0.0,0.0,6.3359,6.2851,6.2422,6.2187,6.2383,6.2422,0.0,0.0,0.0,0.0,0.0,0.0,0.0,0.0,0.0,0.0,0.0,0.0,0.0,0.0,0.0,0.0,0.0,0.0,0.0,0.0,0.0,0.0,0.0,0.0,0.0,0.0,0.0,0.0,0.0,0.0,0.0,0.0,0.0,0.0,0.0,0.0,0.0,0.0,0.0,0.0,0.0,0.0,0.0,0.0,0.0,0.0,0.0,0.0,0.0,0.0,0.0,0.0,0.0,0.0,0.0,0.0,0.0,0.0,0.0,0.0,0.0,0.0,0.0,0.0,0.0,0.0,0.0,0.0,0.0,0.0,0.0,0.0,0.0,0.0,0.0,0.0,0.0,0.0,0.0,0.0,0.0,0.0,0.0,0.0,0.0,0.0,0.0,0.0,0.0,0.0,0.0,0.0,0.0,0.0,0.0,0.0,0.0,0.0,0.0,0.0,0.0,0.0,0.0,0.0,0.0,0.0,0.0,0.0,0.0,6.2539,0.0,6.2305,6.1758,6.2265,6.2148,0.0,0.0,0.0,0.0,0.0,0.0,0.0,0.0,0.0,0.0,0.0,0.0,0.0,0.0,0.0,0.0,0.0,0.0,0.0,0.0,0.0,0.0,0.0,0.0,0.0,0.0,0.0,0.0,0.0,0.0,0.0,0.0,0.0,0.0,0.0,0.0,0.0,0.0,0.0,0.0,0.0,0.0,0.0,0.0,0.0,0.0,0.0,0.0,0.0,0.0,0.0,0.0,0.0,0.0,0.0,0.0,0.0,0.0,0.0,0.0,0.0,0.0,0.0,0.0,0.0,0.0,0.0,0.0,0.0,0.0,0.0,0.0,0.0,0.0,0.0,0.0,0.0,0.0,0.0,0.0,0.0,0.0,0.0,0.0,0.0,0.0,0.0,0.0,0.0,0.0,0.0,0.0,0.0,0.0,0.0,0.0,0.0,0.0,0.0,0.0,0.0,0.0,0.0,0.0,0.0,0.0,0.0,0.0,6.1758,6.1719,6.1758,6.1875,6.1758,6.1797,6.1367,0.0,0.0,0.0,0.0,0.0,0.0,0.0,0.0,0.0,0.0,0.0,0.0,0.0,0.0,0.0,0.0,0.0,0.0,0.0,0.0,0.0,0.0,0.0,0.0,0.0,0.0,0.0,0.0,0.0,0.0,0.0,0.0,0.0,0.0,0.0,0.0,0.0,0.0,0.0,0.0,0.0,0.0,0.0,0.0,0.0,0.0,0.0,0.0,0.0,0.0,0.0,0.0,0.0,0.0,0.0,0.0,0.0,0.0,0.0,0.0,0.0,0.0,0.0,0.0,0.0,0.0,0.0,0.0,0.0,0.0,0.0,0.0,0.0,0.0,0.0,0.0,0.0,0.0,0.0,0.0,0.0,0.0,0.0,0.0,0.0,0.0,0.0,0.0,0.0,0.0,0.0,0.0,0.0,0.0,0.0,0.0,0.0,0.0,0.0,0.0,0.0,0.0,0.0,0.0,0.0,0.0,0.0,0.0,0.0,6.1758,6.2265,6.3476,6.5117,6.293,6.2422,0.0,0.0,0.0,0.0,0.0,0.0,0.0,0.0,0.0,0.0,0.0,0.0,0.0,0.0,0.0,0.0,0.0,0.0,0.0,0.0,0.0,0.0,0.0,0.0,0.0,0.0,0.0,0.0,0.0,0.0,0.0,0.0,0.0,0.0,0.0,0.0,0.0,0.0,0.0,0.0,0.0,0.0,0.0,0.0,0.0,0.0,0.0,0.0,0.0,0.0,0.0,0.0,0.0,0.0,0.0,0.0,0.0,0.0,0.0,0.0,0.0,0.0,0.0,0.0,0.0,0.0,0.0,0.0,0.0,0.0,0.0,0.0,0.0,0.0,0.0,0.0,0.0,0.0,0.0,0.0,0.0,0.0,0.0,0.0,0.0,0.0,0.0,0.0,0.0,0.0,0.0,0.0,0.0,0.0,0.0,0.0,0.0,0.0,0.0,0.0,0.0,0.0,0.0,0.0,0.0,0.0,0.0,0.0,0.0,6.5156,6.5586,6.6367,6.7344,6.5273,6.3828,6.3164,0.0,0.0,0.0,0.0,0.0,0.0,0.0,0.0,0.0,0.0,0.0,0.0,0.0,0.0,0.0,0.0,0.0,0.0,0.0,0.0,0.0,0.0,0.0,0.0,0.0,0.0,0.0,0.0,0.0,0.0,0.0,0.0,0.0,0.0,0.0,0.0,0.0,0.0,0.0,0.0,0.0,0.0,0.0,0.0,0.0,0.0,0.0,0.0,0.0,0.0,0.0,0.0,0.0,0.0,0.0,0.0,0.0,0.0,0.0,0.0,0.0,0.0,0.0,0.0,0.0,0.0,0.0,0.0,0.0,0.0,0.0,0.0,0.0,0.0,0.0,0.0,0.0,0.0,0.0,0.0,0.0,0.0,0.0,0.0,0.0,0.0,0.0,0.0,0.0,0.0,0.0,0.0,0.0,0.0,0.0,0.0,0.0,0.0,0.0,0.0,0.0,0.0,0.0,0.0,0.0,0.0,0.0,0.0,7.1133,7.1562,7.0976,6.918,6.8594,6.5703,0.0,0.0,0.0,0.0,0.0,0.0,0.0,0.0,0.0,0.0,0.0,0.0,0.0,0.0,0.0,0.0,0.0,0.0,0.0,0.0,0.0,0.0,0.0,0.0,0.0,0.0,0.0,0.0,0.0,0.0,0.0,0.0,0.0,0.0,0.0,0.0,0.0,0.0,0.0,0.0,0.0,0.0,0.0,0.0,0.0,0.0,0.0,0.0,0.0,0.0,0.0,0.0,0.0,0.0,0.0,0.0,0.0,0.0,0.0,0.0,0.0,0.0,0.0,0.0,0.0,0.0,0.0,0.0,0.0,0.0,0.0,0.0,0.0,0.0,0.0,0.0,0.0,0.0,0.0,0.0,0.0,0.0,0.0,0.0,0.0,0.0,0.0,0.0,0.0,0.0,0.0,0.0,0.0,0.0,0.0,0.0,0.0,0.0,0.0,0.0,0.0,0.0,0.0,0.0,0.0,0.0,0.0,0.0,0.0,7.6523,8.1992,8.2929,7.8672,7.3086,6.9609,0.0,0.0,0.0,0.0,0.0,0.0,0.0,0.0,0.0,0.0,0.0,0.0,0.0,0.0,0.0,0.0,0.0,0.0,0.0,0.0,0.0,0.0,0.0,0.0,0.0,0.0,0.0,0.0,0.0,0.0,0.0,0.0,0.0,0.0,0.0,0.0,0.0,0.0,0.0,0.0,0.0,0.0,0.0,0.0,0.0,0.0,0.0,0.0,0.0,0.0,0.0,0.0,0.0,0.0,0.0,0.0,0.0,0.0,0.0,0.0,0.0,0.0,0.0,0.0,0.0,0.0,0.0,0.0,0.0,0.0,0.0,0.0,0.0,0.0,0.0,0.0,0.0,0.0,0.0,0.0,0.0,0.0,0.0,0.0,0.0,0.0,0.0,0.0,0.0,0.0,0.0,0.0,0.0,0.0,0.0,0.0,0.0,0.0,0.0,0.0,0.0,0.0,0.0,0.0,0.0,0.0,0.0,0.0,7.7695,8.1211,8.9101,9.1797,8.8828,8.1289,7.5,0.0,0.0,0.0,0.0,0.0,0.0,0.0,0.0,0.0,0.0,0.0,0.0,0.0,0.0,0.0,0.0,0.0,0.0,0.0,0.0,0.0,0.0,0.0,0.0,0.0,0.0,0.0,0.0,0.0,0.0,0.0,0.0,0.0,0.0,0.0,0.0,0.0,0.0,0.0,0.0,0.0,0.0,0.0,0.0,0.0,0.0,0.0,0.0,0.0,0.0,0.0,0.0,0.0,0.0,0.0,0.0,0.0,0.0,0.0,0.0,0.0,0.0,0.0,0.0,0.0,0.0,0.0,0.0,0.0,0.0,0.0,0.0,0.0,0.0,0.0,0.0,0.0,0.0,0.0,0.0,0.0,0.0,0.0,0.0,0.0,0.0,0.0,0.0,0.0,0.0,0.0,0.0,0.0,0.0,0.0,0.0,0.0,0.0,0.0,0.0,0.0,0.0,0.0,0.0,0.0,0.0,0.0,0.0,8.164,8.5429,9.3828,9.8242,9.8008,9.0429,8.0898,0.0,0.0,0.0,0.0,0.0,0.0,0.0,0.0,0.0,0.0,0.0,0.0,0.0,0.0,0.0,0.0,0.0,0.0,0.0,0.0,0.0,0.0,0.0,0.0,0.0,0.0,0.0,0.0,0.0,0.0,0.0,0.0,0.0,0.0,0.0,0.0,0.0,0.0,0.0,0.0,0.0,0.0,0.0,0.0,0.0,0.0,0.0,0.0,0.0,0.0,0.0,0.0,0.0,0.0,0.0,0.0,0.0,0.0,0.0,0.0,0.0,0.0,0.0,0.0,0.0,0.0,0.0,0.0,0.0,0.0,0.0,0.0,0.0,0.0,0.0,0.0,0.0,0.0,0.0,0.0,0.0,0.0,0.0,0.0,0.0,0.0,0.0,0.0,0.0,0.0,0.0,0.0,0.0,0.0,0.0,0.0,0.0,0.0,0.0,0.0,0.0,0.0,0.0,0.0,0.0,0.0,0.0,0.0,8.3398,8.8906,9.7344,10.1797,10.1758,9.1679,8.3086,0.0,0.0,0.0,0.0,0.0,0.0,0.0,0.0,0.0,0.0,0.0,0.0,0.0,0.0,0.0,0.0,0.0,0.0,0.0,0.0,0.0,0.0,0.0,0.0,0.0,0.0,0.0,0.0,0.0,0.0,0.0,0.0,0.0,0.0,0.0,0.0,0.0,0.0,0.0,0.0,0.0,0.0,0.0,0.0,0.0,0.0,0.0,0.0,6.164,0.0,0.0,0.0,0.0,0.0,0.0,0.0,0.0,0.0,0.0,0.0,0.0,0.0,0.0,0.0,0.0,0.0,0.0,0.0,0.0,0.0,0.0,0.0,0.0,0.0,0.0,0.0,0.0,0.0,0.0,0.0,0.0,0.0,0.0,0.0,0.0,0.0,0.0,0.0,0.0,0.0,0.0,0.0,0.0,0.0,0.0,0.0,0.0,0.0,0.0,0.0,0.0,0.0,0.0,0.0,0.0,0.0,0.0,0.0,8.6328,9.3515,10.0508,10.4297,10.4375,9.6172,8.7851,0.0,0.0,0.0,0.0,0.0,0.0,0.0,0.0,0.0,0.0,0.0,0.0,0.0,0.0,0.0,0.0,0.0,0.0,0.0,0.0,0.0,0.0,0.0,0.0,0.0,0.0,0.0,0.0,0.0,0.0,0.0,0.0,0.0,0.0,0.0,0.0,0.0,0.0,0.0,0.0,0.0,0.0,0.0,0.0,0.0,0.0,0.0,0.0,0.0,0.0,0.0,0.0,0.0,0.0,0.0,0.0,0.0,0.0,0.0,0.0,0.0,0.0,0.0,0.0,0.0,0.0,0.0,0.0,0.0,0.0,0.0,0.0,0.0,0.0,0.0,0.0,0.0,0.0,0.0,0.0,0.0,0.0,0.0,0.0,0.0,0.0,0.0,0.0,0.0,0.0,0.0,0.0,0.0,0.0,0.0,0.0,0.0,0.0,0.0,0.0,0.0,0.0,0.0,0.0,0.0,0.0,0.0,8.1797,8.9297,9.8203,10.332,10.6289,10.6953,10.1133,9.2773,8.2031,0.0,0.0,0.0,0.0,0.0,0.0,0.0,0.0,0.0,0.0,0.0,0.0,0.0,0.0,0.0,0.0,0.0,0.0,0.0,0.0,0.0,0.0,0.0,0.0,0.0,0.0,0.0,0.0,0.0,0.0,0.0,0.0,0.0,0.0,0.0,0.0,0.0,0.0,6.0226,6.1097,0.0,0.0,0.0,0.0,0.0,0.0,0.0,0.0,6.1875,0.0,0.0,0.0,0.0,0.0,0.0,0.0,0.0,0.0,0.0,0.0,0.0,0.0,0.0,0.0,0.0,0.0,0.0,0.0,0.0,0.0,0.0,0.0,0.0,0.0,0.0,0.0,0.0,0.0,0.0,0.0,0.0,0.0,0.0,0.0,0.0,0.0,0.0,0.0,0.0,0.0,0.0,0.0,0.0,0.0,0.0,0.0,0.0,0.0,0.0,0.0,0.0,0.0,0.0,0.0,0.0,8.0859,8.3594,9.0469,10.1758,10.5664,10.8008,10.8672,10.2344,9.4219,8.4609,0.0,0.0,0.0,0.0,0.0,0.0,0.0,0.0,0.0,0.0,0.0,0.0,0.0,0.0,0.0,0.0,0.0,0.0,0.0,0.0,0.0,0.0,0.0,0.0,0.0,0.0,0.0,0.0,0.0,0.0,0.0,0.0,0.0,0.0,0.0,0.0,0.0,0.0,0.0,6.6402,6.7187,0.0,0.0,0.0,0.0,0.0,0.0,0.0,0.0,6.2187,0.0,0.0,0.0,0.0,0.0,0.0,0.0,0.0,0.0,0.0,0.0,0.0,0.0,0.0,0.0,0.0,0.0,0.0,0.0,0.0,0.0,0.0,0.0,0.0,0.0,0.0,0.0,0.0,0.0,0.0,0.0,0.0,0.0,0.0,0.0,0.0,0.0,0.0,0.0,0.0,0.0,0.0,0.0,0.0,0.0,0.0,0.0,0.0,0.0,0.0,0.0,0.0,0.0,0.0,0.0,8.1992,8.7539,9.5,10.4531,10.7344,10.9101,10.9726,10.0703,9.2265,0.0,0.0,0.0,0.0,0.0,0.0,0.0,0.0,0.0,0.0,0.0,0.0,0.0,0.0,0.0,0.0,0.0,0.0,0.0,0.0,0.0,0.0,0.0,0.0,0.0,0.0,0.0,0.0,0.0,0.0,0.0,0.0,0.0,0.0,0.0,0.0,0.0,0.0,0.0,0.0,6.7695,6.8555,6.8281,0.0,0.0,0.0,0.0,0.0,0.0,6.3008,6.3047,0.0,0.0,0.0,0.0,0.0,0.0,0.0,0.0,0.0,0.0,0.0,0.0,0.0,0.0,0.0,0.0,0.0,0.0,0.0,0.0,0.0,0.0,0.0,0.0,0.0,0.0,0.0,0.0,0.0,0.0,0.0,0.0,0.0,0.0,0.0,0.0,0.0,0.0,0.0,0.0,0.0,0.0,0.0,0.0,0.0,0.0,0.0,0.0,0.0,0.0,0.0,0.0,0.0,0.0,0.0,8.2773,9.082,9.8828,10.6601,10.8828,11.0078,11.039,9.9765,9.1094,0.0,0.0,0.0,0.0,0.0,0.0,0.0,0.0,0.0,0.0,0.0,0.0,0.0,0.0,0.0,0.0,0.0,0.0,0.0,0.0,0.0,0.0,0.0,0.0,0.0,0.0,0.0,0.0,0.0,0.0,0.0,0.0,0.0,0.0,0.0,0.0,0.0,0.0,0.0,0.0,0.0,7.0312,7.1094,7.0234,0.0,0.0,0.0,0.0,6.3437,6.5156,0.0,0.0,0.0,0.0,0.0,0.0,0.0,0.0,0.0,0.0,0.0,0.0,0.0,0.0,0.0,0.0,0.0,0.0,0.0,0.0,0.0,0.0,0.0,0.0,0.0,0.0,0.0,0.0,0.0,0.0,0.0,0.0,0.0,0.0,0.0,0.0,0.0,0.0,0.0,0.0,0.0,0.0,0.0,0.0,0.0,0.0,0.0,0.0,0.0,0.0,0.0,0.0,0.0,0.0,0.0,0.0,8.4375,9.082,9.8554,10.7422,11.0273,11.1289,11.0508,10.2578,9.4062,0.0,0.0,0.0,0.0,0.0,0.0,0.0,0.0,0.0,0.0,0.0,0.0,0.0,0.0,0.0,0.0,0.0,0.0,0.0,0.0,0.0,0.0,0.0,0.0,0.0,0.0,0.0,0.0,0.0,0.0,0.0,0.0,0.0,0.0,0.0,0.0,0.0,0.0,0.0,0.0,0.0,7.539,7.3281,7.3515,7.2461,0.0,0.0,6.793,6.8437,7.1914,0.0,0.0,0.0,0.0,0.0,0.0,0.0,0.0,0.0,0.0,0.0,0.0,0.0,0.0,0.0,0.0,0.0,0.0,0.0,0.0,0.0,0.0,0.0,0.0,0.0,0.0,0.0,0.0,0.0,0.0,0.0,0.0,0.0,0.0,0.0,0.0,0.0,0.0,0.0,0.0,0.0,0.0,0.0,0.0,0.0,0.0,0.0,0.0,0.0,0.0,0.0,0.0,0.0,0.0,0.0,7.6523,8.4844,9.3242,10.0937,10.7734,11.0078,11.0976,11.0586,9.9161,9.0391,0.0,0.0,0.0,0.0,0.0,0.0,0.0,0.0,0.0,0.0,0.0,0.0,0.0,0.0,0.0,0.0,0.0,0.0,0.0,0.0,0.0,0.0,0.0,0.0,0.0,0.0,0.0,0.0,0.0,0.0,0.0,0.0,0.0,0.0,0.0,0.0,0.0,0.0,0.0,0.0,0.0,0.0,7.5664,7.625,0.0,0.0,0.0,7.1758,7.164,0.0,0.0,0.0,0.0,0.0,0.0,0.0,0.0,0.0,0.0,0.0,0.0,0.0,0.0,0.0,0.0,0.0,0.0,0.0,0.0,0.0,0.0,0.0,0.0,0.0,0.0,0.0,0.0,0.0,0.0,0.0,0.0,0.0,0.0,0.0,0.0,0.0,0.0,0.0,0.0,0.0,0.0,0.0,0.0,0.0,0.0,0.0,0.0,0.0,0.0,0.0,0.0,0.0,0.0,0.0,0.0,0.0,8.4922,9.4981,10.2718,10.7734,10.9753,11.0619,11.0168,9.7687,0.0,0.0,0.0,0.0,0.0,0.0,0.0,0.0,0.0,0.0,0.0,0.0,0.0,0.0,0.0,0.0,0.0,0.0,0.0,0.0,0.0,0.0,0.0,0.0,0.0,0.0,0.0,6.0742,0.0,0.0,0.0,0.0,0.0,0.0,0.0,0.0,0.0,0.0,0.0,0.0,0.0,0.0,7.7265,7.75,7.8633,7.8906,0.0,0.0,7.5586,7.4726,7.7305,7.7109,0.0,0.0,0.0,0.0,0.0,0.0,0.0,0.0,0.0,0.0,0.0,0.0,0.0,0.0,0.0,0.0,0.0,0.0,0.0,0.0,0.0,0.0,0.0,0.0,0.0,0.0,0.0,0.0,0.0,0.0,0.0,0.0,0.0,0.0,0.0,0.0,0.0,0.0,0.0,0.0,0.0,0.0,0.0,0.0,0.0,0.0,0.0,0.0,0.0,0.0,0.0,0.0,0.0,0.0,0.0,8.5,9.4822,10.2461,10.7458,10.9888,11.0679,10.9763,10.1919,9.3741,0.0,0.0,0.0,0.0,0.0,0.0,0.0,0.0,0.0,0.0,0.0,0.0,0.0,0.0,0.0,0.0,0.0,0.0,0.0,0.0,0.0,0.0,0.0,0.0,0.0,0.0,0.0,0.0,0.0,0.0,0.0,0.0,0.0,0.0,0.0,0.0,0.0,0.0,0.0,0.0,0.0,7.75,7.8281,8.0508,8.1719,0.0,0.0,7.9062,7.8281,8.4101,8.5195,7.4648,0.0,0.0,0.0,0.0,0.0,0.0,0.0,0.0,0.0,0.0,0.0,0.0,0.0,0.0,0.0,0.0,0.0,0.0,0.0,0.0,0.0,0.0,0.0,0.0,0.0,0.0,0.0,0.0,0.0,0.0,0.0,0.0,0.0,0.0,0.0,0.0,0.0,0.0,0.0,0.0,0.0,0.0,0.0,0.0,0.0,0.0,0.0,0.0,0.0,0.0,0.0,0.0,0.0,7.957,8.5469,9.5525,10.2866,10.7209,10.9291,11.0144,10.9799,10.2147,9.3814,0.0,0.0,0.0,0.0,0.0,0.0,0.0,0.0,0.0,0.0,0.0,0.0,0.0,0.0,0.0,0.0,0.0,0.0,0.0,0.0,0.0,0.0,0.0,0.0,0.0,0.0,0.0,0.0,6.1211,6.0898,6.0898,0.0,0.0,0.0,0.0,0.0,0.0,0.0,0.0,0.0,0.0,7.8476,8.1953,8.3281,0.0,0.0,8.3476,8.2773,8.2304,8.3867,8.2589,7.5118,7.1399,0.0,0.0,0.0,0.0,0.0,0.0,0.0,0.0,0.0,0.0,0.0,0.0,0.0,0.0,0.0,0.0,0.0,0.0,0.0,0.0,0.0,0.0,0.0,0.0,0.0,0.0,0.0,0.0,0.0,0.0,0.0,0.0,0.0,0.0,0.0,0.0,0.0,0.0,0.0,0.0,0.0,0.0,0.0,0.0,0.0,0.0,0.0,0.0,0.0,0.0,0.0,0.0,8.0211,8.5781,9.5814,10.2931,10.701,10.8671,10.9525,10.9335,10.2636,9.4895,0.0,0.0,0.0,0.0,0.0,0.0,0.0,0.0,0.0,0.0,0.0,0.0,0.0,0.0,0.0,0.0,0.0,0.0,0.0,0.0,0.0,0.0,0.0,0.0,0.0,0.0,0.0,0.0,6.1328,6.0781,6.0781,0.0,0.0,0.0,0.0,0.0,0.0,0.0,0.0,0.0,0.0,7.9531,8.3906,8.4888,8.5364,8.578,8.4961,8.4219,8.3867,8.3209,8.0767,7.4801,0.0,0.0,0.0,0.0,0.0,0.0,0.0,0.0,0.0,0.0,0.0,0.0,0.0,0.0,0.0,0.0,0.0,0.0,0.0,0.0,0.0,0.0,0.0,0.0,0.0,0.0,0.0,6.2497,0.0,0.0,6.3708,0.0,0.0,0.0,0.0,0.0,0.0,0.0,0.0,0.0,0.0,0.0,0.0,0.0,0.0,0.0,0.0,0.0,0.0,0.0,0.0,0.0,0.0,8.0655,8.5818,9.548,10.2517,10.6703,10.8206,10.8944,10.8834,10.3944,9.798,9.0979,0.0,0.0,0.0,0.0,0.0,0.0,0.0,0.0,0.0,0.0,0.0,0.0,0.0,0.0,0.0,0.0,0.0,0.0,0.0,0.0,0.0,0.0,0.0,0.0,0.0,0.0,6.293,6.2187,6.168,0.0,0.0,0.0,0.0,0.0,0.0,0.0,0.0,0.0,0.0,7.5859,8.0586,8.3281,8.4898,8.5646,8.5101,8.3906,8.2851,8.2226,8.3032,8.1344,0.0,0.0,0.0,0.0,0.0,0.0,0.0,0.0,0.0,0.0,0.0,0.0,0.0,0.0,0.0,0.0,0.0,0.0,0.0,0.0,0.0,0.0,0.0,0.0,0.0,0.0,0.0,6.5539,6.4915,0.0,0.0,0.0,0.0,0.0,0.0,0.0,0.0,0.0,0.0,0.0,7.0546,7.1323,0.0,0.0,0.0,0.0,0.0,0.0,0.0,0.0,0.0,0.0,0.0,0.0,8.14,8.6582,9.6193,10.2937,10.6429,10.8671,10.9483,10.8873,10.4522,9.7173,8.6599,0.0,0.0,0.0,0.0,0.0,0.0,0.0,0.0,0.0,0.0,0.0,0.0,0.0,0.0,0.0,0.0,0.0,0.0,0.0,0.0,0.0,0.0,0.0,0.0,0.0,6.3633,0.0,0.0,0.0,0.0,0.0,0.0,0.0,0.0,0.0,0.0,0.0,6.7187,7.2578,7.6367,8.0,8.375,8.5036,8.5748,0.0,0.0,0.0,0.0,0.0,0.0,0.0,0.0,0.0,0.0,0.0,0.0,0.0,0.0,7.0825,6.6346,6.5947,6.6563,6.7462,0.0,0.0,0.0,0.0,0.0,0.0,0.0,0.0,0.0,0.0,0.0,0.0,0.0,0.0,6.8309,0.0,6.7616,0.0,0.0,0.0,0.0,0.0,0.0,0.0,0.0,7.1103,7.3495,7.508,7.5861,7.6429,0.0,7.5476,7.278,0.0,0.0,0.0,0.0,0.0,0.0,0.0,0.0,8.2009,8.6806,9.6482,10.317,10.6314,10.8594,10.9332,10.8409,10.3482,9.6172,8.6252,7.8998,7.2883,0.0,0.0,0.0,0.0,0.0,0.0,0.0,0.0,0.0,0.0,0.0,0.0,0.0,0.0,0.0,0.0,0.0,0.0,0.0,0.0,0.0,0.0,0.0,6.4101,0.0,0.0,0.0,0.0,0.0,0.0,0.0,0.0,0.0,6.5156,6.6719,6.9922,7.5508,7.8398,8.1006,8.4015,0.0,0.0,0.0,0.0,0.0,0.0,0.0,7.8951,7.6226,7.5474,7.4994,7.4402,7.5085,7.5602,7.5326,0.0,0.0,7.0271,6.9552,7.009,7.1245,7.1398,7.1887,7.3586,7.3909,7.4158,0.0,0.0,0.0,0.0,0.0,0.0,0.0,0.0,6.9563,7.1041,0.0,7.0579,0.0,0.0,0.0,0.0,0.0,7.021,0.0,0.0,7.7024,7.9285,7.7861,7.8631,7.86,7.8,7.8746,7.7784,7.5332,7.1359,0.0,0.0,0.0,0.0,0.0,0.0,8.2327,8.6697,9.6328,10.298,10.6237,10.8056,10.8524,10.7446,10.1096,9.5211,9.0056,8.5203,7.9576,7.2893,6.9528,0.0,0.0,0.0,0.0,0.0,0.0,0.0,0.0,0.0,0.0,0.0,0.0,0.0,0.0,0.0,0.0,0.0,0.0,0.0,0.0,6.4647,0.0,0.0,0.0,0.0,0.0,0.0,0.0,0.0,0.0,0.0,6.7148,7.0,7.3867,7.8711,0.0,0.0,0.0,0.0,8.4728,8.3426,8.2817,8.2362,8.1823,8.2755,8.2227,7.8266,0.0,0.0,7.8179,7.6273,7.5156,7.4213,7.637,7.7314,7.6515,7.4303,7.3236,7.4725,7.4098,7.3437,7.4829,7.6164,7.6284,7.9361,0.0,0.0,0.0,0.0,7.2794,7.3937,7.5361,7.5822,7.563,7.4851,7.3745,0.0,0.0,0.0,0.0,0.0,0.0,7.5127,7.7246,8.0907,8.3593,8.5478,8.6901,8.7132,8.6291,8.4747,8.3054,8.1131,7.8767,7.5324,7.0931,0.0,0.0,0.0,0.0,8.3041,8.9226,9.775,10.3286,10.5426,10.8364,10.8252,10.5059,10.0712,9.6019,9.1018,8.7709,8.3208,7.7237,7.3667,0.0,0.0,0.0,0.0,0.0,0.0,0.0,0.0,0.0,0.0,0.0,0.0,0.0,0.0,0.0,0.0,0.0,0.0,0.0,6.7166,6.638,6.5542,0.0,0.0,0.0,0.0,0.0,0.0,0.0,0.0,0.0,7.1914,7.3008,7.5078,0.0,0.0,8.153,8.2862,8.4176,8.5247,8.603,8.6569,0.0,8.6659,8.5421,8.4111,8.2913,8.4022,8.4868,8.4571,8.4071,8.3912,8.4176,8.3901,8.3478,8.3093,8.0638,7.9292,8.0638,8.1568,8.2644,8.4324,8.5604,8.6646,8.844,8.1977,7.8823,7.74,7.7323,7.7938,7.9092,8.0554,8.0862,8.0623,7.9914,7.8391,7.6609,7.4734,7.2635,0.0,0.0,0.0,7.9275,8.2496,8.4945,8.7555,9.021,9.1941,9.1902,9.0441,8.9556,8.8094,8.6094,8.4747,8.2208,7.8507,0.0,0.0,7.6366,8.0799,8.5689,9.118,9.8673,10.3403,10.5089,10.7095,10.679,10.3943,10.0596,9.7057,9.3364,9.0094,8.617,8.14,7.6908,7.2696,0.0,0.0,0.0,0.0,0.0,0.0,0.0,0.0,0.0,0.0,0.0,6.2878,0.0,0.0,0.0,0.0,6.6492,6.7106,6.7859,6.6224,0.0,0.0,0.0,0.0,0.0,0.0,0.0,6.6015,6.957,7.293,7.5351,7.6802,7.8624,8.1364,8.2819,8.3926,8.4901,0.0,8.7257,8.8243,8.8815,8.9162,8.9171,8.8171,8.7291,8.6953,8.6991,8.726,8.7795,8.7641,8.7598,8.7902,8.7319,8.6621,8.6594,8.5434,8.4472,8.4593,8.5676,8.7137,8.8815,9.0556,9.2061,9.5634,9.3595,8.7401,8.3785,8.2247,8.367,8.4362,8.4439,8.5209,8.5774,8.6092,8.3695,8.2561,8.2265,7.8762,0.0,7.9428,8.1157,8.3572,8.6709,8.9017,9.1056,9.2864,9.4364,9.3864,9.1672,9.3095,9.2595,9.0364,8.9517,8.8709,8.7709,8.3387,8.0885,8.0708,8.5301,8.945,9.2903,9.9327,10.352,10.5249,10.5097,10.4637,10.3789,10.0481,9.7865,9.6057,9.2172,8.8479,8.5055,7.9537,7.5203,7.2542,0.0,0.0,0.0,0.0,0.0,0.0,0.0,0.0,0.0,0.0,0.0,0.0,0.0,0.0,0.0,6.584,0.0,6.7821,6.5192,0.0,0.0,0.0,6.3002,6.5072,6.5547,6.6633,6.9015,0.0,0.0,7.7764,8.0961,8.3618,8.5267,8.7414,8.8877,8.8913,8.9513,9.0139,9.026,9.037,9.0441,9.0759,9.1028,9.0987,9.0136,8.9448,8.9063,8.8909,8.8221,8.7718,8.794,8.7693,8.761,8.7627,8.8815,8.9354,8.6978,8.7445,8.8602,9.0329,9.2061,9.3755,9.8557,9.7442,9.5865,9.3441,9.071,9.0479,9.071,9.1248,9.0864,8.9744,8.7968,8.6049,8.3824,8.1484,8.2446,8.3407,8.4445,8.6176,8.8367,9.0941,9.1595,9.3133,9.5365,9.5826,9.5672,9.5095,9.4788,9.4364,9.3787,9.3595,9.2749,9.1325,9.0744,8.8859,8.5786,8.7483,9.1059,9.6288,10.0442,10.4059,10.6905,10.5174,10.3789,10.2904,9.9596,9.6711,9.4403,9.2133,8.9325,8.594,8.204,7.8436,7.5195,7.0063,0.0,0.0,0.0,0.0,0.0,0.0,0.0,0.0,0.0,6.3512,6.3756,0.0,6.6282,0.0,6.7136,6.8099,6.8411,6.831,0.0,0.0,6.7642,6.7813,6.7113,6.9305,7.1373,7.2645,7.5779,7.8525,8.028,8.4001,8.6819,8.7752,8.7804,8.8459,9.0293,9.1331,9.2102,9.2716,9.3828,9.4749,9.4559,9.4364,9.3515,9.213,9.1672,9.1364,9.0713,8.9906,8.9521,9.0094,8.9748,8.9363,8.9325,9.0706,9.136,9.0441,9.1707,9.3512,9.4587,9.6055,9.7558,10.0904,10.0481,10.0481,9.9635,9.8096,9.6134,9.5557,9.5903,9.5095,9.371,9.1979,9.0252,8.8021,8.5786,8.7478,8.8517,8.9056,9.0325,9.2095,9.4172,9.4557,9.5711,9.7403,9.7403,9.7019,9.6288,9.6172,9.5711,9.5057,9.5749,9.5634,9.4749,9.5557,9.4788,9.2556,9.1825,9.3672,9.8019,10.1443,10.4443,10.6944,10.502,10.3482,10.2558,9.8942,9.5595,9.2672,8.9902,8.7325,8.5055,8.1738,7.8557,7.5533,7.0959,6.7253,0.0,0.0,0.0,0.0,0.0,0.0,0.0,0.0,0.0,0.0,0.0,6.7203,6.8086,6.8915,6.964,7.0368,7.0835,7.0758,6.985,7.0581,7.1082,7.0774,7.2454,7.4361,7.634,7.8915,8.1266,8.3187,8.617,8.8743,9.0136,9.0296,9.0837,9.2563,9.3637,9.4329,9.4828,9.5674,9.598,9.5289,9.4749,9.3826,9.2328,9.1941,9.1864,9.1787,9.1402,9.1248,9.1672,9.1675,9.1482,9.121,9.2438,9.3512,9.3823,9.5206,9.6438,9.6361,9.7288,9.8558,10.2751,10.2789,10.2751,10.3212,10.3674,10.0712,9.9327,9.9058,9.8096,9.7173,9.6211,9.456,9.3097,9.1787,9.271,9.3018,9.2864,9.3633,9.4864,9.6288,9.6903,9.775,9.8788,9.8673,9.7942,9.6673,9.7211,9.6826,9.5557,9.698,9.7673,9.7711,9.8634,9.9019,9.8711,9.6788,9.6942,9.925,10.2443,10.4828,10.6328,10.452,10.3097,10.202,9.8019,9.4134,9.0479,8.6863,8.4324,8.3093,8.0273,7.7592,7.5245,7.1198,6.7908,0.0,6.249,0.0,0.0,0.0,0.0,0.0,0.0,0.0,0.0,6.7436,6.9199,7.1815,7.1197,7.1402,7.3108,7.3378,7.3388,7.3234,7.3196,7.3707,7.4985,7.537,7.6716,7.9792,8.1689,8.3687,8.5901,8.7858,8.997,9.1976,9.3059,9.3906,9.4982,9.5674,9.6134,9.6288,9.6288,9.5865,9.4674,9.4212,9.3636,9.2025,9.1713,9.1748,9.2367,9.2441,9.2479,9.2672,9.3136,9.333,9.2787,9.3862,9.5206,9.5901,9.7287,9.8018,9.7364,9.7673,9.8481,10.3635,10.3635,10.3635,10.3751,10.3828,10.3212,10.2135,10.075,9.9211,9.7711,9.6249,9.5212,9.4597,9.4403,9.5865,9.5826,9.4595,9.5403,9.598,9.6288,9.5711,9.6634,9.8673,9.8057,9.7942,9.8288,9.7788,9.7711,9.8096,9.8404,9.8557,9.8596,10.0096,10.0135,9.8904,0.0,0.0,0.0,10.3866,10.5366,10.6251,10.3367,10.1058,9.9481,9.5403,0.0,8.6363,8.5324,8.3555,8.0708,7.9883,0.0,0.0,0.0,0.0,0.0,0.0,0.0,0.0,0.0,0.0,0.0,7.2444,7.1467,6.8521,7.0335,7.27,7.5026,7.5138,7.5408,7.6332,7.7015,7.7385,7.7329,7.7347,7.7455,7.7839,7.8985,8.0439,8.1701,8.3912,8.58,8.7094,8.9244,9.1168,9.2438,9.3826,9.5058,9.5942,9.6172,9.6288,9.6288,9.6288,9.6211,9.5865,9.567,9.4898,9.3708,9.3207,9.2977,9.2636,9.2523,9.2753,9.3326,9.3597,9.3714,9.3518,9.4326,9.5365,9.6134,9.7135,9.8096,9.9171,10.0019,10.0673,10.5136,10.5136,10.5136,10.5405,0.0,10.4443,10.3174,10.1866,10.0596,9.9096,9.7557,9.7557,9.7288,9.6942,9.8211,9.7865,9.6249,9.6711,9.6903,9.6903,9.7326,9.8404,10.0058,10.0019,10.0212,10.0596,9.9365,9.9211,10.0019,9.9635,9.9865,10.0673,10.152,10.1943,10.1981,10.402,10.4636,10.3867,10.552,10.679,10.7485,10.5137,10.302,10.125,9.6788,0.0,0.0,0.0,0.0,0.0,0.0,0.0,0.0,7.5875,0.0,7.1698,7.1146,7.1287,7.2161,7.3366,7.4255,7.4704,7.6254,7.5774,7.2531,7.4293,7.6425,7.8391,7.8622,7.9083,8.0285,8.1177,8.1497,8.1085,8.142,8.1491,8.1208,8.1778,8.2855,8.4048,8.5291,8.6834,8.9017,9.0287,9.1902,9.3441,9.4405,9.5328,9.6095,9.6288,9.6288,9.6288,9.6288,9.598,9.5212,9.5018,9.467,9.3403,9.2749,9.29,9.3595,9.3405,9.3368,9.4172,9.4674,9.4866,9.4518,9.5365,9.6519,9.7402,9.8212,9.9173,10.0404,10.0673,10.0827,10.6674,10.6444,10.6713,10.7251,10.7713,10.552,10.3905,10.2712,0.0,0.0,0.0,9.9558,9.9481,9.8865,9.9865,9.9288,9.7557,9.7673,9.7634,9.7596,9.9135,10.0366,10.1327,10.2174,10.2597,10.2559,10.1173,10.0866,10.1481,10.0866,10.1327,10.2712,10.3097,10.4097,10.5828,10.7982,10.8175,10.6369,10.7328,10.8213,10.8793,10.6944,10.5174,10.3482,9.8827,9.4287,9.0056,8.6555,8.4093,8.2785,8.1415,7.9866,7.8122,7.7834,7.6079,7.2675,7.3597,7.4533,7.4812,7.6233,7.7368,7.7955,8.0208,8.0394,7.7553,7.8864,8.0553,8.2271,8.2424,8.2995,8.4374,8.5137,8.5291,8.4599,8.5022,8.5016,8.4388,8.4273,8.485,8.6055,8.6632,8.7863,9.0671,9.1441,9.2441,9.4443,9.5135,9.5443,9.6095,9.6288,9.6288,9.6288,9.6288,9.5826,9.4674,9.4366,9.3866,9.3328,9.2482,9.2672,9.4247,9.4405,9.4328,9.5057,9.5826,9.5865,9.548,9.6211,9.7595,9.8557,9.9365,10.0173,10.0981,10.075,10.0596,10.7713,10.6521,10.7944,10.8636,10.8636,10.7636,10.5867,10.3443,9.9712,9.8327,9.8788,9.8904,9.8904,9.8904,10.0442,9.9827,9.7596,9.8288,9.8211,9.7557,9.8519,9.9827,10.1327,10.2174,10.2597,10.2558,10.2366,10.2289,10.2404,10.2289,10.2751,10.3789,10.5174,10.6674,10.8329,10.9444,11.0214,11.056,10.9367,10.879,10.8829,10.5828,10.3403,10.1633,9.825,9.4285,9.0094,8.9359,8.7627,8.4709,8.4318,8.3086,8.0739,7.99,7.8844,7.7599,7.7689,7.8423,7.9889,8.0888,8.2688,8.5522,8.7473,8.6819,8.3028,8.4076,8.5762,8.7435,8.7473,8.7704,8.8007,8.8045,8.7974,8.7858,8.7358,8.6973,8.6781,8.6781,8.6896,8.7242,8.8517,8.9675,9.1095,9.2438,9.3631,9.4789,9.5597,9.6134,9.6172,9.6288,9.6288,9.6288,9.6288,9.6172,9.5634,9.5899,9.5322,9.4783,9.4403,9.4251,9.4978,9.4903,9.5058,9.5942,9.6211,9.6211,9.6057,9.6249,9.7211,9.848,9.9019,9.9634,10.0981,10.1135,10.1135,11.0098,10.9867,11.0175,11.0329,11.0137,10.7944,10.6328,10.4982,10.1712,10.0481,10.0827,10.0866,10.0866,10.0904,10.1673,10.0635,9.825,9.9096,9.9058,9.8365,10.0019,10.152,10.2751,10.4059,10.4674,10.4636,10.4174,10.4212,10.4559,10.3789,10.3982,10.5251,10.6521,10.8175,11.0214,11.1137,11.1752,11.2094,11.1368,11.0944,11.0906,10.8098,10.602,10.4787,10.1058,9.7711,9.4826,9.3403,9.1556,8.9133,8.8556,8.7363,8.5357,8.4401,8.3541,8.2708,8.3079,8.3676,8.4484,8.5747,8.7094,8.8671,8.9898,9.0017,8.8567,8.8682,8.9217,8.9975,9.0047,9.0086,9.0052,8.9628,8.9325,8.9363,8.8632,8.8098,8.8098,8.8098,8.8252,8.8748,8.9406,9.0559,9.2361,9.321,9.4249,9.5405,9.6134,9.6134,9.5712,9.6019,9.6134,9.5712,9.5558,9.5366,9.5058,9.4903,9.4901,9.4939,9.4597,9.4751,9.5365,9.5403,9.5405,9.6095,9.6288,9.6288,9.6288,9.6673,9.7479,9.8441,9.925,9.9981,10.0981,10.1289,10.1289,11.2137,11.2637,11.2022,11.1445,11.0637,10.7713,10.6405,10.6136,10.3674,10.2904,10.3366,10.2866,10.2597,10.2597,10.2597,10.1404,9.9635,9.9865,9.9827,9.9635,10.1597,10.3135,10.4251,10.5905,10.6713,10.6636,10.6174,10.6328,10.6751,10.5636,10.5905,10.7405,10.7829,10.9252,11.1752,11.2406,11.2791,11.2978,11.3214,11.3022,11.2368,11.0098,10.8521,10.7521,10.4097,10.1404,9.9673,9.7596,9.5674,9.4018,9.2903,9.1556,8.9975,8.9013,8.8084,8.7186,8.7776,8.8243,8.8359,8.9624,9.0475,9.0521,9.1482,9.2328,9.2945,9.2638,9.2174,9.1828,9.1745,9.1745,9.171,9.1213,9.0752,9.0713,9.0021,8.9675,8.9563,8.9371,8.9563,9.029,9.0329,9.1171,9.3207,9.3826,9.4368,9.5865,9.6134,9.5674,9.5212,9.5634,9.5634,9.5097,9.502,9.5172,9.4366,9.4405,9.4712,9.5212,9.4828,9.5097,9.5865,9.5674,9.5558,9.6172,9.6288,9.6288,9.6365,9.6903,9.7749,9.8595,9.9404,10.0327,10.1096,10.1289,10.1289,11.2637,11.2676,11.2676,11.1252,10.9136,10.7251,10.6482,10.6097,10.3712,10.3943,10.5559,10.3635,10.2635,10.2597,10.2674,10.2058,10.0981,10.0366,10.0442,10.1096,10.2135,10.3443,10.5059,10.6751,10.7559,10.7636,10.8136,10.8367,10.8444,10.8367,10.9213,11.0675,10.956,11.006,11.2329,11.2676,11.3099,11.3868,11.4676,11.3945,11.1675,10.9829,10.8482,10.7716,10.5828,10.3941,10.2212,10.1289,9.9942,9.8288,9.6634,9.5018,9.3364,9.2473,9.1275,8.9773,9.0398,9.0864,9.0902,9.1745,9.2326,9.2371,9.3753,9.4674,9.4828,9.5405,9.5135,9.3982,9.3557,9.348,9.3445,9.333,9.3174,9.3092,9.2476,9.2168,9.1941,9.1441,9.1287,9.2168,9.1556,9.2053,9.4167,9.4287,9.452,9.6057,9.5789,9.5289,9.5058,9.5211,9.5057,9.4482,9.5095,9.5976,9.5822,9.6017,9.5865,9.6019,9.6095,9.6057,9.6172,9.6249,9.6249,9.6172,9.6288,9.6288,9.6519,9.6942,9.7749,9.8788,9.9635,10.0365,10.1058,10.1289,10.1289,11.406,11.4868,11.4445,11.2753,11.0406,10.9136,10.779,10.629,10.5328,10.5174,10.5482,10.452,10.4097,10.4059,10.4059,10.3097,10.1366,10.1481,10.1443,10.152,10.3212,10.4713,10.5944,10.7598,10.8406,10.8406,10.8752,10.8675,10.8367,10.8675,10.9252,10.9906,10.9713,11.0944,11.3253,11.2945,11.3407,11.4753,11.5138,11.4522,11.2978,11.1329,10.979,10.8409,10.6751,10.5097,10.3482,10.2558,10.1289,9.9712,9.8904,9.775,9.6058,9.5172,9.4439,9.3746,9.398,9.398,9.3482,9.4672,9.5441,9.5443,9.6557,9.7248,9.7248,9.7595,9.7441,9.6749,9.5826,9.5249,9.5174,9.4789,9.4482,9.4364,9.3713,9.321,9.3169,9.2861,9.2823,9.313,9.2903,9.321,9.4629,9.517,9.5481,9.6172,9.5942,9.5557,9.5132,9.5437,9.5363,9.4828,9.5557,9.594,9.5747,9.5518,9.5788,9.6134,9.6288,9.6288,9.6288,9.6288,9.6288,9.6288,9.6288,9.6519,9.698,9.6865,9.725,9.875,10.0173,10.0903,10.125,10.1289,10.1289,11.4984,11.6215,11.5368,11.3483,11.106,10.9944,10.8175,10.6174,10.5828,10.5597,10.5443,10.5213,10.5405,10.5674,10.5097,10.3712,10.2212,10.2174,10.2058,10.1943,10.4059,10.5443,10.6213,10.829,10.9136,10.9021,10.9406,10.9444,10.9175,10.9906,11.0406,11.0675,11.106,11.2175,11.3791,11.3714,11.4253,11.5215,11.5715,11.5599,11.4593,11.3017,11.1252,10.9294,10.7367,10.5713,10.4289,10.3405,10.2289,10.0866,10.0558,9.9788,9.8289,9.7635,9.725,9.6981,9.6749,9.648,9.6097,9.7173,9.7865,9.7904,9.848,9.8788,9.8788,9.8788,9.8788,9.8634,9.7673,9.6981,9.6903,9.6403,9.598,9.5674,9.4943,9.4366,9.4093,9.39,9.3746,9.3977,9.3751,9.402,9.4901,9.567,9.6249,9.6249,9.6057,9.5788,9.5209,9.5478,9.567,9.5135,9.5712,9.6019,9.5481,9.5481,9.5712,9.6019,9.6288,9.6288,9.6288,9.6288,9.6288,9.6288,9.6288,9.6442,9.6826,9.6788,9.7596,9.9596,10.0827,10.125,10.1289,10.1289,10.1289,11.4984,11.6176,11.4753,11.2637,11.0175,10.8598,10.6828,10.5136,10.4443,10.4905,10.5982,10.5443,10.5982,10.7213,10.5097,10.3905,10.352,10.2212,10.1943,10.2597,10.4328,10.5136,10.5366,10.8482,10.9713,10.929,11.0598,11.1598,11.2252,11.3214,11.4214,11.4753,11.3945,11.383,11.4291,11.5407,11.5907,11.5643,11.6869,11.7215,11.6253,11.4714,11.2637,11.0294,10.7752,10.6059,10.5059,10.4251,10.3366,10.2481,10.1635,10.0827,10.0057,9.9904,9.9481,9.8673,9.7942,9.7827,9.8442,9.8711,9.8827,9.8788,9.8904,9.8865,9.9058,9.9058,9.9058,9.8865,9.8827,9.8712,9.8672,9.8364,9.7979,9.725,9.6596,9.5826,9.502,9.4366,9.4176,9.4635,9.4366,9.4366,9.4978,9.5749,9.6211,9.6172,9.5597,9.5135,9.5174,9.5135,9.5174,9.5289,9.5712,9.6249,9.6211,9.6057,9.6134,9.6288,9.6288,9.6288,9.6288,9.6288,9.6288,9.6288,9.6288,9.6403,9.6634,9.7557,9.9019,10.0366,10.0943,10.1289,10.1289,10.1289,10.1289,11.4984,11.6253,11.4099,11.2329,11.0906,10.9175,10.6905,10.4405,10.4597,10.4674,10.4828,10.4982,10.5751,10.679,10.5366,10.4366,10.3866,10.3212,10.2828,10.2904,10.4905,10.6213,10.7021,10.9713,11.0906,11.0791,11.1714,11.2406,11.2753,11.3599,11.3868,11.3714,11.3907,11.4484,11.5407,11.5676,11.6061,11.6946,11.8061,11.7946,11.6599,11.5407,11.383,11.1834,10.929,10.7059,10.5136,10.4828,10.402,10.2674,10.1789,10.1173,10.0903,10.0827,10.0519,9.9788,9.9827,9.9865,9.9711,10.0134,10.0404,10.0404,10.0404,10.0327,10.0404,10.0404,10.0404,10.0365,10.0365,10.0404,10.0173,9.9481,9.8442,9.7673,9.725,9.6749,9.6057,9.5558,9.5481,9.5712,9.552,9.5557,9.5711,9.6134,9.6288,9.6249,9.6019,9.5865,9.5826,9.5826,9.5751,9.5865,9.6095,9.6288,9.6288,9.6288,9.6288,9.6288,9.6288,9.6288,9.6288,9.6288,9.6288,9.6288,9.6288,9.6634,9.698,9.8365,9.9865,10.0366,10.0903,10.1289,10.1289,10.1289,10.1289,11.5869,11.6407,11.3868,11.2252,11.1329,10.9637,10.7136,10.4559,10.5443,10.5482,10.4943,10.5559,10.629,10.6674,10.6174,10.529,10.4251,10.3751,10.3174,10.2904,10.552,10.7021,10.7675,11.0175,11.1522,11.1752,11.2945,11.3522,11.3637,11.4407,11.4638,11.4484,11.4984,11.5753,11.6715,11.6869,11.7446,11.8292,11.9107,11.8876,11.7677,11.6369,11.5022,11.3407,11.106,10.8406,10.5674,10.502,10.4251,10.3097,10.2174,10.1712,10.1712,10.1712,10.1366,10.0673,10.0981,10.1096,10.0634,10.1019,10.1289,10.1289,10.1289,10.1289,10.1289,10.1289,10.1289,10.1289,10.1289,10.1289,10.1096,10.0288,9.925,9.8519,9.8327,9.7864,9.6865,9.6942,9.6903,9.6711,9.6634,9.6557,9.6403,9.6557,9.6673,9.6673,9.6519,9.6365,9.6596,9.6442,9.6288,9.6288,9.6249,9.6288,9.6288,9.6288,9.6326,9.6326,9.6288,9.6288,9.6326,9.6326,9.6365,9.6326,9.6557,9.6942,9.7827,9.9135,9.9865,10.0365,10.0827,10.1289,10.1289,10.1289,10.1289,11.7715,11.7253,11.4137,11.2175,11.1291,10.956,10.7405,10.5597,10.6751,10.6828,10.6251,10.7175,10.7559,10.7636,10.7521,10.6713,10.5213,10.3905,10.3212,10.3328,10.6213,10.7328,10.7098,11.006,11.1598,11.1791,11.406,11.5176,11.5215,11.6061,11.683,11.7484,11.7407,11.7484,11.783,11.8985,11.9607,11.9415,11.9915,12.0177,11.9938,11.7792,11.6176,11.5099,11.2791,10.9983,10.6674,10.5059,10.4212,10.3789,10.3058,10.2597,10.252,10.2597,10.2212,10.1597,10.1443,10.1404,10.1404,10.1481,10.1597,10.1597,10.1443,10.1558,10.152,10.1443,10.1404,10.1327,10.1289,10.1289,10.1289,10.1135,10.0711,10.0211,9.9788,9.9133,9.8095,9.821,9.844,9.7633,9.7364,9.7133,9.6749,9.7094,9.7479,9.7402,9.6942,9.6749,9.7287,9.6942,9.6442,9.6403,9.6634,9.6865,9.6596,9.6326,9.6365,9.6365,9.6326,9.6288,9.6403,9.6403,9.6634,9.6673,9.698,9.7441,9.8172,9.9404,10.0211,10.0711,10.1096,10.1289,10.1289,10.1289,10.1289,11.7253,11.7292,11.3522,11.1752,11.1214,10.906,10.7213,10.6097,10.6636,10.6636,10.6713,10.7905,10.8213,10.7944,10.8252,10.7905,10.6905,10.629,10.579,10.5713,10.7521,10.8713,10.9252,11.0714,11.1791,11.2599,11.433,11.5599,11.6292,11.7561,11.8177,11.7869,11.783,11.8138,11.8715,11.9215,11.9523,12.0023,12.0754,12.0677,11.9592,11.8754,11.76,11.6099,11.4214,11.1868,10.9175,10.7405,10.5713,10.4097,10.3635,10.3212,10.2828,10.3175,10.3329,10.3136,10.3059,10.3098,10.3098,10.3059,10.3021,10.3059,10.3059,10.279,10.229,10.2174,10.1943,10.1481,10.1327,10.1289,10.1289,10.1289,10.0942,10.0211,10.0096,9.9712,9.8673,9.8173,9.7789,9.7595,9.7518,9.7364,9.7364,9.7864,9.8364,9.8326,9.7673,9.7481,9.8056,9.7673,9.7173,9.7134,9.7403,9.748,9.7096,9.7096,9.7402,9.7134,9.6903,9.6826,9.6826,9.6903,9.7057,9.7288,9.7633,9.8095,9.8826,9.9558,10.0481,10.0981,10.1212,10.1289,10.1289,10.1289,10.1289,11.76,11.733,11.3599,11.1752,11.1329,10.9406,10.8136,10.7482,10.7675,10.7636,10.7675,10.8752,10.8906,10.8444,10.9021,10.8906,10.8213,10.8444,10.8367,10.7982,10.879,10.9675,11.0329,11.1445,11.2599,11.3714,11.5061,11.5984,11.6561,11.8177,11.8792,11.8369,11.8561,11.9177,11.9946,12.0023,12.0331,12.0831,12.1293,12.11,12.0169,11.9715,11.9023,11.7792,11.5945,11.4022,11.2099,11.0214,10.7944,10.5828,10.5328,10.4751,10.3751,10.4059,10.4252,10.3905,10.3866,10.3866,10.3866,10.3789,10.3866,10.3866,10.3866,10.3674,10.3212,10.3058,10.279,10.2405,10.1981,10.1789,10.175,10.1443,10.1096,10.0596,10.0557,10.0288,9.9634,9.8673,9.8289,9.8441,9.8555,9.8326,9.8211,9.8711,9.9249,9.9135,9.8558,9.8289,9.8826,9.8519,9.8173,9.8019,9.8211,9.8057,9.752,9.7827,9.8403,9.8095,9.771,9.7673,9.7673,9.7825,9.7979,9.8211,9.8519,9.8942,9.9596,10.0173,10.0903,10.1135,10.1289,10.1289,10.1289,10.1289,10.1404,11.86,11.7407,11.4176,11.2291,11.1445,11.0444,10.956,10.9136,10.9675,10.9521,10.9213,10.9867,10.979,10.929,10.9867,10.9867,10.9329,10.9983,11.0291,11.0291,11.056,11.0752,11.106,11.2368,11.3637,11.483,11.6138,11.6638,11.683,11.86,11.9215,11.9215,11.9908,12.0639,12.1062,12.1447,12.1408,12.1447,12.1562,12.1523,12.137,12.0677,12.0216,11.9992,11.7753,11.6022,11.483,11.2714,11.0329,10.8136,10.7446,10.6636,10.5556,10.5249,10.5018,10.448,10.4131,10.4247,10.417,10.4364,10.4287,10.4326,10.4326,10.3977,10.4018,10.3943,10.3829,10.3598,10.3059,10.2597,10.2404,10.1904,10.1443,10.1289,10.1173,10.1135,10.1135,9.9788,9.925,9.9711,10.0018,9.9826,9.8981,9.9634,10.0057,10.0019,9.9442,9.9404,9.9711,9.9519,9.898,9.8981,9.9173,9.8789,9.8366,9.9019,9.948,9.9095,9.8749,9.8711,9.8557,9.8672,9.8865,9.9096,9.9442,9.9865,10.0173,10.0635,10.1019,10.1212,10.1289,10.1289,10.1366,10.1404,10.175,11.86,11.7523,11.483,11.2829,11.1483,11.056,11.0098,10.9906,11.0098,11.0098,11.006,11.0791,11.0637,11.0021,11.0752,11.1021,11.0944,11.1598,11.206,11.2175,11.2753,11.2983,11.3176,11.4022,11.4484,11.4868,11.6984,11.8061,11.7677,11.9715,12.0485,12.0023,12.0754,12.0985,12.0793,12.1293,12.1562,12.16,12.16,12.16,12.1447,12.0793,12.0331,12.0139,11.8484,11.71,11.6138,11.4368,11.1829,10.8867,10.8026,10.7523,10.7059,10.6944,10.679,10.6559,10.6097,10.6059,10.6405,10.6097,10.5749,10.5749,10.5672,10.548,10.4826,10.4787,10.448,10.4057,10.3634,10.3288,10.2751,10.2405,10.1981,10.1404,10.1289,10.1289,10.1135,10.0442,9.9865,10.0096,10.0135,10.0019,10.0019,10.0365,10.0865,10.075,10.0365,9.9981,10.0404,10.0327,9.975,9.9981,10.0057,9.9634,9.9558,10.0212,10.0442,10.0058,9.9865,9.9865,9.9596,9.9365,9.9596,9.9827,10.025,10.0673,10.0596,10.0712,10.0981,10.1289,10.1289,10.1327,10.1558,10.1712,10.2174,11.8677,11.71,11.5291,11.3368,11.156,11.0944,11.0752,11.0752,11.0752,11.0752,11.0868,11.1252,11.1214,11.0829,11.1291,11.1522,11.1598,11.2329,11.2676,11.2906,11.3907,11.4445,11.4561,11.483,11.4984,11.583,11.7561,11.8331,11.8715,12.0562,12.1023,12.06,12.1177,12.1293,12.1023,12.1293,12.16,12.16,12.16,12.16,12.1523,12.11,12.0908,12.0639,11.9485,11.8215,11.6561,11.4522,11.2291,11.0367,10.9525,10.8986,10.829,10.8216,10.8216,10.8178,10.7713,10.7713,10.7985,10.7716,10.7485,10.7369,10.7175,10.6713,10.6251,10.5864,10.5364,10.5095,10.4672,10.4172,10.3712,10.3058,10.2212,10.1481,10.1289,10.1289,10.1289,10.0865,10.0634,10.0596,10.0596,10.0596,10.0596,10.1058,10.125,10.1212,10.0903,10.0865,10.1096,10.075,10.0596,10.0711,10.0788,10.0442,10.025,10.075,10.0943,10.0635,10.0558,10.0634,10.0442,10.0096,10.0288,10.0596,10.1058,10.125,10.1019,10.0904,10.1096,10.1289,10.1289,10.1366,10.1558,10.2212,10.2635,11.8792,11.6407,11.5638,11.3868,11.1829,11.1522,11.1445,11.1483,11.1445,11.1445,11.1483,11.1483,11.1483,11.1522,11.1637,11.1675,11.1752,11.2829,11.3176,11.3753,11.4714,11.5484,11.5638,11.5445,11.6061,11.7407,11.7907,11.8677,11.9446,12.0793,12.1062,12.0754,12.1177,12.1485,12.1408,12.1562,12.1562,12.16,12.16,12.16,12.16,12.1485,12.1408,12.1293,12.0562,11.9023,11.6984,11.4868,11.306,11.2137,11.1791,11.0791,10.9521,10.9332,10.9371,10.9409,10.9367,10.921,10.9178,10.9101,10.887,10.8678,10.8098,10.7754,10.7405,10.6867,10.6405,10.6136,10.5633,10.5172,10.471,10.3635,10.2559,10.1827,10.1558,10.1558,10.1327,10.1289,10.1289,10.1289,10.1289,10.1289,10.1289,10.1289,10.1289,10.1289,10.1135,10.1173,10.125,10.1096,10.1019,10.1135,10.1173,10.125,10.1173,10.1212,10.1212,10.1096,10.1058,10.1096,10.1096,10.0943,10.1096,10.1289,10.1289,10.1289,10.125,10.125,10.1289,10.1289,10.1289,10.1289,10.1443,10.2481,10.3135,11.8831,11.6446,11.5599,11.4214,11.2522,11.1791,11.1522,11.1522,11.1522,11.1522,11.1522,11.1522,11.156,11.1598,11.2214,11.2445,11.2637,11.3907,11.5022,11.5715,11.5945,11.6676,11.7215,11.7484,11.7869,11.8446,11.9946,12.0408,12.0369,12.0369,12.0869,12.1216,12.0793,12.0946,12.1523,12.16,12.16,12.16,12.16,12.16,12.16,12.16,12.16,12.1485,12.0716,11.9792,11.8677,11.7369,11.633,11.5215,11.3637,11.2488,11.1872,11.1757,11.1718,11.1603,11.1214,11.0944,11.0829,11.0329,10.9633,10.9133,10.8825,10.8364,10.7754,10.76,10.7059,10.6597,10.6213,10.5826,10.5095,10.4212,10.329,10.2635,10.279,10.2713,10.1673,10.1366,10.1404,10.1327,10.1289,10.1289,10.1289,10.1289,10.1289,10.1289,10.1289,10.1289,10.1289,10.1289,10.1289,10.1289,10.1289,10.1289,10.1289,10.1289,10.1289,10.1289,10.1289,10.1289,10.1289,10.1289,10.1289,10.1289,10.1289,10.1289,10.1289,10.1289,10.1289,10.1289,10.1366,10.1481,10.1827,10.2828,10.3634,11.8446,11.6484,11.6022,11.4638,11.2829,11.2252,11.1868,11.156,11.1522,11.1714,11.2022,11.206,11.2291,11.2676,11.3099,11.333,11.3599,11.4638,11.5715,11.6369,11.683,11.7369,11.7984,11.8985,11.9408,11.9215,12.0216,12.06,12.0408,12.0331,12.0523,12.0908,12.0523,12.0831,12.1447,12.16,12.16,12.16,12.16,12.16,12.16,12.16,12.16,12.1293,12.0485,11.96,11.9562,11.7946,11.7523,11.7138,11.6028,11.445,11.3483,11.333,11.333,11.3214,11.2978,11.2401,11.2055,11.1632,11.106,11.0171,10.9786,10.9325,10.8829,10.8562,10.787,10.7251,10.6905,10.6559,10.5287,10.4828,10.4059,10.352,10.3598,10.3444,10.2712,10.2212,10.1712,10.1481,10.1289,10.1289,10.1289,10.1404,10.1327,10.1327,10.1289,10.1289,10.1289,10.1289,10.1289,10.1289,10.1289,10.1289,10.1289,10.1289,10.1289,10.1289,10.1289,10.1289,10.1289,10.1289,10.1289,10.1289,10.1289,10.1289,10.1289,10.1289,10.1327,10.1404,10.152,10.1712,10.2327,10.3443,10.4174,11.7946,11.6484,11.6369,11.4984,11.3099,11.2906,11.2483,11.1791,11.1675,11.2175,11.2757,11.2791,11.3022,11.383,11.4137,11.4214,11.4638,11.5291,11.633,11.6522,11.7561,11.7984,11.8484,11.9408,12.0292,12.0446,12.0677,12.06,12.0562,12.0408,12.06,12.0677,12.0562,12.11,12.1639,12.1793,12.1754,12.1639,12.16,12.16,12.16,12.16,12.16,12.1331,12.06,12.01,12.0023,11.8792,11.7869,11.91,11.8414,11.6913,11.5445,11.4555,11.4593,11.4632,11.4516,11.4016,11.344,11.3099,11.2757,11.1945,11.1291,11.0748,11.0521,10.9829,10.9101,10.8332,10.7831,10.7059,10.571,10.5364,10.4941,10.4364,10.4174,10.4174,10.3826,10.3288,10.2789,10.2058,10.2097,10.2135,10.1827,10.1712,10.152,10.1327,10.1327,10.1289,10.1289,10.1289,10.1289,10.1289,10.1289,10.1289,10.1289,10.1289,10.1289,10.1289,10.1289,10.1289,10.1289,10.1289,10.1289,10.1289,10.1289,10.1327,10.1327,10.1289,10.1366,10.1481,10.1866,10.2251,10.3098,10.4137,10.4636,11.7407,11.6446,11.5792,11.483,11.3868,11.3791,11.3291,11.2599,11.2483,11.2983,11.3604,11.3099,11.3363,11.4093,11.4868,11.5407,11.5984,11.6638,11.6946,11.6984,11.8061,11.8869,11.91,11.9908,12.0716,12.1216,12.1331,12.1254,12.1023,12.0754,12.0946,12.1908,12.1639,12.1754,12.237,12.2639,12.2216,12.1677,12.16,12.16,12.16,12.16,12.16,12.16,12.1062,12.11,12.1062,12.0331,11.9831,11.9985,11.9292,11.8715,11.8061,11.7446,11.7061,11.6715,11.6253,11.5516,11.4747,11.472,11.4378,11.3796,11.3219,11.2834,11.2214,11.1522,11.0637,10.9601,10.8524,10.7562,10.7331,10.6597,10.5787,10.5326,10.5326,10.5366,10.448,10.4287,10.4289,10.3598,10.3406,10.3136,10.2674,10.2289,10.2058,10.1827,10.1635,10.1481,10.1289,10.1289,10.1289,10.1289,10.1289,10.1289,10.1289,10.1289,10.1289,10.1289,10.1289,10.1289,10.1289,10.1289,10.1327,10.152,10.152,10.152,10.1481,10.1481,10.1866,10.2289,10.2597,10.2905,10.379,10.4597,10.4982,11.7138,11.7061,11.6292,11.5445,11.4753,11.4638,11.3907,11.2868,11.3176,11.3604,11.4066,11.4445,11.5176,11.5901,11.6369,11.6638,11.6715,11.7407,11.7523,11.7561,11.8831,11.9715,11.9792,12.0562,12.11,12.1485,12.1562,12.1331,12.0908,12.0523,12.1139,12.1754,12.1754,12.2062,12.2716,12.2831,12.2447,12.1793,12.16,12.16,12.16,12.16,12.16,12.16,12.16,12.16,12.1523,12.1293,12.0946,12.0908,12.06,12.0408,12.0139,11.9562,11.8677,11.7991,11.7414,11.6599,11.5599,11.5253,11.483,11.4099,11.406,11.383,11.3445,11.2901,11.2214,11.0868,10.9371,10.8293,10.8255,10.7562,10.6905,10.6559,10.6482,10.602,10.5556,10.5595,10.5405,10.5022,10.4289,10.3789,10.3482,10.3097,10.279,10.2444,10.2058,10.175,10.1481,10.1443,10.1481,10.1289,10.1289,10.1289,10.1289,10.1289,10.1289,10.1289,10.1289,10.1289,10.1366,10.1404,10.1712,10.2058,10.1981,10.2097,10.2212,10.2443,10.2789,10.3174,10.3635,10.4059,10.452,10.502,10.54,11.6907,11.7484,11.6792,11.6022,11.5407,11.5484,11.4676,11.356,11.3984,11.4527,11.4912,11.5913,11.6984,11.7785,11.7946,11.7638,11.6869,11.7715,11.7946,11.81,11.9408,12.0254,12.0523,12.1062,12.1562,12.1523,12.1562,12.1216,12.0985,12.0985,12.1408,12.2254,12.2331,12.2639,12.3408,12.3408,12.2678,12.2062,12.1639,12.16,12.16,12.16,12.16,12.16,12.16,12.16,12.16,12.1523,12.1677,12.1716,12.1639,12.16,12.1639,12.1023,11.9869,11.8607,11.8183,11.7298,11.6599,11.6215,11.6176,11.5676,11.5016,11.4824,11.4632,11.4439,11.3593,11.206,11.0525,10.9525,10.9448,10.8562,10.8062,10.7754,10.7175,10.6674,10.6713,10.6674,10.6444,10.5867,10.5018,10.4557,10.4287,10.4018,10.3751,10.3212,10.2866,10.2366,10.2097,10.1866,10.175,10.1443,10.1289,10.1289,10.1289,10.1289,10.1289,10.1289,10.1289,10.1289,10.1404,10.152,10.1943,10.2443,10.3212,10.3406,10.3406,10.3366,10.3597,10.402,10.4672,10.5133,10.5443,10.5657,10.5932,11.6561,11.6638,11.6561,11.6022,11.5484,11.6022,11.583,11.5022,11.5061,11.6022,11.6875,11.683,11.7561,11.8631,11.8946,11.8446,11.8138,11.8484,11.8638,11.8446,11.9677,12.0446,12.0485,12.1177,12.1523,12.16,12.16,12.1562,12.1562,12.21,12.287,12.3524,12.4216,12.4909,12.4639,12.4255,12.3562,12.2754,12.1947,12.16,12.16,12.16,12.16,12.16,12.16,12.16,12.16,12.1677,12.1985,12.2524,12.1985,12.2024,12.2455,12.1908,12.1023,12.01,11.9415,11.8882,11.8453,11.8222,11.8183,11.7677,11.7446,11.7414,11.6676,11.5715,11.4714,11.3796,11.218,11.1175,11.0791,10.9671,10.906,10.8482,10.8062,10.8024,10.8101,10.7521,10.729,10.7175,10.6521,10.5749,10.5249,10.498,10.471,10.4134,10.3634,10.3174,10.2674,10.2404,10.1866,10.1481,10.1366,10.1404,10.1481,10.1481,10.152,10.1443,10.1366,10.1366,10.1481,10.1673,10.2289,10.2866,10.379,10.4287,10.4087,10.4087,10.4323,10.4672,10.5095,10.5595,10.6136,10.6336,10.6223,11.6792,11.7176,11.6676,11.6292,11.6061,11.6369,11.6022,11.5484,11.5792,11.6375,11.7144,11.7792,11.8677,11.9592,11.9792,11.9331,11.8869,11.9369,11.96,11.9369,12.0292,12.0985,12.1139,12.137,12.1562,12.16,12.1639,12.1985,12.2293,12.2716,12.3332,12.4139,12.4947,12.5293,12.5447,12.5024,12.4062,12.3024,12.21,12.16,12.16,12.16,12.16,12.16,12.16,12.16,12.1754,12.2139,12.2447,12.2831,12.2447,12.2485,12.2609,12.2147,12.137,12.11,12.0716,12.0108,11.9215,11.9177,11.9215,11.91,11.8754,11.8292,11.7715,11.6753,11.5676,11.4753,11.3676,11.2786,11.2175,11.1055,11.0286,10.9637,10.8944,10.8832,10.8832,10.8444,10.8056,10.8059,10.7985,10.7175,10.6402,10.602,10.5556,10.4864,10.4441,10.4095,10.3443,10.2828,10.2174,10.1404,10.1404,10.152,10.1673,10.175,10.1904,10.1827,10.152,10.152,10.152,10.1866,10.2674,10.3443,10.4249,10.4547,10.4566,10.4884,10.5208,10.5364,10.5441,10.5665,10.5843,10.5772,10.5934,11.6869,11.7407,11.6984,11.6676,11.6561,11.6715,11.6369,11.5753,11.6484,11.6952,11.7568,11.8908,12.0062,12.0523,12.0562,12.0216,11.9485,12.0023,12.0254,12.0562,12.0908,12.1293,12.1447,12.1562,12.16,12.16,12.1985,12.2293,12.2793,12.3408,12.4024,12.4447,12.5409,12.5755,12.5678,12.537,12.4601,12.337,12.2716,12.2408,12.234,12.2062,12.2139,12.2062,12.1908,12.1793,12.2254,12.2524,12.287,12.3601,12.3015,12.2947,12.3062,12.2254,12.1639,12.1447,12.1331,12.0985,12.0254,11.9938,11.9746,11.9669,11.94,11.9054,11.8254,11.7407,11.6792,11.6099,11.517,11.4291,11.3407,11.2445,11.1598,11.0752,10.994,10.9675,10.9367,10.8979,10.8902,10.8979,10.8829,10.8444,10.7713,10.7098,10.6444,10.5672,10.5249,10.498,10.4249,10.3443,10.2712,10.1943,10.1866,10.1981,10.2058,10.2212,10.2289,10.2404,10.2058,10.2058,10.2289,10.2828,10.3675,10.4328,10.4701,10.4884,10.4898,10.5498,10.6011,10.5358,10.4979,10.5166,10.5265,10.5269,10.5776,11.6522,11.6638,11.7407,11.7215,11.6599,11.7369,11.7215,11.6484,11.7292,11.8023,11.8838,12.0485,12.1254,12.1408,12.1293,12.0946,12.0216,12.0254,12.0408,12.0408,12.0446,12.1023,12.137,12.16,12.16,12.1716,12.2062,12.2524,12.3216,12.4178,12.4832,12.5409,12.6024,12.6447,12.6294,12.5678,12.5024,12.4101,12.3725,12.3648,12.3456,12.3263,12.3101,12.3293,12.2601,12.2293,12.3716,12.3447,12.3524,12.4678,12.3668,12.3168,12.3293,12.2293,12.1677,12.16,12.16,12.1331,12.1062,12.1023,12.1293,12.1139,12.0677,11.9861,11.9054,11.8992,11.8414,11.7414,11.6369,11.5676,11.4714,11.3791,11.2829,11.206,11.1329,11.0906,11.0444,10.9671,10.9594,10.9825,10.9671,10.9363,10.8748,10.8056,10.729,10.6521,10.5905,10.5595,10.4943,10.4135,10.3443,10.2867,10.2636,10.2597,10.2674,10.2751,10.298,10.3251,10.3212,10.3289,10.3482,10.4059,10.4214,10.4445,10.4635,10.495,10.5103,10.5132,10.5025,10.4615,10.4512,10.497,10.5302,10.5375,10.6176,11.7138,11.8061,11.7907,11.76,11.733,11.7638,11.76,11.7253,11.71,11.783,11.9215,12.0754,12.16,12.16,12.16,12.1447,12.11,12.11,12.1062,12.11,12.1177,12.1293,12.1562,12.16,12.16,12.1677,12.2024,12.2831,12.3755,12.4486,12.5332,12.5947,12.6524,12.664,12.6409,12.5947,12.5293,12.487,12.4456,12.4148,12.4024,12.387,12.3793,12.3909,12.3755,12.3408,12.4024,12.4409,12.4524,12.4447,12.3937,12.3668,12.3293,12.2216,12.1677,12.16,12.16,12.16,12.16,12.16,12.16,12.1562,12.1216,12.0754,11.99,11.9446,11.8715,11.7869,11.71,11.6407,11.5291,11.4676,11.4137,11.345,11.2796,11.2175,11.1637,11.0902,11.0671,11.1098,11.0786,11.044,10.9709,10.8979,10.8175,10.7328,10.6751,10.6136,10.5482,10.4905,10.4251,10.3674,10.3483,10.3637,10.3713,10.3751,10.3708,10.398,10.4289,10.4128,10.4006,10.3941,10.409,10.4368,10.4372,10.4305,10.4249,10.4264,10.4231,10.4214,10.4584,10.5052,10.532,10.5663,10.6629,11.7369,11.8561,11.8061,11.7792,11.7792,11.7792,11.7638,11.7446,11.7407,11.8254,11.9869,12.11,12.16,12.16,12.16,12.16,12.1485,12.1523,12.1523,12.1523,12.1485,12.16,12.16,12.16,12.16,12.1639,12.2024,12.2831,12.3985,12.4332,12.5332,12.6255,12.6717,12.6717,12.6563,12.614,12.5755,12.5563,12.5255,12.487,12.4947,12.4639,12.4793,12.4716,12.437,12.4486,12.4793,12.5178,12.4986,12.4678,12.4216,12.3678,12.2947,12.2177,12.1677,12.16,12.16,12.16,12.16,12.16,12.16,12.1562,12.1562,12.1216,12.0716,12.01,11.9677,11.8407,11.7638,11.683,11.5907,11.533,11.4984,11.4214,11.3522,11.2978,11.2906,11.2406,11.2329,11.2368,11.1945,11.1522,11.0906,11.006,10.8521,10.7752,10.7213,10.6597,10.5982,10.552,10.5174,10.4636,10.4251,10.456,10.4906,10.4405,10.4054,10.4787,10.49,10.44,10.4239,10.41,10.3994,10.4106,10.3957,10.3523,10.3608,10.4079,10.4226,10.4241,10.4689,10.5349,10.618,10.6664,10.7242,11.7061,11.7792,11.7869,11.7869,11.7907,11.783,11.7446,11.7215,11.8331,11.9754,12.1062,12.1485,12.16,12.16,12.16,12.16,12.16,12.16,12.16,12.16,12.16,12.16,12.16,12.16,12.16,12.1831,12.2331,12.3139,12.4101,12.4793,12.5755,12.6409,12.6717,12.6717,12.6678,12.6678,12.664,12.664,12.6486,12.6371,12.6178,12.5678,12.5794,12.5794,12.5178,12.5178,12.5832,12.5794,12.5524,12.514,12.4601,12.3909,12.2947,12.2216,12.1754,12.16,12.16,12.16,12.16,12.16,12.1677,12.16,12.16,12.1447,12.1485,12.1216,12.06,11.9138,11.8761,11.7991,11.6907,11.5945,11.5638,11.5138,11.4401,11.3939,11.3868,11.3522,11.3291,11.3176,11.2906,11.2565,11.2026,11.1102,10.9178,10.8101,10.7677,10.7136,10.6636,10.629,10.6097,10.5905,10.5559,10.5715,10.583,10.471,10.4477,10.5287,10.5465,10.485,10.4439,10.4229,10.4134,10.4078,10.3822,10.3613,10.3833,10.4049,10.4541,10.5134,10.5238,10.576,10.6764,10.7587,10.8175,11.7523,11.7869,11.8407,11.8677,11.8677,11.8677,11.8484,11.8446,11.9369,12.0216,12.0793,12.1293,12.16,12.16,12.16,12.16,12.16,12.16,12.16,12.16,12.16,12.16,12.16,12.16,12.16,12.1831,12.2485,12.3332,12.4139,12.4986,12.5832,12.6486,12.6717,12.6717,12.6717,12.6717,12.6678,12.6678,12.6678,12.6678,12.664,12.6409,12.6371,12.6678,12.5986,12.6063,12.664,12.6255,12.5947,12.5486,12.4909,12.4293,12.3255,12.2447,12.2224,12.1831,12.1639,12.16,12.1754,12.1947,12.2186,12.1831,12.16,12.16,12.16,12.1023,12.0408,11.9908,11.9415,11.8568,11.7529,11.726,11.6875,11.6099,11.5484,11.4978,11.4753,11.4132,11.3786,11.3747,11.3555,11.3176,11.268,11.2411,11.0752,10.9717,10.9332,10.8562,10.7985,10.7562,10.7292,10.7292,10.7139,10.7139,10.6749,10.5541,10.5099,10.5747,10.5672,10.5135,10.4799,10.4488,10.4421,10.4339,10.4093,10.3897,10.4482,10.5087,10.5804,10.6213,10.647,10.6737,10.7452,10.8285,10.8771,11.7984,11.8331,11.8869,11.9254,11.9446,11.9215,11.9254,11.9562,12.01,12.0446,12.0831,12.137,12.16,12.16,12.16,12.16,12.16,12.16,12.16,12.16,12.16,12.16,12.16,12.16,12.16,12.1831,12.2485,12.3332,12.4139,12.4986,12.587,12.6486,12.6717,12.6717,12.6717,12.6717,12.6717,12.6717,12.6717,12.6717,12.6678,12.664,12.6678,12.6717,12.6601,12.6717,12.6717,12.6563,12.6294,12.5678,12.5216,12.4755,12.3716,12.2985,12.284,12.2494,12.2494,12.237,12.237,12.2878,12.2724,12.1716,12.16,12.16,12.1523,12.1216,12.0754,12.0254,11.98,11.91,11.8446,11.8292,11.7837,11.7023,11.6869,11.6446,11.6138,11.5599,11.5599,11.5401,11.4824,11.4253,11.356,11.3176,11.2522,11.1752,11.1102,11.0217,10.9294,10.8752,10.837,10.8332,10.8021,10.7629,10.7141,10.6259,10.6039,10.6297,10.5928,10.5321,10.4844,10.4501,10.4569,10.4787,10.4942,10.5165,10.5725,10.6276,10.6791,10.744,10.8138,10.8285,10.8395,10.8822,10.9468,11.8369,11.9061,11.9138,11.9638,12.01,11.96,11.9715,12.0331,12.0369,12.0831,12.1562,12.1523,12.16,12.16,12.16,12.16,12.16,12.16,12.16,12.16,12.16,12.16,12.16,12.16,12.16,12.1908,12.2562,12.3524,12.4178,12.5255,12.6101,12.6524,12.6717,12.6717,12.6717,12.6717,12.6717,12.6717,12.6717,12.6717,12.6717,12.6717,12.6717,12.6717,12.6717,12.6717,12.6717,12.664,12.6255,12.5832,12.5486,12.4947,12.4216,12.3456,12.361,12.3763,12.3917,12.3639,12.3207,12.3678,12.3225,12.2177,12.1831,12.1677,12.1562,12.1408,12.11,12.0793,12.0408,11.9823,11.9323,11.9061,11.8761,11.853,11.8453,11.8183,11.7914,11.7799,11.7952,11.76,11.6907,11.6176,11.5215,11.4676,11.4099,11.3753,11.2868,11.1598,11.0632,10.9709,10.9367,10.9178,10.8748,10.7966,10.7392,10.711,10.6989,10.7253,10.6038,10.5404,10.4991,10.5091,10.556,10.5936,10.6082,10.6475,10.7011,10.7342,10.7502,10.8308,10.9262,10.9335,10.9349,10.9716,11.0252,11.8869,11.9215,12.0369,12.0677,12.0369,12.0716,12.1023,12.1216,12.1216,12.1408,12.16,12.16,12.16,12.16,12.16,12.16,12.16,12.16,12.16,12.16,12.16,12.16,12.16,12.16,12.16,12.21,12.2908,12.387,12.4409,12.5486,12.6294,12.664,12.6717,12.6717,12.6717,12.6717,12.6717,12.6717,12.6717,12.6717,12.6717,12.6717,12.6717,12.6717,12.6717,12.6717,12.6717,12.6717,12.6447,12.6371,12.6294,12.5909,12.5101,12.4793,12.4793,12.413,12.4486,12.4716,12.4091,12.4533,12.4302,12.2985,12.2524,12.2062,12.1831,12.1562,12.1447,12.1177,12.1023,12.06,12.0169,11.9908,11.9485,11.9215,11.9261,11.9222,11.8946,11.9023,11.9138,11.86,11.7946,11.7369,11.6484,11.5824,11.5285,11.5291,11.4638,11.3209,11.203,11.1101,11.0281,11.0056,10.9437,10.8679,10.8775,10.8533,10.8283,10.7978,10.6875,10.6286,10.6523,10.6695,10.689,10.711,10.7391,10.7893,10.843,10.8591,10.8859,10.9409,11.0216,11.0216,11.0326,11.0546,11.0692,11.9562,11.9754,12.1023,12.1293,12.0946,12.137,12.16,12.16,12.16,12.16,12.16,12.16,12.16,12.16,12.16,12.16,12.16,12.16,12.16,12.16,12.16,12.16,12.16,12.1639,12.187,12.2447,12.3293,12.4255,12.487,12.5794,12.6678,12.6678,12.6717,12.6717,12.6717,12.6717,12.6717,12.6717,12.6717,12.6717,12.6717,12.6717,12.6717,12.6717,12.6717,12.6717,12.6717,12.6717,12.6717,12.6717,12.6717,12.6486,12.5947,12.5909,12.5476,12.5014,12.5399,12.5322,12.4937,12.5409,12.4793,12.3899,12.3332,12.2917,12.2301,12.187,12.1677,12.1447,12.1485,12.137,12.1062,12.0754,12.0169,11.9708,11.9831,11.9946,11.9985,11.9977,11.9631,11.9131,11.8677,11.8177,11.7561,11.69,11.6324,11.5907,11.5407,11.4478,11.3337,11.2472,11.1536,11.0935,11.0176,10.9384,10.96,10.9496,10.9055,10.8652,10.8223,10.7771,10.8125,10.8112,10.8125,10.8431,10.8799,10.9179,10.9595,11.006,11.0362,11.0876,11.1405,11.1698,11.1552,11.1184,11.1258,12.0331,12.0446,12.1254,12.1562,12.1562,12.16,12.16,12.16,12.16,12.16,12.16,12.16,12.16,12.16,12.16,12.16,12.16,12.16,12.16,12.16,12.16,12.16,12.16,12.1639,12.2024,12.287,12.3755,12.4562,12.5524,12.6409,12.6948,12.6755,12.6871,12.6871,12.6717,12.6717,12.6717,12.6717,12.6717,12.6717,12.6717,12.6717,12.6717,12.6717,12.6717,12.6717,12.6717,12.6717,12.6717,12.6717,12.6678,12.664,12.6601,12.6563,12.6101,12.5986,12.6217,12.6063,12.5832,12.614,12.5447,12.4678,12.4024,12.334,12.2524,12.1908,12.1639,12.16,12.1562,12.1562,12.1293,12.1216,12.0869,12.0639,12.0677,12.0677,12.0639,12.0506,12.0043,11.9478,11.8845,11.8365,11.7857,11.7193,11.6826,11.6389,11.5849,11.5244,11.4239,11.3379,11.2468,11.157,11.0836,11.0088,10.9841,10.9739,10.9482,10.9152,10.9092,10.9202,10.9335,10.9284,10.9284,10.9629,11.001,11.0377,11.0832,11.1258,11.1772,11.2123,11.2653,11.3272,11.3088,11.2286,11.2065,12.0677,12.1293,12.1485,12.16,12.16,12.16,12.16,12.16,12.16,12.16,12.16,12.16,12.16,12.16,12.16,12.16,12.16,12.16,12.16,12.16,12.16,12.16,12.16,12.16,12.2139,12.2908,12.3832,12.5024,12.6255,12.7063,12.7294,12.6871,12.7178,12.7448,12.6717,12.6717,12.6832,12.6717,12.6717,12.6717,12.6717,12.6717,12.6717,12.6717,12.6717,12.6717,12.6717,12.6717,12.6717,12.6717,12.6717,12.6717,12.6678,12.6717,12.6601,12.6486,12.6486,12.6486,12.6447,12.6409,12.5832,12.4822,12.3976,12.3139,12.2408,12.187,12.16,12.16,12.16,12.16,12.1562,12.1562,12.1562,12.1485,12.1331,12.1216,12.1139,12.0756,12.0313,11.9658,11.892,11.8392,11.7951,11.7583,11.7371,11.6936,11.6401,11.5657,11.4493,11.3469,11.2732,11.1906,11.1399,11.0791,11.0433,11.0216,11.0106,11.0216,11.0304,11.045,11.0509,11.0362,11.0252,11.0854,11.1258,11.1566,11.1934,11.2647,11.3073,11.335,11.3627,11.4048,11.4011,11.3407,11.3187,12.1177,12.1562,12.16,12.16,12.16,12.16,12.16,12.16,12.16,12.16,12.16,12.16,12.16,12.16,12.16,12.16,12.16,12.16,12.16,12.16,12.16,12.16,12.16,12.1639,12.2524,12.3332,12.4755,12.6024,12.7025,12.7525,12.7602,12.7332,12.7871,12.7909,12.6986,12.6948,12.7025,12.6717,12.6755,12.6755,12.6755,12.6717,12.6717,12.6717,12.6717,12.6717,12.6717,12.6717,12.6717,12.6717,12.6717,12.6322,12.6284,12.6427,12.6399,12.6255,12.6332,12.6717,12.664,12.6409,12.6101,12.5206,12.4216,12.3417,12.3109,12.257,12.1639,12.16,12.16,12.16,12.16,12.1562,12.1562,12.1523,12.0946,12.0515,12.0131,11.9652,11.917,11.8581,11.7998,11.7636,11.7174,11.6743,11.657,11.6417,11.6103,11.5718,11.4542,11.375,11.3051,11.238,11.1947,11.1393,11.0845,11.0766,11.0928,11.1111,11.1331,11.1148,11.1001,11.1074,11.1258,11.1662,11.1992,11.2411,11.2852,11.3639,11.3991,11.414,11.447,11.4837,11.4598,11.4488,11.447,12.1562,12.16,12.16,12.16,12.16,12.16,12.16,12.16,12.16,12.16,12.16,12.16,12.16,12.16,12.16,12.16,12.16,12.16,12.16,12.16,12.16,12.16,12.16,12.1677,12.2639,12.4024,12.5563,12.6524,12.7448,12.7755,12.7909,12.8025,12.8256,12.8409,12.7525,12.7371,12.7602,12.7255,12.714,12.6948,12.6871,12.6755,12.6717,12.6717,12.6717,12.6717,12.6717,12.6717,12.6717,12.6563,12.6486,12.5991,12.5627,12.5704,12.5487,12.5363,12.5514,12.587,12.6063,12.5947,12.5986,12.5678,12.4649,12.3879,12.3408,12.2716,12.1793,12.1485,12.1485,12.1523,12.1523,12.1485,12.1485,12.1156,12.0415,11.9811,11.9298,11.8709,11.812,11.7572,11.7191,11.6931,11.6549,11.6115,11.5986,11.5808,11.5497,11.513,11.469,11.4121,11.355,11.3036,11.2612,11.1988,11.1625,11.1588,11.1897,11.1787,11.1897,11.1552,11.1441,11.1588,11.1845,11.216,11.2616,11.3219,11.3807,11.4378,11.4654,11.491,11.513,11.5351,11.5424,11.5351,11.5699,12.16,12.16,12.16,12.16,12.16,12.16,12.16,12.16,12.16,12.16,12.16,12.16,12.16,12.16,12.16,12.16,12.16,12.16,12.16,12.16,12.16,12.16,12.1793,12.2254,12.2793,12.4216,12.5794,12.664,12.7525,12.7794,12.764,12.7294,12.8756,12.8756,12.7986,12.8025,12.8217,12.8035,12.765,12.7332,12.7958,12.7689,12.6794,12.6717,12.6717,12.6717,12.6717,12.6717,12.6717,12.6486,12.5976,12.5506,12.5088,12.4767,12.4454,12.4303,12.454,12.471,12.479,12.479,12.4886,12.471,12.3655,12.2972,12.2522,12.1967,12.1352,12.1254,12.1254,12.1331,12.1331,12.1254,12.1207,12.0321,11.9533,11.9101,11.8608,11.8006,11.7429,11.7058,11.6741,11.6491,11.6295,11.6078,11.5989,11.592,11.592,11.5461,11.5057,11.4507,11.4048,11.3771,11.333,11.3313,11.3132,11.2852,11.2904,11.2684,11.2448,11.2375,11.2338,11.2176,11.2469,11.2893,11.3607,11.4248,11.4836,11.5112,11.5369,11.5589,11.5736,11.592,11.5993,11.5993,11.5993]},{"header":{"parameterUnit":"m.s-1","parameterCategory":1,"la1":31.0,"la2":29.5877,"lo1":-88.7671,"lo2":-86.6584,"dx":0.0162,"dy":0.0185,"nx":115,"ny":88,"refTime":"2023-02-02T06:00:00:Z","depth":0,"parameterNumber":3,"parameterNumberName":"V-component_of_WINDS"},"data":[0.0,0.0,0.0,0.0,0.0,0.0,0.0,0.0,0.0,0.0,0.0,0.0,0.0,0.0,0.0,0.0,0.0,0.0,0.0,0.0,0.0,0.0,0.0,0.0,0.0,0.0,0.0,0.0,0.0,0.0,0.0,0.0,0.0,0.0,0.0,0.0,0.0,0.0,0.0,0.0,0.0,0.0,0.0,0.0,0.0,0.0,0.0,0.0,0.0,0.0,0.0,0.0,0.0,0.0,0.0,0.0,0.0,0.0,0.0,0.0,0.0,0.0,0.0,0.0,0.0,0.0,0.0,0.0,0.0,0.0,0.0,0.0,0.0,0.0,0.0,0.0,0.0,0.0,0.0,0.0,0.0,0.0,0.0,0.0,0.0,0.0,0.0,0.0,0.0,0.0,0.0,0.0,0.0,0.0,0.0,0.0,0.0,0.0,0.0,0.0,0.0,0.0,0.0,0.0,0.0,0.0,0.0,0.0,0.0,0.0,0.0,0.0,0.0,0.0,0.0,0.0,0.0,0.0,0.0,0.0,0.0,0.0,0.0,0.0,0.0,0.0,0.0,0.0,0.0,0.0,0.0,0.0,0.0,0.0,0.0,0.0,0.0,0.0,0.0,0.0,0.0,0.0,0.0,0.0,0.0,0.0,0.0,0.0,0.0,0.0,0.0,0.0,0.0,0.0,0.0,0.0,0.0,0.0,0.0,0.0,0.0,0.0,0.0,0.0,0.0,0.0,0.0,0.0,0.0,0.0,0.0,0.0,0.0,0.0,0.0,0.0,0.0,0.0,0.0,0.0,0.0,0.0,0.0,0.0,0.0,0.0,0.0,0.0,0.0,0.0,0.0,0.0,0.0,0.0,0.0,0.0,0.0,0.0,0.0,0.0,0.0,0.0,0.0,0.0,0.0,0.0,0.0,0.0,0.0,0.0,0.0,0.0,0.0,0.0,0.0,0.0,0.0,0.0,0.0,0.0,0.0,0.0,0.0,0.0,0.0,0.0,0.0,0.0,0.0,0.0,0.0,0.0,0.0,0.0,0.0,0.0,0.0,0.0,0.0,0.0,0.0,0.0,0.0,0.0,0.0,0.0,0.0,0.0,0.0,0.0,0.0,0.0,0.0,0.0,0.0,0.0,0.0,0.0,0.0,0.0,0.0,0.0,0.0,0.0,0.0,0.0,0.0,0.0,0.0,0.0,0.0,0.0,0.0,0.0,0.0,0.0,0.0,0.0,0.0,0.0,0.0,0.0,0.0,0.0,0.0,0.0,0.0,0.0,0.0,0.0,0.0,0.0,0.0,0.0,0.0,0.0,0.0,0.0,0.0,0.0,0.0,0.0,0.0,0.0,0.0,0.0,0.0,0.0,0.0,0.0,0.0,0.0,0.0,0.0,0.0,0.0,0.0,0.0,0.0,0.0,0.0,0.0,0.0,0.0,0.0,0.0,0.0,0.0,0.0,0.0,0.0,0.0,0.0,0.0,0.0,0.0,0.0,0.0,0.0,0.0,0.0,0.0,0.0,0.0,0.0,0.0,0.0,0.0,0.0,0.0,0.0,0.0,0.0,0.0,0.0,0.0,0.0,0.0,0.0,0.0,0.0,0.0,0.0,0.0,0.0,0.0,0.0,0.0,0.0,0.0,0.0,0.0,0.0,0.0,0.0,0.0,0.0,0.0,0.0,0.0,0.0,0.0,0.0,0.0,0.0,0.0,0.0,0.0,0.0,0.0,0.0,0.0,0.0,0.0,0.0,0.0,0.0,0.0,0.0,0.0,0.0,0.0,0.0,0.0,0.0,0.0,0.0,0.0,0.0,0.0,0.0,0.0,0.0,0.0,0.0,0.0,0.0,0.0,0.0,0.0,0.0,0.0,0.0,0.0,0.0,0.0,0.0,0.0,0.0,0.0,0.0,0.0,0.0,0.0,0.0,0.0,0.0,0.0,0.0,0.0,0.0,0.0,0.0,0.0,0.0,0.0,0.0,0.0,0.0,0.0,0.0,0.0,0.0,0.0,0.0,0.0,0.0,0.0,0.0,0.0,0.0,0.0,0.0,0.0,0.0,0.0,0.0,0.0,0.0,0.0,0.0,0.0,0.0,0.0,0.0,0.0,0.0,0.0,0.0,0.0,0.0,0.0,0.0,0.0,0.0,0.0,0.0,0.0,0.0,0.0,0.0,0.0,0.0,0.0,0.0,0.0,0.0,0.0,0.0,0.0,0.0,0.0,0.0,0.0,0.0,0.0,0.0,0.0,0.0,0.0,0.0,0.0,0.0,0.0,0.0,0.0,0.0,0.0,0.0,0.0,0.0,0.0,0.0,0.0,0.0,0.0,0.0,0.0,0.0,0.0,0.0,0.0,0.0,0.0,0.0,0.0,0.0,0.0,0.0,0.0,0.0,0.0,0.0,0.0,0.0,0.0,0.0,0.0,0.0,0.0,0.0,0.0,0.0,0.0,0.0,0.0,0.0,0.0,0.0,0.0,0.0,0.0,0.0,0.0,0.0,0.0,0.0,0.0,0.0,0.0,0.0,0.0,0.0,0.0,0.0,0.0,0.0,0.0,0.0,0.0,0.0,0.0,0.0,0.0,0.0,0.0,0.0,0.0,0.0,0.0,0.0,0.0,0.0,0.0,0.0,0.0,0.0,0.0,0.0,0.0,0.0,0.0,0.0,0.0,0.0,0.0,0.0,0.0,0.0,0.0,0.0,0.0,0.0,0.0,0.0,0.0,0.0,0.0,0.0,0.0,0.0,0.0,0.0,0.0,0.0,0.0,0.0,0.0,0.0,0.0,0.0,0.0,0.0,0.0,0.0,0.0,0.0,0.0,0.0,0.0,0.0,0.0,0.0,0.0,0.0,0.0,0.0,0.0,0.0,0.0,0.0,0.0,0.0,0.0,0.0,0.0,0.0,0.0,0.0,0.0,0.0,0.0,0.0,0.0,0.0,0.0,0.0,0.0,0.0,0.0,0.0,0.0,0.0,0.0,0.0,0.0,0.0,0.0,0.0,0.0,0.0,0.0,0.0,0.0,0.0,0.0,0.0,0.0,0.0,0.0,0.0,0.0,0.0,0.0,0.0,0.0,0.0,0.0,0.0,0.0,0.0,0.0,0.0,0.0,0.0,0.0,0.0,0.0,0.0,0.0,0.0,0.0,0.0,0.0,0.0,0.0,0.0,0.0,0.0,0.0,0.0,0.0,0.0,0.0,0.0,0.0,0.0,0.0,0.0,0.0,0.0,0.0,0.0,0.0,0.0,0.0,0.0,0.0,0.0,0.0,0.0,0.0,0.0,0.0,0.0,0.0,0.0,0.0,0.0,0.0,0.0,0.0,0.0,0.0,0.0,0.0,0.0,0.0,0.0,0.0,0.0,0.0,0.0,0.0,0.0,0.0,0.0,0.0,0.0,0.0,0.0,0.0,0.0,0.0,0.0,0.0,0.0,0.0,0.0,0.0,0.0,0.0,0.0,0.0,0.0,0.0,0.0,0.0,0.0,0.0,0.0,0.0,0.0,0.0,0.0,0.0,0.0,0.0,0.0,0.0,0.0,0.0,0.0,0.0,0.0,0.0,0.0,0.0,0.0,0.0,0.0,0.0,0.0,0.0,0.0,0.0,0.0,0.0,0.0,0.0,0.0,0.0,0.0,0.0,0.0,0.0,0.0,0.0,0.0,0.0,0.0,0.0,0.0,0.0,0.0,0.0,0.0,0.0,0.0,0.0,0.0,0.0,0.0,0.0,0.0,0.0,0.0,0.0,0.0,0.0,0.0,0.0,0.0,0.0,0.0,0.0,0.0,0.0,0.0,0.0,0.0,0.0,0.0,0.0,0.0,0.0,0.0,0.0,0.0,0.0,0.0,0.0,0.0,0.0,0.0,0.0,0.0,0.0,0.0,0.0,0.0,0.0,0.0,0.0,0.0,0.0,0.0,0.0,0.0,0.0,0.0,0.0,0.0,0.0,0.0,0.0,0.0,0.0,0.0,0.0,0.0,0.0,0.0,0.0,0.0,0.0,0.0,0.0,0.0,0.0,0.0,0.0,0.0,0.0,0.0,0.0,0.0,0.0,0.0,0.0,0.0,0.0,0.0,0.0,0.0,0.0,0.0,0.0,0.0,0.0,0.0,0.0,0.0,0.0,0.0,0.0,0.0,0.0,0.0,0.0,0.0,0.0,0.0,0.0,0.0,0.0,0.0,0.0,0.0,0.0,0.0,0.0,0.0,0.0,0.0,0.0,0.0,0.0,0.0,0.0,0.0,0.0,0.0,0.0,0.0,0.0,0.0,0.0,0.0,0.0,0.0,0.0,0.0,0.0,0.0,0.0,0.0,0.0,0.0,0.0,0.0,0.0,0.0,0.0,0.0,0.0,0.0,0.0,0.0,0.0,0.0,0.0,0.0,0.0,0.0,0.0,0.0,0.0,0.0,0.0,0.0,0.0,0.0,0.0,0.0,0.0,0.0,0.0,0.0,0.0,0.0,0.0,0.0,0.0,0.0,0.0,0.0,0.0,0.0,0.0,0.0,0.0,0.0,0.0,0.0,0.0,0.0,0.0,0.0,0.0,0.0,0.0,0.0,0.0,0.0,0.0,0.0,0.0,0.0,0.0,0.0,0.0,0.0,0.0,0.0,0.0,0.0,0.0,0.0,0.0,0.0,0.0,0.0,0.0,0.0,0.0,0.0,0.0,0.0,0.0,0.0,0.0,0.0,0.0,0.0,0.0,0.0,0.0,0.0,0.0,0.0,0.0,0.0,0.0,0.0,0.0,0.0,0.0,0.0,0.0,0.0,0.0,0.0,0.0,0.0,0.0,0.0,0.0,0.0,0.0,0.0,0.0,0.0,0.0,0.0,0.0,0.0,0.0,0.0,0.0,0.0,0.0,0.0,0.0,0.0,0.0,0.0,0.0,0.0,0.0,0.0,0.0,0.0,0.0,0.0,0.0,0.0,0.0,0.0,0.0,0.0,0.0,0.0,0.0,0.0,0.0,0.0,0.0,0.0,0.0,0.0,0.0,0.0,0.0,0.0,0.0,0.0,0.0,0.0,0.0,0.0,0.0,0.0,0.0,0.0,0.0,0.0,0.0,0.0,0.0,0.0,0.0,0.0,0.0,0.0,0.0,0.0,0.0,0.0,0.0,0.0,0.0,0.0,0.0,0.0,0.0,0.0,0.0,0.0,0.0,0.0,0.0,0.0,0.0,0.0,0.0,0.0,0.0,0.0,0.0,0.0,0.0,0.0,0.0,0.0,0.0,0.0,0.0,0.0,0.0,0.0,0.0,0.0,0.0,0.0,0.0,0.0,0.0,0.0,0.0,0.0,0.0,0.0,0.0,0.0,0.0,0.0,0.0,0.0,0.0,0.0,0.0,0.0,0.0,0.0,0.0,0.0,0.0,0.0,0.0,0.0,0.0,0.0,0.0,0.0,0.0,0.0,0.0,0.0,0.0,0.0,0.0,0.0,0.0,0.0,0.0,0.0,0.0,0.0,0.0,0.0,0.0,0.0,0.0,0.0,0.0,0.0,0.0,0.0,0.0,0.0,0.0,0.0,0.0,0.0,0.0,0.0,0.0,0.0,0.0,0.0,0.0,0.0,0.0,0.0,0.0,0.0,0.0,0.0,0.0,0.0,0.0,0.0,0.0,0.0,0.0,0.0,0.0,0.0,0.0,0.0,0.0,0.0,0.0,0.0,0.0,0.0,0.0,0.0,0.0,0.0,0.0,0.0,0.0,0.0,0.0,0.0,0.0,0.0,0.0,0.0,0.0,0.0,0.0,0.0,0.0,0.0,0.0,0.0,0.0,0.0,0.0,0.0,0.0,0.0,0.0,0.0,0.0,0.0,0.0,0.0,0.0,0.0,0.0,0.0,0.0,0.0,0.0,0.0,0.0,0.0,0.0,0.0,0.0,0.0,0.0,0.0,0.0,0.0,0.0,0.0,0.0,0.0,0.0,0.0,0.0,0.0,0.0,0.0,0.0,0.0,0.0,0.0,0.0,0.0,0.0,0.0,0.0,0.0,0.0,0.0,0.0,0.0,0.0,0.0,0.0,0.0,0.0,0.0,0.0,0.0,0.0,0.0,0.0,0.0,0.0,0.0,0.0,0.0,0.0,0.0,0.0,0.0,0.0,0.0,0.0,0.0,0.0,0.0,0.0,0.0,0.0,0.0,0.0,0.0,0.0,0.0,0.0,0.0,0.0,0.0,0.0,0.0,0.0,0.0,0.0,0.0,0.0,0.0,0.0,0.0,0.0,0.0,0.0,0.0,0.0,0.0,0.0,0.0,0.0,0.0,0.0,0.0,0.0,0.0,0.0,0.0,0.0,0.0,0.0,0.0,0.0,0.0,0.0,0.0,0.0,0.0,0.0,0.0,0.0,0.0,0.0,0.0,0.0,0.0,0.0,0.0,0.0,0.0,0.0,0.0,0.0,0.0,0.0,0.0,0.0,0.0,0.0,0.0,0.0,0.0,0.0,0.0,0.0,0.0,0.0,0.0,0.0,0.0,0.0,0.0,0.0,0.0,0.0,0.0,0.0,0.0,0.0,0.0,0.0,0.0,0.0,0.0,0.0,0.0,0.0,0.0,0.0,0.0,0.0,0.0,0.0,0.0,0.0,0.0,0.0,0.0,0.0,0.0,0.0,0.0,0.0,0.0,0.0,0.0,0.0,0.0,0.0,0.0,0.0,0.0,0.0,0.0,0.0,0.0,0.0,0.0,0.0,0.0,0.0,0.0,0.0,0.0,0.0,0.0,0.0,0.0,0.0,0.0,0.0,0.0,0.0,0.0,0.0,0.0,0.0,0.0,0.0,0.0,0.0,0.0,0.0,0.0,0.0,0.0,0.0,0.0,0.0,0.0,0.0,0.0,0.0,0.0,0.0,0.0,0.0,0.0,0.0,0.0,0.0,0.0,0.0,0.0,0.0,0.0,0.0,0.0,0.0,0.0,0.0,0.0,0.0,0.0,0.0,0.0,0.0,0.0,0.0,0.0,0.0,0.0,0.0,0.0,0.0,0.0,0.0,0.0,0.0,0.0,0.0,0.0,0.0,0.0,0.0,0.0,0.0,0.0,0.0,0.0,0.0,0.0,0.0,0.0,0.0,0.0,0.0,0.0,0.0,0.0,0.0,0.0,0.0,0.0,0.0,0.0,0.0,0.0,0.0,0.0,0.0,0.0,0.0,0.0,0.0,0.0,0.0,0.0,0.0,0.0,0.0,0.0,0.0,0.0,0.0,0.0,0.0,0.0,0.0,0.0,0.0,0.0,0.0,0.0,0.0,0.0,0.0,0.0,0.0,0.0,0.0,0.0,0.0,0.0,0.0,0.0,0.0,0.0,0.0,0.0,0.0,0.0,0.0,0.0,0.0,0.0,0.0,0.0,0.0,0.0,0.0,0.0,0.0,0.0,0.0,0.0,0.0,0.0,0.0,0.0,0.0,0.0,0.0,0.0,0.0,0.0,0.0,0.0,0.0,0.0,0.0,0.0,0.0,0.0,0.0,0.0,0.0,0.0,0.0,0.0,0.0,0.0,0.0,0.0,0.0,0.0,0.0,0.0,0.0,0.0,0.0,0.0,0.0,0.0,0.0,0.0,0.0,0.0,0.0,0.0,0.0,0.0,0.0,0.0,0.0,0.0,0.0,0.0,0.0,0.0,0.0,0.0,0.0,0.0,0.0,0.0,0.0,0.0,0.0,0.0,0.0,0.0,0.0,0.0,0.0,0.0,0.0,0.0,0.0,0.0,0.0,0.0,0.0,0.0,0.0,0.0,0.0,0.0,0.0,0.0,0.0,0.0,0.0,0.0,0.0,0.0,0.0,0.0,0.0,0.0,0.0,0.0,0.0,0.0,0.0,0.0,0.0,0.0,0.0,0.0,0.0,0.0,0.0,0.0,0.0,0.0,0.0,0.0,0.0,0.0,0.0,0.0,0.0,0.0,0.0,0.0,0.0,0.0,0.0,0.0,0.0,0.0,0.0,0.0,0.0,0.0,0.0,0.0,0.0,0.0,0.0,0.0,0.0,0.0,0.0,0.0,0.0,0.0,0.0,0.0,0.0,0.0,0.0,0.0,0.0,0.0,0.0,0.0,0.0,0.0,0.0,0.0,0.0,0.0,0.0,0.0,0.0,0.0,0.0,0.0,0.0,0.0,0.0,0.0,0.0,0.0,0.0,0.0,0.0,0.0,0.0,0.0,0.0,0.0,0.0,0.0,0.0,0.0,0.0,0.0,0.0,0.0,0.0,0.0,0.0,0.0,0.0,0.0,0.0,0.0,0.0,0.0,0.0,0.0,0.0,0.0,0.0,0.0,0.0,0.0,0.0,0.0,0.0,0.0,0.0,0.0,0.0,0.0,0.0,0.0,0.0,0.0,0.0,0.0,0.0,0.0,0.0,0.0,0.0,0.0,0.0,0.0,0.0,0.0,0.0,0.0,0.0,0.0,0.0,0.0,0.0,0.0,0.0,0.0,0.0,0.0,0.0,0.0,0.0,0.0,0.0,0.0,0.0,0.0,0.0,0.0,0.0,0.0,0.0,0.0,0.0,0.0,0.0,0.0,0.0,0.0,0.0,0.0,0.0,0.0,0.0,0.0,0.0,0.0,0.0,0.0,0.0,0.0,0.0,0.0,0.0,0.0,0.0,0.0,0.0,0.0,0.0,0.0,0.0,0.0,0.0,0.0,0.0,0.0,0.0,0.0,0.0,0.0,0.0,0.0,0.0,0.0,0.0,0.0,0.0,0.0,0.0,0.0,0.0,0.0,0.0,0.0,0.0,0.0,0.0,0.0,0.0,0.0,0.0,0.0,0.0,0.0,0.0,0.0,0.0,0.0,0.0,0.0,0.0,0.0,0.0,0.0,0.0,0.0,0.0,0.0,0.0,0.0,0.0,0.0,0.0,0.0,0.0,0.0,0.0,0.0,0.0,0.0,0.0,0.0,0.0,0.0,0.0,0.0,0.0,0.0,0.0,0.0,0.0,0.0,0.0,0.0,0.0,0.0,0.0,0.0,0.0,0.0,0.0,0.0,0.0,0.0,0.0,0.0,0.0,0.0,0.0,0.0,0.0,0.0,0.0,0.0,0.0,0.0,0.0,0.0,0.0,0.0,0.0,0.0,0.0,0.0,0.0,0.0,0.0,0.0,0.0,0.0,0.0,0.0,0.0,0.0,0.0,0.0,0.0,0.0,0.0,0.0,0.0,0.0,0.0,0.0,0.0,0.0,0.0,0.0,0.0,0.0,0.0,0.0,0.0,0.0,0.0,0.0,0.0,0.0,0.0,0.0,0.0,0.0,0.0,0.0,0.0,0.0,0.0,0.0,0.0,0.0,0.0,0.0,0.0,0.0,0.0,0.0,0.0,0.0,0.0,0.0,0.0,0.0,0.0,0.0,0.0,0.0,0.0,0.0,0.0,0.0,0.0,0.0,0.0,0.0,0.0,0.0,0.0,0.0,0.0,0.0,0.0,0.0,0.0,0.0,0.0,0.0,0.0,0.0,0.0,0.0,0.0,0.0,0.0,0.0,0.0,0.0,0.0,0.0,0.0,0.0,0.0,0.0,0.0,0.0,0.0,0.0,0.0,0.0,0.0,0.0,0.0,0.0,0.0,0.0,0.0,0.0,0.0,0.0,0.0,0.0,0.0,0.0,0.0,0.0,0.0,0.0,0.0,0.0,0.0,0.0,0.0,0.0,0.0,0.0,0.0,0.0,0.0,0.0,0.0,0.0,0.0,0.0,0.0,0.0,0.0,0.0,0.0,0.0,0.0,0.0,0.0,0.0,0.0,0.0,0.0,0.0,0.0,0.0,0.0,0.0,0.0,0.0,0.0,0.0,0.0,0.0,0.0,0.0,0.0,0.0,0.0,0.0,0.0,0.0,0.0,0.0,0.0,0.0,0.0,0.0,0.0,0.0,0.0,0.0,0.0,0.0,0.0,0.0,0.0,0.0,0.0,0.0,0.0,0.0,0.0,0.0,0.0,0.0,0.0,0.0,0.0,0.0,0.0,0.0,0.0,0.0,0.0,0.0,0.0,0.0,0.0,0.0,0.0,0.0,0.0,0.0,0.0,0.0,0.0,0.0,0.0,0.0,0.0,0.0,0.0,0.0,0.0,0.0,0.0,0.0,0.0,0.0,0.0,0.0,0.0,0.0,0.0,0.0,0.0,0.0,0.0,0.0,0.0,0.0,0.0,0.0,0.0,0.0,0.0,0.0,0.0,0.0,0.0,0.0,0.0,0.0,0.0,0.0,0.0,0.0,0.0,0.0,0.0,0.0,0.0,0.0,0.0,0.0,0.0,0.0,0.0,0.0,0.0,0.0,0.0,0.0,0.0,0.0,0.0,0.0,0.0,0.0,0.0,0.0,0.0,0.0,0.0,0.0,0.0,0.0,0.0,0.0,0.0,0.0,0.0,0.0,0.0,0.0,0.0,0.0,0.0,0.0,0.0,0.0,0.0,0.0,0.0,0.0,0.0,0.0,0.0,0.0,0.0,0.0,0.0,0.0,0.0,0.0,0.0,0.0,0.0,0.0,0.0,0.0,0.0,0.0,0.0,0.0,0.0,0.0,0.0,0.0,0.0,0.0,0.0,0.0,0.0,0.0,0.0,0.0,0.0,0.0,0.0,0.0,0.0,0.0,0.0,0.0,0.0,0.0,0.0,0.0,0.0,0.0,0.0,0.0,0.0,0.0,0.0,0.0,0.0,0.0,0.0,0.0,0.0,0.0,0.0,0.0,0.0,0.0,0.0,0.0,0.0,0.0,0.0,0.0,0.0,0.0,0.0,0.0,0.0,0.0,0.0,0.0,0.0,0.0,0.0,0.0,0.0,0.0,0.0,0.0,0.0,0.0,0.0,0.0,0.0,0.0,0.0,0.0,0.0,0.0,0.0,0.0,0.0,0.0,0.0,0.0,0.0,0.0,0.0,0.0,0.0,0.0,0.0,0.0,0.0,0.0,0.0,0.0,0.0,0.0,0.0,0.0,0.0,0.0,0.0,0.0,0.0,0.0,0.0,0.0,0.0,0.0,0.0,0.0,0.0,0.0,0.0,0.0,0.0,0.0,0.0,0.0,0.0,0.0,0.0,0.0,0.0,0.0,0.0,0.0,0.0,0.0,0.0,0.0,0.0,0.0,0.0,0.0,0.0,0.0,0.0,0.0,0.0,0.0,0.0,0.0,0.0,0.0,0.0,0.0,0.0,0.0,0.0,0.0,0.0,0.0,0.0,0.0,0.0,0.0,0.0,0.0,0.0,0.0,0.0,0.0,0.0,0.0,0.0,0.0,0.0,0.0,0.0,0.0,0.0,0.0,0.0,0.0,0.0,0.0,0.0,0.0,0.0,0.0,0.0,0.0,0.0,0.0,0.0,0.0,0.0,0.0,0.0,0.0,0.0,0.0,0.0,0.0,0.0,0.0,0.0,0.0,0.0,0.0,0.0,0.0,0.0,0.0,0.0,0.0,0.0,0.0,0.0,0.0,0.0,0.0,0.0,0.0,0.0,0.0,0.0,0.0,0.0,0.0,0.0,0.0,0.0,0.0,0.0,0.0,0.0,0.0,0.0,0.0,0.0,0.0,0.0,0.0,0.0,0.0,0.0,0.0,0.0,0.0,0.0,0.0,0.0,0.0,0.0,0.0,0.0,0.0,0.0,0.0,0.0,0.0,0.0,0.0,0.0,0.0,0.0,0.0,0.0,0.0,0.0,0.0,0.0,0.0,0.0,0.0,0.0,0.0,0.0,0.0,0.0,0.0,0.0,0.0,0.0,0.0,0.0,0.0,0.0,0.0,0.0,0.0,0.0,0.0,0.0,0.0,0.0,0.0,0.0,0.0,0.0,0.0,0.0,0.0,0.0,0.0,0.0,0.0,0.0,0.0,0.0,0.0,0.0,0.0,0.0,0.0,0.0,0.0,0.0,0.0,0.0,0.0,0.0,0.0,0.0,0.0,0.0,0.0,0.0,0.0,0.0,0.0,0.0,0.0,0.0,0.0,0.0,0.0,0.0,0.0,0.0,0.0,0.0,0.0,0.0,0.0,0.0,0.0,0.0,0.0,0.0,0.0,0.0,0.0,0.0,0.0,0.0,0.0,0.0,0.0,0.0,0.0,0.0,0.0,0.0,0.0,0.0,0.0,0.0,0.0,0.0,0.0,0.0,0.0,0.0,0.0,0.0,0.0,0.0,0.0,0.0,0.0,0.0,0.0,0.0,0.0,0.0,0.0,0.0,0.0,0.0,0.0,0.0,0.0,0.0,0.0,0.0,0.0,0.0,0.0,0.0,0.0,0.0,0.0,0.0,0.0,0.0,0.0,0.0,0.0,0.0,0.0,0.0,0.0,0.0,0.0,0.0,0.0,0.0,0.0,0.0,0.0,0.0,0.0,0.0,0.0,0.0,0.0,0.0,0.0,0.0,0.0,0.0,0.0,0.0,0.0,0.0,0.0,0.0,0.0,0.0,0.0,0.0,0.0,0.0,0.0,0.0,0.0,0.0,0.0,0.0,0.0,0.0,0.0,0.0,0.0,0.0,0.0,0.0,0.0,0.0,0.0,0.0,0.0,0.0,0.0,0.0,0.0,0.0,0.0,0.0,0.0,0.0,0.0,0.0,0.0,0.0,0.0,0.0,0.0,0.0,0.0,0.0,0.0,0.0,0.0,0.0,0.0,0.0,0.0,0.0,0.0,0.0,0.0,0.0,0.0,0.0,0.0,0.0,0.0,0.0,0.0,0.0,0.0,0.0,0.0,0.0,0.0,0.0,0.0,0.0,0.0,0.0,0.0,0.0,0.0,0.0,0.0,0.0,0.0,0.0,0.0,0.0,0.0,0.0,0.0,0.0,0.0,0.0,0.0,0.0,0.0,0.0,0.0,0.0,0.0,0.0,0.0,0.0,0.0,0.0,0.0,0.0,0.0,0.0,0.0,0.0,0.0,0.0,0.0,0.0,0.0,0.0,0.0,0.0,0.0,0.0,0.0,0.0,0.0,0.0,0.0,0.0,0.0,0.0,0.0,0.0,0.0,0.0,0.0,0.0,0.0,0.0,0.0,0.0,0.0,0.0,0.0,0.0,0.0,0.0,0.0,0.0,0.0,0.0,0.0,0.0,0.0,0.0,0.0,0.0,0.0,0.0,0.0,0.0,0.0,0.0,0.0,0.0,0.0,0.0,0.0,0.0,0.0,0.0,0.0,0.0,0.0,0.0,0.0,0.0,0.0,0.0,0.0,0.0,0.0,0.0,0.0,0.0,0.0,0.0,0.0,0.0,0.0,0.0,0.0,0.0,0.0,0.0,0.0,0.0,0.0,0.0,0.0,0.0,0.0,0.0,0.0,0.0,0.0,0.0,0.0,0.0,0.0,0.0,0.0,0.0,0.0,0.0,0.0,0.0,0.0,0.0,0.0,0.0,0.0,0.0,0.0,0.0,0.0,0.0,0.0,0.0,0.0,0.0,0.0,0.0,0.0,0.0,0.0,0.0,0.0,0.0,0.0,0.0,0.0,0.0,0.0,0.0,0.0,0.0,0.0,0.0,0.0,0.0,0.0,0.0,0.0,0.0,0.0,0.0,0.0,0.0,0.0,0.0,0.0,0.0,0.0,0.0,0.0,0.0,0.0,-0.8196,-0.3737,0.0,0.0,0.0,0.0,0.0,0.0,0.0,0.0,0.0,0.0,0.0,0.0,0.0,0.0,0.0,0.0,0.0,0.0,0.0,0.0,0.0,0.0,0.0,0.0,0.0,0.0,0.0,0.0,0.0,0.0,0.0,0.0,0.0,0.0,0.0,0.0,0.0,0.0,0.0,0.0,0.0,0.0,0.0,0.0,0.0,0.0,0.0,0.0,0.0,0.0,0.0,0.0,0.0,0.0,0.0,0.0,0.0,0.0,0.0,0.0,0.0,0.0,0.0,0.0,0.0,0.0,0.0,0.0,0.0,0.0,0.0,0.0,0.0,0.0,0.0,0.0,0.0,0.0,0.0,0.0,0.0,0.0,0.0,0.0,0.0,0.0,0.0,0.0,0.0,0.0,0.0,0.0,0.0,0.0,0.0,0.0,0.0,0.0,0.0,0.0,0.0,0.0,0.0,0.0,0.0,0.0,0.0,0.0,0.0,0.0,0.0,0.0,0.0,0.0,-0.0724,0.0,0.0,0.0,0.0,0.0,0.0,0.0,0.0,0.0,0.0,0.0,0.0,0.0,0.0,0.0,0.0,0.0,0.0,0.0,0.0,0.0,0.0,0.0,0.0,0.0,0.0,0.0,0.0,0.0,0.0,0.0,0.0,0.0,0.0,0.0,0.0,0.0,0.0,0.0,0.0,0.0,0.0,0.0,0.0,0.0,0.0,0.0,0.0,0.0,0.0,0.0,0.0,0.0,0.0,0.0,0.0,0.0,0.0,0.0,0.0,0.0,0.0,0.0,0.0,0.0,0.0,0.0,0.0,0.0,0.0,0.0,0.0,0.0,0.0,0.0,0.0,0.0,0.0,0.0,0.0,0.0,0.0,0.0,0.0,0.0,0.0,0.0,0.0,0.0,0.0,0.0,0.0,0.0,0.0,0.0,0.0,0.0,0.0,0.0,0.0,0.0,0.0,0.0,0.0,0.0,0.0,0.0,0.0,0.0,0.0,0.0,0.0,0.0,0.0,0.0,0.0,0.0,0.0,0.0,0.0,0.0,0.0,0.0,0.0,0.0,0.0,0.0,0.0,0.0,0.0,0.0,0.0,0.0,0.0,0.0,0.0,0.0,0.0,0.0,0.0,0.0,0.0,0.0,0.0,0.0,0.0,0.0,0.0,0.0,0.0,0.0,0.0,0.0,0.0,0.0,0.0,0.0,0.0,0.0,0.0,0.0,0.0,0.0,0.0,0.0,0.0,0.0,0.0,0.0,0.0,0.0,0.0,0.0,0.0,0.0,0.0,0.0,0.0,0.0,0.0,0.0,0.0,0.0,0.0,0.0,0.0,0.0,0.0,0.0,0.0,0.0,0.0,0.0,0.0,0.0,0.0,0.0,0.0,0.0,0.0,0.0,0.0,0.0,0.0,0.0,0.0,0.0,0.0,0.0,0.0,0.0,0.0,0.0,0.0,0.0,0.0,0.0,0.0,0.0,0.0,0.0,0.0,0.0,0.0,0.0,0.0,0.0,0.0,0.0,0.0,0.0,0.0,0.0,0.0,0.0,0.0,0.0,0.0,0.0,0.0,0.0,0.0,0.0,0.0,0.0,0.0,0.0,0.0,0.0,0.0,0.0,0.0,0.0,0.0,0.0,0.0,0.0,0.0,0.0,0.0,0.0,0.0,0.0,0.0,0.0,0.0,0.0,0.0,0.0,0.0,0.0,0.0,0.0,0.0,0.0,0.0,0.0,0.0,0.0,0.0,0.0,0.0,0.0,0.0,0.0,0.0,0.0,0.0,0.0,0.0,0.0,0.0,0.0,0.0,0.0,0.0,0.0,0.0,0.0,0.0,0.0,0.0,0.0,0.0,0.0,0.0,0.0,0.0,0.0,0.0,0.0,0.0,0.0,0.0,0.0,0.0,0.0,0.0,0.0,0.0,0.0,0.0,0.0,0.0,0.0,0.0,0.0,0.0,0.0,0.0,0.0,0.0,0.0,0.0,0.0,0.0,0.0,0.0,0.0,0.0,0.0,0.0,0.0,0.0,0.0,0.0,0.0,0.0,0.0,0.0,0.0,0.0,0.0,0.0,0.0,0.0,0.0,0.0,0.0,0.0,0.0,0.0,0.0,0.0,0.0,0.0,0.0,0.0,0.0,0.0,0.0,0.0,0.0,0.0,0.0,0.0,0.0,0.0,0.0,0.0,0.0,0.0,0.0,0.0,0.0,0.0,0.0,0.0,0.0,0.0,0.0,0.0,0.0,0.0,0.0,0.0,0.0,0.0,0.0,0.0,0.0,0.0,0.0,0.0,0.0,0.0,0.0,0.0,0.0,0.0,0.0,0.0,0.0,0.0,0.0,0.0,0.0,0.5197,0.7511,0.0,0.0,0.0,0.0,0.0,0.0,0.0,0.0,0.0,0.0,0.0,0.0,0.0,0.0,0.0,0.0,0.0,0.0,0.0,0.0,0.0,0.0,0.0,0.0,0.0,0.0,0.0,0.0,0.0,0.0,0.0,0.0,0.0,0.0,0.0,0.0,0.0,0.0,0.0,0.0,0.0,0.0,0.0,0.0,0.0,0.0,0.0,0.0,0.0,0.0,0.0,0.0,0.0,0.0,0.0,0.0,0.0,0.0,0.0,0.0,0.0,0.0,0.0,0.0,0.0,0.0,0.0,0.0,0.0,0.0,0.0,0.0,0.0,0.0,0.0,0.0,0.0,0.0,0.0,0.0,0.0,0.0,0.0,0.0,0.0,0.0,0.0,0.0,0.0,0.0,0.0,0.0,0.0,0.0,0.0,0.0,0.0,0.0,0.0,0.0,0.0,0.0,0.0,0.0,0.0,0.0,0.0,0.3317,0.3363,0.0235,0.1676,0.3138,0.481,1.0052,0.0,0.0,0.0,0.0,0.0,0.0,0.0,0.0,0.0,0.0,0.0,0.0,0.0,0.0,0.0,0.0,0.0,0.0,0.0,0.0,0.0,0.0,0.0,0.0,0.0,0.0,0.0,0.0,0.0,0.0,0.0,0.0,0.0,0.0,0.0,0.0,0.0,0.0,0.0,0.0,0.0,0.0,0.0,0.0,0.0,0.0,0.0,0.0,0.0,0.0,0.0,0.0,0.0,0.0,0.0,0.0,0.0,0.0,0.0,0.0,0.0,0.0,0.0,0.0,0.0,0.0,0.0,0.0,0.0,0.0,0.0,0.0,0.0,0.0,0.0,0.0,0.0,0.0,0.0,0.0,0.0,0.0,0.0,0.0,0.0,0.0,0.0,0.0,0.0,0.0,0.0,0.0,0.0,0.0,0.0,0.0,0.0,0.0,0.0,0.0,0.0,0.0,0.0,0.0,0.0,0.0,0.0,0.0,1.2063,1.2354,0.0703,0.5759,1.1633,1.7139,1.1612,0.9853,0.0,0.0,0.0,0.0,0.0,0.0,0.0,0.0,0.0,0.0,0.0,0.0,0.0,0.0,0.0,0.0,0.0,0.0,0.0,0.0,0.0,0.0,0.0,0.0,0.0,0.0,0.0,0.0,0.0,0.0,0.0,0.0,0.0,0.0,0.0,0.0,0.0,0.0,0.0,0.0,0.0,0.0,0.0,0.0,0.0,0.0,0.0,0.0,0.0,0.0,0.0,0.0,0.0,0.0,0.0,0.0,0.0,0.0,0.0,0.0,0.0,0.0,0.0,0.0,0.0,0.0,0.0,0.0,0.0,0.0,0.0,0.0,0.0,0.0,0.0,0.0,0.0,0.0,0.0,0.0,0.0,0.0,0.0,0.0,0.0,0.0,0.0,0.0,0.0,0.0,0.0,0.0,0.0,0.0,0.0,0.0,0.0,0.0,0.0,0.0,0.0,0.0,0.0,0.0,0.0,0.0,0.0,1.3,1.7214,1.2452,1.4388,1.6461,1.862,1.5266,1.3393,0.0,0.0,0.0,0.0,0.0,0.0,0.0,0.0,0.0,0.0,0.0,0.0,0.0,0.0,0.0,0.0,0.0,0.0,0.0,0.0,0.0,0.0,0.0,0.0,0.0,0.0,0.0,0.0,0.0,0.0,0.0,0.0,0.0,0.0,0.0,0.0,0.0,0.0,0.0,0.0,0.0,0.0,0.0,0.0,0.0,0.0,0.0,0.0,0.0,0.0,0.2163,0.8393,0.4211,0.0,0.0,0.0,0.0,0.0,0.0,0.0,0.0,0.0,0.0,0.0,0.0,0.0,0.0,0.0,0.0,0.0,0.0,0.0,0.0,0.0,0.0,0.0,0.0,0.0,0.0,0.0,0.0,0.0,0.0,0.0,0.0,0.0,0.0,0.0,0.0,0.0,0.0,0.0,0.0,0.0,0.0,0.0,0.0,0.0,0.0,0.0,0.0,0.0,0.0,0.0,0.0,0.3152,0.0187,1.2614,1.9309,1.9592,1.9406,1.9066,1.8787,1.7636,1.6093,0.0,0.0,0.0,0.0,0.0,0.0,0.0,0.0,0.0,0.0,0.0,0.0,0.0,0.0,0.0,0.0,0.0,0.0,0.0,0.0,0.0,0.0,0.0,0.0,0.0,0.0,0.0,0.0,0.0,0.0,0.0,0.0,0.0,0.0,0.0,0.0,0.0,0.0,0.0,0.0,0.0,0.0,0.0,0.2408,0.3354,0.0374,0.0,0.0,0.0,0.2361,0.5825,1.0014,0.0,0.0,0.0,0.0,0.0,0.0,0.0,0.0,0.0,0.0,0.0,0.0,0.0,0.0,0.0,0.0,0.0,0.0,0.0,0.0,0.0,0.0,0.0,0.0,0.0,0.0,0.0,0.0545,0.0,0.0,1.0518,0.0,0.0,0.0,0.0,0.0,0.0,0.0,0.0,0.0,0.0,0.0,0.0,0.0,0.0,0.0,0.0,0.0,0.0,0.0,0.0,0.0,0.0,1.0439,0.0562,1.2147,1.8538,1.9535,1.9567,1.921,1.8701,1.8094,1.7277,1.6042,0.0,0.0,0.0,0.0,0.0,0.0,0.0,0.0,0.0,0.0,0.0,0.0,0.0,0.0,0.0,0.0,0.0,0.0,0.0,0.0,0.0,0.0,0.0,0.0,0.0,0.0,0.0,0.0,0.0,0.0,0.0,0.0,0.0,0.0,0.0,0.0,0.0,0.0,0.0,0.0,0.0,0.0,0.7988,1.0516,0.1671,0.0,0.0,0.0,0.7812,1.089,0.0,0.0,0.0,0.0,0.0,0.0,0.0,0.0,0.0,0.0,0.0,0.0,0.0,0.0,0.0,0.0,0.0,0.0,0.0,0.0,0.0,0.0,0.0,0.0,0.0,0.0,0.0,0.9941,0.754,0.0,0.0,0.0,0.0,0.0,0.0,0.0,0.0,0.0,0.0,0.0,1.2916,1.1137,0.0,0.0,0.0,0.0,0.0,0.0,0.0,0.0,0.0,0.0,0.0,0.0,1.4353,1.1207,1.5666,1.8846,1.9726,1.9406,1.9305,1.8708,1.8195,1.7134,1.5465,0.0,0.0,0.0,0.0,0.0,0.0,0.0,0.0,0.0,0.0,0.0,0.0,0.0,0.0,0.0,0.0,0.0,0.0,0.0,0.0,0.0,0.0,0.0,0.0,0.0,0.0,0.0,0.0,0.0,0.0,0.0,0.0,0.0,0.0,0.0,0.0,0.0,0.0,0.0,0.0,0.0,0.0,0.8188,1.3198,0.0,0.0,0.0,0.0,0.0,0.0,0.0,0.0,0.0,0.0,0.0,0.0,0.0,0.0,1.1535,1.1549,1.1332,1.1438,1.1744,0.0,0.0,0.0,0.0,0.0,0.0,0.0,0.0,0.0,0.0,0.0,0.0,0.0,0.0,1.1891,0.0,1.177,0.0,0.0,0.0,0.0,0.0,0.0,0.0,0.0,1.3339,1.329,1.3746,1.3376,1.3305,0.0,1.0272,0.7489,0.0,0.0,0.0,0.0,0.0,0.0,0.0,0.0,1.4276,1.6284,1.7664,1.8656,1.9704,1.9392,1.9032,1.8872,1.8247,1.6958,1.5403,1.3574,0.9919,0.0,0.0,0.0,0.0,0.0,0.0,0.0,0.0,0.0,0.0,0.0,0.0,0.0,0.0,0.0,0.0,0.0,0.0,0.0,0.0,0.0,0.0,0.0,0.0,0.0,0.0,0.0,0.0,0.0,0.0,0.0,0.0,0.0,0.0,0.0,0.0,0.0,0.0,0.1237,0.4587,0.0,0.0,0.0,0.0,0.0,0.0,0.0,1.3389,1.3098,1.263,1.2886,1.4799,1.4765,1.4354,1.4131,0.0,0.0,1.2233,1.2264,1.2359,1.2562,1.2589,1.2514,1.2314,1.3198,1.3577,0.0,0.0,0.0,0.0,0.0,0.0,0.0,0.0,1.2422,1.2367,0.0,1.2286,0.0,0.0,0.0,0.0,0.0,1.3013,0.0,0.0,1.3755,1.398,1.3729,1.3865,1.4036,1.4281,1.3885,1.3715,1.3453,0.892,0.0,0.0,0.0,0.0,0.0,0.0,1.1204,1.6852,1.7636,1.839,1.969,1.9296,1.8892,1.8704,1.7826,1.6788,1.5879,1.4832,1.3674,1.2198,0.4709,0.0,0.0,0.0,0.0,0.0,0.0,0.0,0.0,0.0,0.0,0.0,0.0,0.0,0.0,0.0,0.0,0.0,0.0,0.0,0.0,0.0423,0.0,0.0,0.0,0.0,0.0,0.0,0.0,0.0,0.0,0.0,0.0,0.0,0.0,0.0,0.0,0.0,0.0,0.0,1.4369,1.4335,1.4417,1.4523,1.4428,1.3848,1.3207,1.2746,0.0,0.0,1.502,1.4999,1.4609,1.3922,1.3638,1.3459,1.3492,1.3436,1.3408,1.3513,1.3901,1.4441,1.5054,1.515,1.5347,1.3994,0.0,0.0,0.0,0.0,1.2999,1.3037,1.3288,1.337,1.3336,1.303,1.3003,0.0,0.0,0.0,0.0,0.0,0.0,1.3924,1.4491,1.4448,1.474,1.5072,1.5323,1.5364,1.541,1.4943,1.4645,1.4306,1.2828,1.1593,1.0601,0.0,0.0,0.0,0.0,1.4269,1.694,1.7676,1.8677,1.9778,1.9351,1.9088,1.8525,1.7758,1.6931,1.6049,1.5466,1.4672,1.3445,1.0517,0.0,0.0,0.0,0.0,0.0,0.0,0.0,0.0,0.0,0.0,0.0,0.0,0.0,0.0,0.0,0.0,0.0,0.0,0.0,0.7801,0.8739,0.6455,0.0,0.0,0.0,0.0,0.0,0.0,0.0,0.0,0.0,0.0,0.0,0.0,0.0,0.0,1.1821,1.4611,1.5032,1.5031,1.4397,1.4487,0.0,1.4891,1.4486,1.4264,1.4993,1.5004,1.5156,1.5483,1.5392,1.5174,1.5032,1.4794,1.4719,1.4652,1.44,1.416,1.44,1.475,1.4944,1.4869,1.548,1.5863,1.5594,1.4455,1.3899,1.3648,1.3634,1.3743,1.3946,1.4204,1.4258,1.4035,1.3552,1.3646,1.3853,1.3683,1.1342,0.0,0.0,0.0,1.4693,1.5104,1.5169,1.5438,1.5906,1.6212,1.6205,1.5947,1.5791,1.5533,1.5181,1.4943,1.4496,1.3666,0.0,0.0,1.0393,1.3702,1.5882,1.6693,1.7621,1.8465,1.924,1.9125,1.883,1.8328,1.7738,1.7114,1.6463,1.5886,1.5194,1.4353,1.3734,1.2655,0.0,0.0,0.0,0.0,0.0,0.0,0.0,0.0,0.0,0.0,0.0,0.8977,0.0,0.0,0.0,0.0,0.3048,0.6905,1.1508,0.9307,0.0,0.0,0.0,0.0,0.0,0.0,0.0,0.0,0.0,0.0,0.0,0.3353,0.567,0.5689,1.1639,1.5744,1.497,0.0,1.5779,1.5361,1.5261,1.5321,1.5723,1.5547,1.5588,1.592,1.5927,1.5976,1.5876,1.5848,1.5643,1.5499,1.52,1.4884,1.5269,1.4872,1.4705,1.4916,1.53,1.5561,1.5261,1.5967,1.6647,1.6863,1.6503,1.5411,1.4774,1.4502,1.4753,1.4875,1.4889,1.5025,1.4739,1.4021,1.4381,1.4744,1.5061,1.4242,0.0,1.4721,1.5042,1.5301,1.5289,1.5696,1.6056,1.6374,1.6639,1.6551,1.6164,1.6415,1.6327,1.5934,1.5784,1.5642,1.5466,1.4329,1.3899,1.4231,1.5617,1.6377,1.6381,1.7514,1.8253,1.8795,1.8531,1.8215,1.8301,1.7717,1.7256,1.6937,1.6252,1.5601,1.4997,1.4562,1.3938,1.2628,0.0,0.0,0.0,0.0,0.0,0.0,0.0,0.0,0.0,0.0,0.0,0.0,0.0,0.0,0.0,0.7356,0.0,1.1501,0.4559,0.0,0.0,0.0,0.0825,0.0852,0.0,0.1018,0.1054,0.0,0.0,0.1188,0.8867,1.4368,1.446,1.6004,1.6472,1.468,1.5582,1.63,1.6729,1.6342,1.5947,1.6821,1.6871,1.6658,1.6096,1.6175,1.6105,1.6077,1.6152,1.5862,1.5506,1.4872,1.4661,1.5254,1.5261,1.5354,1.5337,1.5616,1.6022,1.6131,1.6647,1.7376,1.7378,1.7182,1.6904,1.6476,1.5995,1.5954,1.5995,1.609,1.6022,1.5622,1.5116,1.4979,1.478,1.4551,1.4723,1.4895,1.508,1.5389,1.578,1.6035,1.6151,1.6422,1.6815,1.6897,1.687,1.6768,1.6714,1.6639,1.6537,1.6503,1.6354,1.6103,1.5797,1.5468,1.5126,1.5622,1.6261,1.6978,1.7711,1.8348,1.885,1.8545,1.8301,1.8145,1.7561,1.7053,1.6646,1.6246,1.575,1.5153,1.5205,1.4714,1.3767,1.2512,0.0,0.0,0.0,0.0,0.0,0.0,0.0,0.0,0.0,1.1199,1.2249,0.0,0.2459,0.0,0.5284,0.2973,0.2987,0.1192,0.0,0.0,0.5324,0.8627,0.824,0.897,0.9713,1.021,1.065,1.1036,1.1461,1.3492,1.5113,1.5671,1.6472,1.6794,1.6328,1.6515,1.6862,1.6975,1.6756,1.6707,1.6886,1.6639,1.6279,1.6038,1.6164,1.611,1.6199,1.6055,1.5986,1.5886,1.5825,1.5757,1.575,1.579,1.5904,1.5947,1.5964,1.6068,1.6041,1.6721,1.7422,1.7792,1.7717,1.7717,1.7568,1.7297,1.6951,1.6849,1.691,1.6768,1.6524,1.6218,1.6117,1.5719,1.5126,1.5425,1.5608,1.5703,1.5927,1.6239,1.6605,1.6673,1.6876,1.7175,1.7175,1.7107,1.6978,1.6958,1.6876,1.6761,1.6883,1.6863,1.6707,1.6849,1.6714,1.632,1.6191,1.6517,1.7283,1.7887,1.8416,1.8857,1.8518,1.8247,1.8084,1.7446,1.6856,1.6341,1.5852,1.5398,1.4997,1.5334,1.4915,1.3659,1.3472,1.2465,0.0,0.0,0.0,0.0,0.0,0.0,0.0,0.0,0.0,0.0,0.0,0.176,0.6106,0.5575,0.5328,0.5538,0.5575,0.5569,0.5651,0.9449,1.1895,1.1843,1.245,1.3112,1.3804,1.427,1.4878,1.523,1.5194,1.5448,1.6096,1.6532,1.7041,1.6947,1.6932,1.7058,1.6934,1.7085,1.6924,1.7016,1.6707,1.6544,1.6488,1.6212,1.6198,1.6185,1.6117,1.609,1.6164,1.6371,1.6337,1.6083,1.6091,1.6068,1.6333,1.6359,1.6571,1.6558,1.7154,1.76,1.8118,1.8124,1.8118,1.8199,1.828,1.7758,1.7514,1.7467,1.7297,1.7134,1.6965,1.7099,1.6625,1.6185,1.6347,1.6402,1.6374,1.651,1.6727,1.6978,1.7087,1.7236,1.7419,1.7399,1.727,1.7046,1.7141,1.7073,1.6849,1.71,1.7222,1.7229,1.7392,1.746,1.7405,1.7066,1.7093,1.75,1.8063,1.8484,1.8749,1.843,1.8179,1.7989,1.7283,1.6598,1.5954,1.5316,1.4869,1.4652,1.4878,1.4556,1.3268,1.3678,1.32,0.0,1.1582,0.0,0.0,0.0,0.0,0.0,0.0,0.0,0.0,0.5455,0.1661,0.1724,0.7955,1.2109,1.2562,1.2609,1.2775,1.2749,1.2742,1.2996,1.3391,1.3459,1.37,1.4249,1.4956,1.5322,1.5147,1.5294,1.546,1.6011,1.6618,1.6981,1.6962,1.7085,1.6951,1.6978,1.6978,1.6904,1.6907,1.6824,1.6721,1.6848,1.6378,1.6178,1.6495,1.63,1.6307,1.6341,1.6632,1.6877,1.6361,1.6339,1.6359,1.6694,1.6936,1.7063,1.6949,1.7442,1.7808,1.8274,1.8274,1.8274,1.8294,1.8308,1.8199,1.8009,1.7765,1.7494,1.7229,1.6971,1.7003,1.6893,1.6646,1.6904,1.6897,1.668,1.6822,1.6924,1.6978,1.6876,1.7039,1.7399,1.729,1.727,1.7331,1.7243,1.7229,1.7297,1.7351,1.7378,1.7385,1.765,1.7656,1.7439,0.0,0.0,0.0,1.8314,1.8579,1.8735,1.7994,1.7592,1.7541,1.6822,0.0,1.5228,1.5045,1.4733,1.4231,1.4625,0.0,0.0,0.0,0.0,0.0,0.0,0.0,0.0,0.0,0.0,0.0,1.1798,1.1479,1.0853,1.0355,1.0379,1.1213,1.2742,1.3466,1.2945,1.358,1.4168,1.4681,1.4161,1.4006,1.4076,1.4105,1.4183,1.4222,1.5174,1.5709,1.5357,1.5535,1.587,1.6091,1.6544,1.6975,1.6917,1.6958,1.6978,1.6978,1.6978,1.6965,1.6904,1.6654,1.6306,1.6312,1.6225,1.6185,1.6543,1.6731,1.6773,1.6456,1.6714,1.6946,1.649,1.6632,1.6815,1.6951,1.7346,1.7518,1.7041,1.7411,1.7978,1.8538,1.8538,1.8538,1.8586,0.0,1.8416,1.8192,1.7962,1.7738,1.7473,1.7202,1.7202,1.7154,1.7093,1.7317,1.7256,1.6971,1.7053,1.7087,1.7087,1.7161,1.7351,1.7643,1.7636,1.767,1.7738,1.7521,1.7494,1.7411,1.7568,1.7609,1.7751,1.7901,1.7975,1.7982,1.8342,1.845,1.8081,1.8606,1.883,1.8711,1.8302,1.8165,1.7853,1.7066,0.0,0.0,0.0,0.0,0.0,0.0,0.0,0.0,1.2357,0.0,1.1998,1.1746,1.161,1.1591,1.2442,1.326,1.3846,1.3617,1.3191,1.2463,1.3267,1.3992,1.4529,1.4572,1.4657,1.4156,1.4496,1.4921,1.5211,1.4907,1.4736,1.4319,1.4236,1.4423,1.4631,1.5231,1.5702,1.5696,1.592,1.6205,1.6476,1.6859,1.7023,1.6944,1.6978,1.6978,1.6978,1.6978,1.6924,1.7003,1.6754,1.648,1.6469,1.6354,1.6172,1.6503,1.668,1.6884,1.6605,1.6907,1.6941,1.6666,1.6815,1.7019,1.6956,1.7538,1.771,1.7478,1.7751,1.8005,1.881,1.8769,1.8816,1.8911,1.8993,1.8606,1.8321,1.8111,0.0,0.0,0.0,1.7555,1.7541,1.7433,1.7609,1.7507,1.7202,1.7222,1.7216,1.7209,1.748,1.7697,1.7867,1.8016,1.8091,1.7853,1.784,1.7785,1.7666,1.7785,1.7867,1.8111,1.8179,1.8355,1.866,1.904,1.9074,1.8517,1.8925,1.9081,1.8939,1.8857,1.8545,1.8247,1.7426,1.6625,1.5879,1.5262,1.4828,1.4597,1.3807,1.3365,1.3599,1.32,1.2561,1.1836,1.2481,1.2807,1.3023,1.3957,1.4689,1.5153,1.5228,1.5082,1.4549,1.4973,1.5293,1.5248,1.5276,1.5195,1.5257,1.5204,1.5231,1.5107,1.5183,1.4991,1.4501,1.4481,1.458,1.5174,1.5276,1.5493,1.5988,1.6123,1.63,1.6865,1.6989,1.7044,1.6944,1.6978,1.6978,1.6978,1.6978,1.6897,1.6907,1.6852,1.6762,1.6666,1.6515,1.6341,1.6406,1.6859,1.6845,1.6761,1.6897,1.6904,1.6836,1.6965,1.6989,1.7157,1.7521,1.7889,1.7806,1.7992,1.7964,1.8993,1.8782,1.9033,1.9156,1.9156,1.8979,1.8667,1.824,1.7582,1.7338,1.7419,1.7439,1.7439,1.7439,1.7711,1.7602,1.7209,1.7331,1.7317,1.7202,1.7372,1.7602,1.7867,1.8016,1.8091,1.8084,1.805,1.8036,1.8057,1.8036,1.8118,1.8301,1.8545,1.881,1.9101,1.9298,1.9434,1.9495,1.9284,1.9183,1.9189,1.866,1.8465,1.8378,1.7324,1.6413,1.5886,1.5555,1.5254,1.4936,1.4678,1.4464,1.4055,1.4089,1.3548,1.2464,1.3349,1.4358,1.4807,1.4992,1.5139,1.5272,1.5227,1.5113,1.5014,1.5583,1.5702,1.5221,1.5227,1.5267,1.5122,1.5129,1.5314,1.5294,1.5207,1.514,1.5107,1.5107,1.5127,1.5187,1.5608,1.6014,1.6062,1.6091,1.6299,1.6927,1.7071,1.6951,1.6958,1.6978,1.6978,1.6978,1.6978,1.6958,1.6863,1.6478,1.6379,1.6287,1.6646,1.6831,1.6534,1.6734,1.6975,1.6917,1.6965,1.6965,1.6937,1.6971,1.7141,1.7143,1.7683,1.7792,1.7806,1.7833,1.7833,1.9413,1.9373,1.9427,1.9454,1.942,1.9033,1.8749,1.8511,1.7935,1.7717,1.7779,1.7785,1.7785,1.7792,1.7928,1.7745,1.7324,1.7473,1.7467,1.7344,1.7636,1.7901,1.8118,1.8348,1.8457,1.845,1.8369,1.8375,1.8437,1.8301,1.8335,1.8559,1.8782,1.9074,1.9434,1.9596,1.9705,2.0017,1.9637,1.9563,1.9556,1.9061,1.8694,1.8713,1.7819,1.7229,1.672,1.6469,1.6144,1.5716,1.5615,1.5404,1.4859,1.4882,1.4355,1.3655,1.4276,1.4943,1.5087,1.512,1.5357,1.5635,1.5649,1.5872,1.6215,1.6236,1.6133,1.5663,1.5473,1.548,1.5676,1.5602,1.575,1.5757,1.5628,1.5732,1.5732,1.5732,1.576,1.5649,1.5966,1.6172,1.6078,1.6435,1.6619,1.7037,1.6951,1.6951,1.7092,1.6931,1.6951,1.7092,1.7065,1.703,1.6975,1.6734,1.652,1.6527,1.6893,1.692,1.6815,1.6822,1.7037,1.6944,1.6978,1.6978,1.6978,1.7046,1.6969,1.7136,1.75,1.7854,1.7806,1.786,1.786,1.9773,1.9861,1.9752,1.9651,1.9508,1.8993,1.8762,1.8715,1.828,1.8145,1.8226,1.8138,1.8091,1.8091,1.8091,1.788,1.7568,1.7609,1.7602,1.7568,1.7914,1.8186,1.8382,1.8674,1.8816,1.8803,1.8721,1.8749,1.8823,1.8626,1.8674,1.8938,1.9013,1.9264,1.9705,1.982,1.9888,2.0175,1.9963,1.9929,1.9813,1.9413,1.9135,1.8959,1.8355,1.788,1.7575,1.7429,1.7085,1.6578,1.6381,1.6144,1.5663,1.5495,1.5136,1.459,1.5083,1.5361,1.5381,1.54,1.575,1.6165,1.6337,1.6488,1.6807,1.6752,1.646,1.6398,1.5971,1.5971,1.6171,1.6289,1.6206,1.6199,1.6076,1.6014,1.6196,1.6161,1.6196,1.6124,1.6131,1.6076,1.6225,1.6544,1.7064,1.6904,1.6951,1.7085,1.7003,1.6863,1.6863,1.6982,1.6968,1.6781,1.6852,1.6859,1.6913,1.7003,1.6934,1.6982,1.6904,1.7085,1.7065,1.6958,1.6978,1.6978,1.6992,1.7087,1.7016,1.7163,1.7528,1.7916,1.7826,1.786,1.786,1.9861,1.9868,1.9868,1.9617,1.9244,1.8911,1.8776,1.8708,1.8287,1.8328,1.8613,1.8274,1.8097,1.8091,1.8104,1.7996,1.7806,1.7697,1.7711,1.7826,1.8009,1.824,1.8525,1.8823,1.8966,1.8979,1.9067,1.9108,1.9122,1.9108,1.9257,1.9515,1.9318,1.9406,1.9807,1.9868,1.9942,2.0078,2.022,2.0092,1.9691,1.9366,1.9128,1.8751,1.866,1.8562,1.8023,1.786,1.7623,1.7331,1.7039,1.6754,1.6463,1.589,1.5479,1.5224,1.5736,1.6022,1.6029,1.5971,1.6279,1.6912,1.6953,1.6907,1.6934,1.7037,1.6989,1.6783,1.6497,1.6483,1.6898,1.6877,1.6639,1.6205,1.6098,1.6045,1.6212,1.6123,1.6096,1.6045,1.6144,1.6024,1.6181,1.6625,1.6879,1.6937,1.7106,1.7016,1.6975,1.6788,1.6761,1.6872,1.6768,1.6492,1.6465,1.6714,1.6904,1.6931,1.6944,1.6937,1.6958,1.6971,1.6971,1.6958,1.6978,1.6978,1.7019,1.7093,1.7016,1.7197,1.7568,1.7923,1.7819,1.786,1.786,2.0112,2.0254,2.018,1.9881,1.9468,1.9244,1.9006,1.8742,1.8572,1.8545,1.8599,1.843,1.8355,1.8348,1.8348,1.8179,1.7874,1.7894,1.7887,1.7901,1.8199,1.8464,1.8681,1.8972,1.9115,1.9115,1.9176,1.9162,1.9108,1.9162,1.9264,1.9379,1.9345,1.9563,1.9969,1.9915,1.9997,2.0234,2.0302,2.0193,2.0175,1.963,1.9359,1.8872,1.8823,1.8531,1.8247,1.8084,1.786,1.7582,1.7439,1.7236,1.7154,1.6781,1.644,1.6319,1.6571,1.6571,1.6694,1.6693,1.6829,1.7044,1.7026,1.6929,1.6929,1.6989,1.6962,1.706,1.6897,1.6795,1.6996,1.6927,1.6872,1.6639,1.6735,1.6435,1.6219,1.6165,1.6158,1.6212,1.6381,1.6435,1.626,1.6567,1.7051,1.6958,1.6917,1.6849,1.656,1.6399,1.6601,1.6934,1.6849,1.6701,1.6668,1.6842,1.689,1.6951,1.6978,1.6978,1.6978,1.6978,1.6978,1.6978,1.6978,1.7019,1.71,1.708,1.7148,1.7412,1.7663,1.8019,1.7853,1.786,1.786,2.0275,2.0492,2.0343,2.001,1.9583,1.9386,1.9074,1.8721,1.866,1.862,1.8593,1.8552,1.8586,1.8633,1.8531,1.8287,1.8023,1.8016,1.7996,1.7975,1.8348,1.8593,1.8728,1.9094,1.9244,1.9223,1.9291,1.9298,1.925,1.9379,1.9468,1.9515,1.9583,1.978,2.0064,2.0051,2.0146,2.0315,2.0404,2.0383,2.0464,2.0182,1.9617,1.9026,1.8932,1.864,1.8389,1.8233,1.8036,1.7785,1.7731,1.7595,1.7773,1.7435,1.7148,1.7319,1.706,1.7012,1.7161,1.7353,1.7256,1.7263,1.7143,1.7197,1.7197,1.7197,1.7197,1.717,1.7222,1.7319,1.7087,1.6998,1.6924,1.7085,1.6955,1.6852,1.6379,1.6346,1.6319,1.6359,1.6742,1.679,1.652,1.6654,1.6971,1.6971,1.6937,1.689,1.6574,1.6621,1.6654,1.6989,1.7092,1.6931,1.7051,1.7051,1.7092,1.6931,1.6978,1.6978,1.6978,1.6978,1.6978,1.6978,1.6978,1.7005,1.7073,1.7066,1.7209,1.7786,1.8005,1.7853,1.786,1.786,1.786,2.0275,2.0485,2.0234,1.9861,1.9427,1.9149,1.8837,1.8538,1.8416,1.8498,1.8687,1.8593,1.8687,1.8905,1.8531,1.8321,1.8253,1.8023,1.7975,1.8091,1.8396,1.8538,1.8579,1.9128,1.9345,1.9271,1.9501,1.9678,1.9793,1.9963,2.0139,2.0234,2.0092,2.0071,2.0153,2.0349,2.0438,2.0131,2.0607,2.0668,2.0499,2.0227,1.9861,1.92,1.9,1.8701,1.8525,1.8382,1.8226,1.807,1.7921,1.7779,1.7868,1.7841,1.7765,1.7843,1.727,1.7249,1.7801,1.785,1.7871,1.7864,1.7885,1.7878,1.7689,1.7689,1.7689,1.7878,1.7871,1.7628,1.7177,1.7123,1.7056,1.7148,1.7032,1.6897,1.6968,1.6852,1.703,1.69,1.6852,1.6852,1.6534,1.6883,1.6965,1.6958,1.7071,1.6989,1.6996,1.6989,1.6996,1.7016,1.7092,1.6971,1.6965,1.6937,1.6951,1.6978,1.6978,1.6978,1.6978,1.6978,1.6978,1.6978,1.6978,1.6998,1.7039,1.7202,1.746,1.7697,1.7799,1.786,1.786,1.786,1.786,2.0275,2.0499,2.0119,1.9807,1.9556,1.925,1.885,1.8409,1.8443,1.8457,1.8484,1.8511,1.8647,1.883,1.8579,1.8403,1.8314,1.8199,1.8131,1.8145,1.8498,1.8728,1.8871,1.9345,1.9556,1.9535,1.9698,1.982,1.9881,2.0031,2.0078,2.0051,2.0085,2.0187,2.0349,2.0397,2.0465,2.0621,2.0817,2.0797,2.056,2.0349,2.0071,1.9468,1.9271,1.8877,1.8538,1.8484,1.8342,1.8104,1.7948,1.784,1.8019,1.8005,1.795,1.782,1.7602,1.7609,1.7806,1.7882,1.793,1.793,1.793,1.7916,1.793,1.793,1.793,1.7923,1.7923,1.7704,1.7663,1.7541,1.758,1.7442,1.7148,1.706,1.6937,1.7065,1.7051,1.7092,1.7058,1.6849,1.6876,1.6951,1.6978,1.6971,1.6931,1.6904,1.6897,1.6897,1.7099,1.6904,1.6944,1.6978,1.6978,1.6978,1.6978,1.6978,1.6978,1.6978,1.6978,1.6978,1.6978,1.6978,1.6978,1.7039,1.71,1.7344,1.7609,1.7697,1.8019,1.786,1.786,1.786,1.786,2.0431,2.0526,2.0078,1.9793,1.963,1.9332,1.8891,1.8437,1.8593,1.8599,1.8504,1.8613,1.8742,1.881,1.8721,1.8565,1.8382,1.8294,1.8192,1.8145,1.8606,1.8871,1.8986,1.9427,1.9664,1.9705,1.9915,2.0017,2.0037,2.0173,2.0214,2.0187,2.0275,2.041,2.058,2.0607,2.0709,2.0858,2.0734,2.0694,2.075,2.0519,2.0282,1.9997,1.9583,1.9115,1.8633,1.8518,1.8382,1.8179,1.8016,1.7935,1.7935,1.7935,1.7874,1.7978,1.7806,1.7826,1.7971,1.7812,1.786,1.786,1.786,1.786,1.786,1.786,1.786,1.786,1.786,1.786,1.7826,1.7909,1.7947,1.7815,1.7338,1.7036,1.708,1.7093,1.7087,1.7053,1.7039,1.7026,1.6998,1.7026,1.7046,1.7046,1.7019,1.6992,1.7032,1.7005,1.6978,1.6978,1.6971,1.6978,1.6978,1.6978,1.6985,1.6985,1.6978,1.6978,1.6985,1.6985,1.6992,1.6985,1.7026,1.7093,1.7249,1.748,1.7834,1.7923,1.8005,1.786,1.786,1.786,1.786,2.0756,2.0675,2.0126,1.978,1.9624,1.9318,1.8938,1.862,1.8823,1.8837,1.8735,1.8898,1.8966,1.8979,1.8959,1.8816,1.8552,1.8321,1.8199,1.8219,1.8728,1.8925,1.8884,1.9406,1.9678,1.9712,2.0112,2.0309,2.0315,2.0465,2.06,2.0716,2.0702,2.0716,2.0777,2.098,2.0821,2.0788,2.0875,2.119,2.1418,2.077,2.0485,2.0295,1.9888,1.9393,1.881,1.8525,1.8375,1.8301,1.8172,1.8091,1.7847,1.786,1.8023,1.7914,1.7887,1.788,1.788,1.7894,1.7914,1.7914,1.7887,1.7907,1.7901,1.7887,1.788,1.7867,1.786,1.786,1.786,1.7833,1.7985,1.7895,1.7371,1.7034,1.7076,1.7096,1.6915,1.6996,1.6949,1.6909,1.706,1.6902,1.6969,1.6956,1.7093,1.706,1.6936,1.7093,1.7005,1.6998,1.7039,1.708,1.7032,1.6985,1.6992,1.6992,1.6985,1.6978,1.6998,1.6998,1.7039,1.7046,1.71,1.6962,1.709,1.7528,1.7895,1.7985,1.7826,1.786,1.786,1.786,1.786,2.0675,2.0682,2.0017,1.9705,1.961,1.923,1.8905,1.8708,1.8803,1.8803,1.8816,1.9027,1.9081,1.9033,1.9088,1.9027,1.885,1.8742,1.8654,1.864,1.8959,1.9169,1.9264,1.9522,1.9712,1.9854,2.0159,2.0383,2.0505,2.0729,2.0838,2.0783,2.0777,2.0831,2.0933,2.1021,2.1075,2.1163,2.1292,2.1279,2.1356,2.0939,2.0736,2.0471,2.0139,1.9725,1.925,1.8938,1.864,1.8355,1.8274,1.8199,1.8131,1.796,1.7987,1.7954,1.794,1.7947,1.7947,1.794,1.7934,1.794,1.794,1.7893,1.7806,1.8016,1.7975,1.7894,1.7867,1.786,1.786,1.786,1.8026,1.7895,1.765,1.7582,1.7621,1.7532,1.7463,1.6989,1.6976,1.6949,1.6949,1.7036,1.7123,1.7116,1.7442,1.7408,1.7069,1.7222,1.7134,1.7127,1.7175,1.7188,1.7121,1.7121,1.6956,1.7127,1.7087,1.7073,1.7073,1.7087,1.7114,1.7154,1.6996,1.7076,1.7203,1.7555,1.7717,1.7806,1.7846,1.786,1.786,1.786,1.786,2.0736,2.0689,2.0031,1.9705,1.963,1.9291,1.9067,1.8952,1.8986,1.8979,1.8986,1.9176,1.9203,1.9122,1.9223,1.9203,1.9081,1.9122,1.9108,1.904,1.9183,1.9339,1.9454,1.9651,1.9854,2.0051,2.0288,2.0451,2.0553,2.0838,2.0946,2.0872,2.0906,2.1014,2.115,2.1163,2.1218,2.1306,2.1387,2.1353,2.1459,2.1109,2.0987,2.077,2.0444,2.0105,1.9766,1.9434,1.9033,1.866,1.8572,1.847,1.8294,1.8348,1.8148,1.8321,1.8314,1.8314,1.8314,1.8301,1.8314,1.8314,1.8314,1.828,1.8199,1.8172,1.7893,1.7827,1.7982,1.7948,1.7941,1.7887,1.7826,1.7964,1.7957,1.7909,1.8017,1.7843,1.7552,1.7136,1.6935,1.7116,1.7317,1.7405,1.7277,1.748,1.76,1.7773,1.7203,1.7372,1.7311,1.7283,1.7317,1.729,1.7415,1.7249,1.713,1.7076,1.7009,1.7222,1.7222,1.7029,1.7056,1.7317,1.7372,1.7224,1.7337,1.7663,1.8019,1.7833,1.786,1.786,1.786,1.786,1.788,2.0912,2.0702,2.0132,1.98,1.9651,1.9474,1.9318,1.9244,1.9339,1.9312,1.9257,1.9373,1.9359,1.9271,1.9373,1.9373,1.9278,1.9393,1.9447,1.9447,1.9495,1.9529,1.9583,1.9813,2.0037,2.0248,2.0478,2.0566,2.06,2.0912,2.1021,2.1021,2.1143,2.1272,2.1346,2.1414,2.1408,2.1414,2.1435,2.1428,2.1401,2.1279,2.1197,2.0888,2.0763,2.0458,2.0248,1.9875,1.9454,1.9067,1.8704,1.8803,1.885,1.8795,1.8754,1.8658,1.883,1.8851,1.8837,1.8637,1.8623,1.863,1.863,1.8802,1.8575,1.8328,1.8074,1.8034,1.794,1.8091,1.8057,1.7968,1.7887,1.786,1.784,1.7833,1.7833,1.782,1.7724,1.7358,1.7186,1.7153,1.7676,1.7792,1.7868,1.7861,1.7758,1.7528,1.7358,1.7548,1.7899,1.7676,1.7487,1.7641,1.7566,1.746,1.7317,1.725,1.719,1.7405,1.7378,1.7177,1.721,1.7473,1.7534,1.7384,1.7438,1.7745,1.7812,1.7846,1.786,1.786,1.7874,1.788,1.7941,2.0912,2.0722,2.0248,1.9895,1.9657,1.9495,1.9413,1.9379,1.9413,1.9413,1.9406,1.9535,1.9508,1.94,1.9529,1.9576,1.9563,1.9678,1.9759,1.978,1.9881,1.9922,1.9956,2.0105,2.0187,2.0254,2.0627,2.0817,2.075,2.1109,2.1245,2.1163,2.1292,2.1333,2.1299,2.1387,2.1435,2.1441,2.1441,2.1441,2.1414,2.1299,2.1218,2.1184,2.0892,2.0648,2.0478,2.0166,1.9719,1.9196,1.8562,1.8717,1.8877,1.8857,1.883,1.8789,1.8708,1.8701,1.8762,1.8708,1.8884,1.8884,1.8871,1.8836,1.872,1.8713,1.8658,1.8582,1.8507,1.8445,1.8118,1.7827,1.7982,1.788,1.786,1.786,1.7833,1.7937,1.7834,1.765,1.7656,1.7636,1.7861,1.7923,1.8012,1.7992,1.7923,1.7854,1.7704,1.769,1.7813,1.7854,1.7868,1.7792,1.7779,1.767,1.7711,1.7418,1.7609,1.7834,1.7786,1.7521,1.7561,1.7827,1.7677,1.7525,1.7512,1.7758,1.7806,1.786,1.786,1.7867,1.7907,1.7935,1.8016,2.0926,2.0648,2.0329,1.999,1.9671,1.9563,1.9529,1.9529,1.9529,1.9529,1.9549,1.9617,1.961,1.9542,1.9624,1.9664,1.9678,1.9807,1.9868,1.9908,2.0085,2.018,2.02,2.0248,2.0275,2.0424,2.0729,2.0865,2.0933,2.1258,2.134,2.1265,2.1367,2.1387,2.134,2.1387,2.1441,2.1441,2.1441,2.1441,2.1428,2.1353,2.1319,2.1272,2.1068,2.0845,2.0553,2.0193,1.98,1.9461,1.9066,1.8972,1.9094,1.8838,1.8838,1.8831,1.8993,1.8993,1.8798,1.8751,1.8711,1.8691,1.8898,1.8816,1.8735,1.8905,1.8816,1.8768,1.8692,1.8603,1.8287,1.8172,1.8023,1.7894,1.786,1.786,1.786,1.8012,1.7971,1.7964,1.7964,1.7964,1.7964,1.7819,1.7853,1.7846,1.8019,1.8012,1.7826,1.7992,1.7964,1.7985,1.7998,1.7937,1.7902,1.7765,1.7799,1.7745,1.7731,1.7971,1.7937,1.7875,1.7909,1.7964,1.7819,1.7853,1.7812,1.7792,1.7826,1.786,1.786,1.7874,1.7907,1.8023,1.8097,2.0946,2.0526,2.039,2.0078,1.9719,1.9664,1.9651,1.9657,1.9651,1.9651,1.9657,1.9657,1.9657,1.9664,1.9685,1.9691,1.9705,1.9895,1.9956,2.0058,2.0227,2.0363,2.039,2.0356,2.0465,2.0702,2.079,2.0926,2.1062,2.1299,2.1346,2.1292,2.1367,2.1421,2.1408,2.1435,2.1435,2.1441,2.1441,2.1441,2.1441,2.1421,2.1408,2.1387,2.1258,2.0987,2.0627,2.0254,1.9936,1.9773,1.9712,1.9535,1.9312,1.9032,1.9039,1.9046,1.9284,1.9502,1.9006,1.8992,1.8952,1.8918,1.9061,1.8758,1.8938,1.8843,1.8762,1.8715,1.8864,1.8781,1.8699,1.8274,1.7853,1.7955,1.7907,1.7907,1.7867,1.786,1.786,1.786,1.786,1.786,1.786,1.786,1.786,1.786,1.7833,1.784,1.7853,1.7826,1.7812,1.7833,1.784,1.7853,1.784,1.7846,1.7846,1.7826,1.7819,1.7826,1.7826,1.7799,1.7826,1.786,1.786,1.786,1.7853,1.7853,1.786,1.786,1.786,1.786,1.7887,1.807,1.8186,2.0953,2.0532,2.0383,2.0139,1.9841,1.9712,1.9664,1.9664,1.9664,1.9664,1.9664,1.9664,1.9671,1.9678,1.9786,1.9827,1.9861,2.0085,2.0282,2.0404,2.0444,2.0573,2.0668,2.0716,2.0783,2.0885,2.115,2.1231,2.1224,2.1224,2.1313,2.1374,2.1299,2.1326,2.1428,2.1441,2.1441,2.1441,2.1441,2.1441,2.1441,2.1441,2.1441,2.1421,2.1285,2.1123,2.0926,2.0695,2.0512,2.0315,2.0037,1.9582,1.9474,1.9454,1.9448,1.9428,1.961,1.9563,1.9542,1.9454,1.9578,1.9489,1.9434,1.9351,1.8758,1.8731,1.8877,1.8796,1.8728,1.8898,1.8768,1.8375,1.7981,1.8097,1.7893,1.788,1.7928,1.7874,1.788,1.7867,1.786,1.786,1.786,1.786,1.786,1.786,1.786,1.786,1.786,1.786,1.786,1.786,1.786,1.786,1.786,1.786,1.786,1.786,1.786,1.786,1.786,1.786,1.786,1.786,1.786,1.786,1.786,1.786,1.786,1.786,1.7874,1.7894,1.7955,1.8131,1.8507,2.0885,2.0539,2.0458,2.0214,1.9895,1.9793,1.9725,1.9671,1.9664,1.9698,1.9752,1.9759,1.98,1.9868,1.9942,1.9983,2.0031,2.0214,2.0404,2.0519,2.06,2.0695,2.0804,2.098,2.1055,2.1021,2.1197,2.1265,2.1231,2.1218,2.1252,2.1319,2.1252,2.1306,2.1414,2.1441,2.1441,2.1441,2.1441,2.1441,2.1441,2.1441,2.1441,2.1387,2.1245,2.1089,2.1082,2.0797,2.0722,2.0655,2.0198,1.9923,2.001,1.9983,1.9983,1.9963,2.0175,2.0072,2.0011,1.9935,1.9583,1.9674,1.9605,1.9523,1.9189,1.8898,1.8778,1.8911,1.885,1.8789,1.8802,1.8484,1.8348,1.8253,1.8034,1.8007,1.8111,1.8023,1.7935,1.7894,1.786,1.786,1.786,1.788,1.7867,1.7867,1.786,1.786,1.786,1.786,1.786,1.786,1.786,1.786,1.786,1.786,1.786,1.786,1.786,1.786,1.786,1.786,1.786,1.786,1.786,1.786,1.786,1.786,1.7867,1.788,1.7901,1.7935,1.8043,1.824,1.8369,2.0797,2.0539,2.0519,2.0275,1.9942,1.9908,1.9834,1.9712,1.9691,1.978,1.9629,1.9888,1.9929,2.0071,2.0126,2.0139,2.0214,2.0329,2.0512,2.0546,2.0729,2.0804,2.0892,2.1055,2.1211,2.1238,2.1279,2.1265,2.1258,2.1231,2.1265,2.1279,2.1258,2.1353,2.1448,2.1475,2.1469,2.1448,2.1441,2.1441,2.1441,2.1441,2.1441,2.1394,2.1265,2.1177,2.1163,2.0946,2.0783,2.1001,2.0613,2.0352,2.0356,2.0457,2.0464,2.0471,2.045,2.0361,2.0258,1.9942,1.9629,1.9739,1.9624,1.9777,1.9488,1.9366,1.8992,1.8858,1.8771,1.8877,1.8877,1.8816,1.874,1.8637,1.8369,1.8369,1.8541,1.8445,1.8124,1.7996,1.8002,1.8009,1.7955,1.7935,1.7901,1.7867,1.7867,1.786,1.786,1.786,1.786,1.786,1.786,1.786,1.786,1.786,1.786,1.786,1.786,1.786,1.786,1.786,1.786,1.786,1.786,1.7867,1.7867,1.786,1.7874,1.7894,1.7962,1.803,1.7947,1.8128,1.845,2.0702,2.0532,2.0417,2.0248,2.0078,2.0064,1.9976,1.9854,1.9834,1.9922,1.9776,1.9942,2.0244,2.0374,2.0254,2.0349,2.0451,2.0566,2.0621,2.0627,2.0817,2.096,2.1001,2.1143,2.1285,2.1374,2.1394,2.138,2.134,2.1292,2.1326,2.1496,2.1448,2.1469,2.1577,2.1625,2.155,2.1455,2.1441,2.1441,2.1441,2.1441,2.1441,2.1441,2.1346,2.1353,2.1346,2.1218,2.1129,2.1157,2.1034,2.0933,2.0817,2.0709,2.0641,2.058,2.0499,2.0629,2.0491,1.997,1.9654,1.9809,1.9709,1.9642,1.9786,1.9664,1.9508,1.9079,1.8892,1.8724,1.8684,1.8796,1.8891,1.8809,1.8809,1.8579,1.8658,1.8623,1.8389,1.8034,1.8001,1.7954,1.8104,1.8036,1.7996,1.7955,1.7921,1.7894,1.786,1.786,1.786,1.786,1.786,1.786,1.786,1.786,1.786,1.786,1.786,1.786,1.786,1.786,1.7867,1.7901,1.7901,1.7901,1.7894,1.7894,1.7962,1.8036,1.8091,1.7914,1.8068,1.8443,1.8511,2.0655,2.0641,2.0505,2.0356,2.0234,2.0214,2.0085,1.9902,1.9956,1.9776,1.9856,2.018,2.0309,2.0697,2.0519,2.0566,2.058,2.0702,2.0722,2.0729,2.0953,2.1109,2.1123,2.1258,2.1353,2.1421,2.1435,2.1394,2.1319,2.1252,2.136,2.1469,2.1469,2.1523,2.1638,2.1658,2.1591,2.1475,2.1441,2.1441,2.1441,2.1441,2.1441,2.1441,2.1441,2.1441,2.1428,2.1387,2.1326,2.1319,2.1265,2.1231,2.1184,2.1082,2.0926,2.054,2.0439,2.056,2.0383,2.0322,2.0248,2.0119,2.0112,2.0071,2.0003,2.0162,1.9786,1.9549,1.9039,1.8851,1.8845,1.8724,1.885,1.8789,1.8776,1.8694,1.885,1.8857,1.8586,1.8282,1.8389,1.8301,1.8247,1.8179,1.7893,1.7833,1.7996,1.7941,1.7894,1.7887,1.7894,1.786,1.786,1.786,1.786,1.786,1.786,1.786,1.786,1.786,1.7874,1.788,1.7935,1.7996,1.7982,1.8002,1.8023,1.8063,1.8124,1.8192,1.8274,1.8348,1.843,1.8518,1.9059,2.0614,2.0716,2.0594,2.0458,2.0349,2.0363,2.022,2.0024,2.0098,1.9937,2.0004,2.0178,2.0627,2.1034,2.0797,2.0743,2.0607,2.0756,2.0797,2.0824,2.1055,2.1204,2.1252,2.1346,2.1435,2.1428,2.1435,2.1374,2.1333,2.1333,2.1408,2.1557,2.157,2.1625,2.176,2.176,2.1631,2.1523,2.1448,2.1441,2.1441,2.1441,2.1441,2.1441,2.1441,2.1441,2.1441,2.1428,2.1455,2.1462,2.1448,2.1441,2.1448,2.134,2.1136,2.0647,2.0573,2.0419,2.056,2.0492,2.0485,2.0397,2.0539,2.0505,2.0471,2.0436,2.0285,1.9759,1.924,1.9066,1.9052,1.8898,1.8811,1.8758,1.8898,1.881,1.8816,1.881,1.8769,1.8667,1.8754,1.8671,1.8623,1.8575,1.8294,1.8199,1.8138,1.805,1.8002,1.7962,1.7941,1.7887,1.786,1.786,1.786,1.786,1.786,1.786,1.786,1.786,1.788,1.7901,1.7975,1.8063,1.8199,1.8001,1.8001,1.8226,1.8267,1.8342,1.8692,1.8774,1.8593,1.9821,2.1071,2.0553,2.0566,2.0553,2.0458,2.0363,2.0458,2.0424,2.0282,2.0288,2.0458,2.0345,2.06,2.0729,2.1185,2.0973,2.0885,2.0831,2.0892,2.0919,2.0885,2.1102,2.1238,2.1245,2.1367,2.1428,2.1441,2.1441,2.1435,2.1435,2.153,2.1665,2.1781,2.1903,2.2025,2.1977,2.1909,2.1787,2.1645,2.1502,2.1441,2.1441,2.1441,2.1441,2.1441,2.1441,2.1441,2.1441,2.1455,2.1509,2.1604,2.1509,2.1516,2.1317,2.1496,2.134,2.1177,2.0788,2.0428,2.062,2.058,2.0573,2.075,2.0709,2.0439,2.0573,2.0404,2.0227,1.9809,1.9528,1.9603,1.9535,1.9585,1.923,1.9128,1.8811,1.8805,1.8818,1.8959,1.8918,1.8898,1.8782,1.8884,1.8795,1.8747,1.8699,1.8596,1.8507,1.8192,1.8104,1.8057,1.7962,1.7894,1.7874,1.788,1.7894,1.7894,1.7901,1.7887,1.7874,1.7874,1.7894,1.7928,1.8036,1.8138,1.8068,1.8623,1.9291,1.9291,1.8865,1.8692,1.8768,1.8857,1.8715,2.0429,2.3306,2.0594,2.0661,2.0573,2.0505,2.0465,2.0519,2.0458,2.0363,2.0417,2.0258,2.0392,2.077,2.0926,2.1356,2.1123,2.1041,2.096,2.1048,2.1089,2.1048,2.1211,2.1333,2.136,2.1401,2.1435,2.1441,2.1448,2.1509,2.1564,2.1638,2.1747,2.1889,2.2032,2.2093,2.212,2.2045,2.1876,2.1692,2.153,2.1441,2.1441,2.1441,2.1441,2.1441,2.1441,2.1441,2.1469,2.1536,2.1591,2.1658,2.1591,2.1597,2.1344,2.1263,2.1401,2.1353,2.1285,2.0908,2.1021,2.1014,2.1021,2.1001,2.0939,2.0858,2.0756,2.0587,2.0397,2.0234,2.0044,2.0141,1.978,1.9832,1.9695,1.9332,1.921,1.8945,1.8945,1.9122,1.9296,1.9054,1.8798,1.8898,1.9001,1.8694,1.885,1.8726,1.8651,1.8589,1.824,1.8131,1.8016,1.788,1.788,1.7901,1.7928,1.7941,1.7968,1.7955,1.7901,1.7901,1.7901,1.7962,1.8104,1.824,1.8617,1.9377,2.0326,1.9913,1.9025,1.8816,1.8829,1.9346,2.0095,2.4419,2.6904,2.0607,2.0702,2.0627,2.0573,2.0553,2.058,2.0519,2.041,2.0539,2.0359,2.0466,2.0967,2.117,2.1252,2.1258,2.1197,2.1068,2.1163,2.1204,2.1258,2.1319,2.1387,2.1414,2.1435,2.1441,2.1441,2.1509,2.1564,2.1652,2.176,2.1869,2.1943,2.2113,2.2174,2.216,2.2106,2.1971,2.1753,2.1638,2.1584,2.1297,2.1523,2.1536,2.1523,2.1496,2.1475,2.1557,2.1604,2.1665,2.1794,2.1968,2.1679,2.1699,2.1557,2.1448,2.1414,2.1394,2.1333,2.1204,2.1418,2.1384,2.137,2.1322,2.126,2.0851,2.0702,2.0594,2.0471,2.0567,2.0153,1.9997,1.9827,1.9678,1.9529,1.9633,1.9339,1.9284,1.9461,1.9447,1.9461,1.9189,1.9122,1.8993,1.8884,1.8769,1.8871,1.8795,1.8747,1.8617,1.824,1.8111,1.7975,1.7962,1.7982,1.7996,1.8023,1.8036,1.8057,1.7996,1.7996,1.8036,1.8131,1.8048,1.8396,1.9405,1.9913,2.0865,2.0029,1.9409,2.0957,2.1836,2.0919,2.2375,2.698,3.0331,2.0546,2.0566,2.0702,2.0668,2.056,2.0695,2.0668,2.0539,2.0682,2.0811,2.0687,2.1245,2.138,2.1408,2.1387,2.1326,2.1197,2.1204,2.1231,2.1231,2.1238,2.134,2.1401,2.1441,2.1441,2.1462,2.1523,2.1604,2.1726,2.1896,2.2011,2.2113,2.2221,2.2296,2.2269,2.216,2.2045,2.1882,2.1538,2.1524,2.1491,2.1457,2.1706,2.174,2.1618,2.1564,2.1815,2.1767,2.1781,2.1984,2.2084,2.1995,2.174,2.1564,2.1455,2.1441,2.1441,2.1394,2.1346,2.134,2.1387,2.136,2.1279,2.1405,2.126,2.0714,2.0613,2.0439,2.0519,2.0397,2.0227,2.0064,1.9895,1.9759,1.963,1.9556,1.9474,1.9585,1.9571,1.9612,1.9585,1.953,1.942,1.9296,1.8918,1.8782,1.8674,1.8857,1.8504,1.8362,1.824,1.7907,1.7867,1.786,1.7873,1.8118,1.839,1.8206,1.8199,1.8213,1.8247,1.8348,1.8141,2.0539,2.1764,2.1591,2.1622,2.1868,2.2563,2.4393,2.5333,2.5929,2.7478,3.1965,3.3732,2.0655,2.0817,2.079,2.0736,2.0689,2.0743,2.0736,2.0675,2.0648,2.0777,2.1021,2.1292,2.1441,2.1441,2.1441,2.1414,2.1353,2.1353,2.1346,2.1353,2.1367,2.1387,2.1435,2.1441,2.1441,2.1455,2.1516,2.1658,2.1821,2.195,2.2099,2.2208,2.231,2.233,2.2289,2.2208,2.2093,2.2018,2.1665,2.1612,2.1869,2.1842,2.1828,2.1848,2.1821,2.176,2.1869,2.1937,2.1957,2.1943,2.2132,2.2084,2.174,2.155,2.1455,2.1441,2.1441,2.1441,2.1441,2.1441,2.1441,2.1435,2.1374,2.1292,2.1411,2.1062,2.0933,2.0783,2.0648,2.0526,2.0329,2.022,2.0126,1.9749,1.9635,1.978,1.9685,1.9805,1.9763,1.959,1.9784,1.9722,1.9592,1.9461,1.9074,1.8925,1.8823,1.8715,1.8599,1.8498,1.8382,1.828,1.8014,1.8041,1.8054,1.8294,1.8754,1.8568,1.8389,1.9064,1.9511,1.8562,1.9057,2.1708,2.4576,2.5523,2.5751,2.5031,2.5988,2.7924,3.0236,3.2619,3.4729,3.6641,3.6715,2.0695,2.0906,2.0817,2.077,2.077,2.077,2.0743,2.0709,2.0702,2.0851,2.1136,2.1353,2.1441,2.1441,2.1441,2.1441,2.1421,2.1428,2.1428,2.1428,2.1421,2.1441,2.1441,2.1441,2.1441,2.1448,2.1516,2.1658,2.1862,2.1923,2.2099,2.2262,2.2344,2.2344,2.2316,2.2242,2.2174,2.214,2.2086,2.2018,2.2032,2.1977,2.2004,2.1991,2.193,2.195,2.2004,2.2072,2.2038,2.1984,2.1903,2.1808,2.1679,2.1543,2.1455,2.1441,2.1441,2.1441,2.1441,2.1441,2.1441,2.1435,2.1435,2.1374,2.1285,2.1177,2.1102,2.0878,2.0743,2.06,2.0438,2.0336,2.0275,2.0139,2.0017,2.0175,1.9908,1.982,1.9807,1.9813,1.9739,1.9664,1.9556,1.9406,1.9135,1.9,1.8905,1.8796,1.8687,1.8606,1.8545,1.845,1.8382,1.8202,1.8262,1.8409,1.8816,1.8713,1.8969,2.0766,2.0971,2.0471,2.1394,2.4514,2.737,2.9685,2.9954,2.8864,2.9641,3.1125,3.3511,3.5505,3.682,3.8034,3.8504,2.0641,2.077,2.0783,2.0783,2.079,2.0777,2.0709,2.0668,2.0865,2.1116,2.1346,2.1421,2.1441,2.1441,2.1441,2.1441,2.1441,2.1441,2.1441,2.1441,2.1441,2.1441,2.1441,2.1441,2.1441,2.1482,2.157,2.1713,2.1882,2.2004,2.2174,2.2289,2.2344,2.2344,2.2337,2.2337,2.233,2.233,2.2303,2.2283,2.2249,2.216,2.2181,2.2181,2.2072,2.2072,2.2188,2.2181,2.2133,2.2065,2.1971,2.1848,2.1679,2.155,2.1469,2.1441,2.1441,2.1441,2.1441,2.1441,2.1455,2.1441,2.1441,2.1414,2.1421,2.1374,2.1265,2.1007,2.0674,2.054,2.0614,2.0444,2.039,2.0302,2.0429,2.0347,2.0078,2.0017,1.9976,1.9956,1.9908,1.9595,1.9501,1.9341,1.9006,1.8818,1.8744,1.8891,1.8803,1.8742,1.8708,1.8674,1.8613,1.8403,1.8423,1.8699,1.8893,1.8802,2.1218,2.493,2.5798,2.5505,2.6689,2.8131,3.0753,3.3666,3.3237,3.2557,3.3716,3.4668,3.5468,3.7192,3.8332,3.9159,3.9372,2.0722,2.0783,2.0878,2.0926,2.0926,2.0926,2.0892,2.0885,2.1048,2.1197,2.1299,2.1387,2.1441,2.1441,2.1441,2.1441,2.1441,2.1441,2.1441,2.1441,2.1441,2.1441,2.1441,2.1441,2.1441,2.1482,2.1597,2.1747,2.1889,2.2038,2.2188,2.2303,2.2344,2.2344,2.2344,2.2344,2.2337,2.2337,2.2337,2.2337,2.233,2.2289,2.2283,2.2337,2.2215,2.2228,2.233,2.2262,2.2208,2.2127,2.2025,2.1916,2.1733,2.1591,2.1277,2.1482,2.1448,2.1441,2.1469,2.1502,2.127,2.1482,2.1441,2.1441,2.1441,2.134,2.1231,2.1143,2.0788,2.064,2.0459,2.0412,2.0345,2.0471,2.0363,2.0532,2.0234,2.0381,2.032,2.0313,2.0278,1.9956,1.9615,1.9568,1.9529,1.9099,1.9032,1.8898,1.8798,1.8724,1.8677,1.8677,1.865,1.865,1.9063,2.1233,2.5232,2.8088,3.0551,3.3654,3.3295,3.0703,3.0931,3.2149,3.4829,3.7303,3.6231,3.5672,3.6948,3.8134,3.8227,3.806,3.8844,3.9412,4.0128,2.0804,2.0865,2.096,2.1028,2.1062,2.1021,2.1028,2.1082,2.1177,2.1238,2.1306,2.1401,2.1441,2.1441,2.1441,2.1441,2.1441,2.1441,2.1441,2.1441,2.1441,2.1441,2.1441,2.1441,2.1441,2.1482,2.1597,2.1747,2.1889,2.2038,2.2194,2.2303,2.2344,2.2344,2.2344,2.2344,2.2344,2.2344,2.2344,2.2344,2.2337,2.233,2.2337,2.2344,2.2323,2.2344,2.2344,2.2316,2.2269,2.216,2.2079,2.1998,2.1815,2.1686,2.1384,2.1323,2.1323,2.1577,2.1577,2.139,2.1364,2.1462,2.1441,2.1441,2.1428,2.1374,2.1292,2.1204,2.0855,2.1001,2.0885,2.0858,2.0513,2.0634,2.0607,2.0532,2.0478,2.0383,2.0383,2.0608,2.0505,2.0146,2.0024,1.9956,1.9841,1.9705,1.9341,1.9186,1.9026,1.9176,1.8865,1.8858,1.9047,1.9463,2.1798,2.5756,3.0406,3.6601,3.7771,3.8074,3.7901,3.4965,3.5496,3.5826,3.7162,3.8277,3.822,3.8419,3.8605,3.9105,3.9359,3.9412,3.9452,3.9877,4.0385,2.0872,2.0994,2.1007,2.1095,2.1177,2.1089,2.1109,2.1218,2.1224,2.1306,2.1435,2.1428,2.1441,2.1441,2.1441,2.1441,2.1441,2.1441,2.1441,2.1441,2.1441,2.1441,2.1441,2.1441,2.1441,2.1496,2.1611,2.1781,2.1896,2.2086,2.2235,2.231,2.2344,2.2344,2.2344,2.2344,2.2344,2.2344,2.2344,2.2344,2.2344,2.2344,2.2344,2.2344,2.2344,2.2344,2.2344,2.233,2.2262,2.2188,2.2127,2.2032,2.1903,2.1491,2.1518,2.1545,2.1571,2.1801,2.2002,2.1808,2.1451,2.1543,2.1482,2.1455,2.1435,2.1408,2.1353,2.1299,2.1231,2.1398,2.1308,2.0994,2.0674,2.0633,2.062,2.0573,2.0526,2.0506,2.0533,2.0736,2.0614,2.0485,2.0315,2.022,2.0119,2.0058,1.9902,1.9678,1.9756,1.9592,1.9284,1.9006,1.942,2.001,2.3808,3.0208,3.2965,3.8244,3.7811,3.7844,3.7954,3.825,3.764,3.7514,3.8611,3.9017,3.8685,3.8804,3.9393,3.9689,4.0038,4.0065,3.98,3.9933,4.0401,2.096,2.1021,2.1224,2.1279,2.1224,2.1285,2.134,2.1374,2.1374,2.1408,2.1441,2.1441,2.1441,2.1441,2.1441,2.1441,2.1441,2.1441,2.1441,2.1441,2.1441,2.1441,2.1441,2.1441,2.1441,2.153,2.1672,2.1842,2.1937,2.2127,2.2269,2.233,2.2344,2.2344,2.2344,2.2344,2.2344,2.2344,2.2344,2.2344,2.2344,2.2344,2.2344,2.2344,2.2344,2.2344,2.2344,2.2344,2.2296,2.2283,2.2269,2.2201,2.2059,2.2004,2.2004,2.2167,2.195,2.1991,2.216,2.1679,2.1638,2.1686,2.1604,2.1523,2.1482,2.1435,2.1414,2.1367,2.134,2.1265,2.1459,2.1143,2.1068,2.1021,2.0761,2.0754,2.0973,2.0987,2.1007,2.0912,2.0797,2.0695,2.0539,2.0683,2.0587,2.0329,2.0214,2.0217,2.1016,2.1093,1.9942,1.9653,2.2265,2.3596,2.9911,3.6578,3.7549,3.8768,3.8372,3.8161,3.8771,3.9097,3.8905,3.8985,3.9353,3.9003,3.8663,3.9256,3.989,4.0092,4.0388,4.0388,4.0428,4.0509,4.0562,2.1082,2.1116,2.134,2.1387,2.1326,2.1401,2.1441,2.1441,2.1441,2.1441,2.1441,2.1441,2.1441,2.1441,2.1441,2.1441,2.1441,2.1441,2.1441,2.1441,2.1441,2.1441,2.1441,2.1448,2.1489,2.1591,2.174,2.1909,2.2018,2.2181,2.2337,2.2337,2.2344,2.2344,2.2344,2.2344,2.2344,2.2344,2.2344,2.2344,2.2344,2.2344,2.2344,2.2344,2.2344,2.2344,2.2344,2.2344,2.2344,2.2344,2.2344,2.2303,2.2208,2.2201,2.2407,2.2325,2.2393,2.238,2.2311,2.2113,2.2004,2.2126,2.1747,2.1397,2.129,2.1489,2.1455,2.1414,2.1421,2.1401,2.1346,2.1292,2.1459,2.1377,2.1129,2.115,2.1157,2.1425,2.1363,2.1274,2.0926,2.0838,2.0729,2.0876,2.0773,2.0438,2.0349,2.0443,2.2287,2.4163,2.1933,2.006,2.4425,2.8543,3.5083,3.9853,3.9693,3.9546,3.9123,3.9225,3.9622,3.9884,3.9622,3.9466,3.9599,3.9468,3.9349,3.9787,4.0442,4.063,4.0548,4.0655,4.0601,4.0468,4.0495,2.1218,2.1238,2.138,2.1435,2.1435,2.1441,2.1441,2.1441,2.1441,2.1441,2.1441,2.1441,2.1441,2.1441,2.1441,2.1441,2.1441,2.1441,2.1441,2.1441,2.1441,2.1441,2.1441,2.1448,2.1516,2.1665,2.1821,2.1964,2.2133,2.2289,2.2384,2.235,2.2371,2.2371,2.2344,2.2344,2.2344,2.2344,2.2344,2.2344,2.2344,2.2344,2.2344,2.2344,2.2344,2.2344,2.2344,2.2344,2.2344,2.2344,2.2337,2.233,2.2323,2.2316,2.2235,2.2215,2.2255,2.2228,2.2188,2.2242,2.212,2.1984,2.1869,2.1471,2.1604,2.1496,2.1448,2.1441,2.1435,2.1435,2.1387,2.1374,2.1313,2.1272,2.1279,2.1279,2.1272,2.1791,2.2791,2.2414,2.1758,2.2205,2.532,2.5981,2.9399,2.5271,2.4624,2.5022,2.5588,2.8531,2.7001,2.3715,2.6098,3.1307,3.6486,4.0213,4.0119,3.9998,3.9706,3.9746,4.0065,4.0317,4.0317,4.0173,4.004,4.0174,4.0066,4.0495,4.0682,4.1087,4.1002,4.0669,4.0603,4.0869,4.0788,2.1279,2.1387,2.1421,2.1441,2.1441,2.1441,2.1441,2.1441,2.1441,2.1441,2.1441,2.1441,2.1441,2.1441,2.1441,2.1441,2.1441,2.1441,2.1441,2.1441,2.1441,2.1441,2.1441,2.1441,2.1536,2.1672,2.1835,2.2045,2.2262,2.2405,2.2445,2.2371,2.2425,2.2472,2.2344,2.2344,2.2364,2.2344,2.2344,2.2344,2.2344,2.2344,2.2344,2.2344,2.2344,2.2344,2.2344,2.2344,2.2344,2.2344,2.2344,2.2344,2.2337,2.2344,2.2323,2.2303,2.2303,2.2303,2.2296,2.2289,2.2188,2.229,2.2139,2.1713,2.1584,2.1489,2.1441,2.1441,2.1441,2.1441,2.1435,2.1435,2.1435,2.1421,2.1394,2.1374,2.136,2.2381,2.3659,2.4345,2.3655,2.5435,2.859,3.2057,3.5884,3.715,3.754,3.73,3.5277,3.6322,3.5544,3.2617,2.9329,3.3081,3.8025,4.0388,4.0347,4.0388,4.0147,4.0201,4.0495,4.0442,4.0401,4.0348,4.0495,4.0331,4.0464,4.0444,4.0876,4.1256,4.1638,4.151,4.1497,4.1557,4.1476,2.1367,2.1435,2.1441,2.1441,2.1441,2.1441,2.1441,2.1441,2.1441,2.1441,2.1441,2.1441,2.1441,2.1441,2.1441,2.1441,2.1441,2.1441,2.1441,2.1441,2.1441,2.1441,2.1441,2.1448,2.1604,2.1747,2.1998,2.2221,2.2398,2.2486,2.25,2.2452,2.2547,2.2554,2.2391,2.2384,2.2398,2.2344,2.235,2.235,2.235,2.2344,2.2344,2.2344,2.2344,2.2344,2.2344,2.2344,2.2344,2.2344,2.2344,2.4269,2.4261,2.3717,2.2572,2.2262,2.2276,2.2344,2.233,2.2289,2.2235,2.2359,2.1903,2.1484,2.1431,2.1337,2.1448,2.1441,2.1441,2.1441,2.1441,2.1435,2.1435,2.1428,2.1326,2.1521,2.1453,2.1906,2.7513,3.4283,3.217,2.9057,3.222,3.4858,3.8157,4.0085,4.1685,4.1832,4.1407,4.084,4.059,3.9796,3.5565,3.4855,3.898,4.0589,4.0374,4.0441,4.0521,4.0454,4.0401,4.0428,4.0495,4.0642,4.0762,4.0637,4.0796,4.0801,4.1208,4.1826,4.1947,4.2081,4.2278,4.2237,4.1947,2.1435,2.1441,2.1441,2.1441,2.1441,2.1441,2.1441,2.1441,2.1441,2.1441,2.1441,2.1441,2.1441,2.1441,2.1441,2.1441,2.1441,2.1441,2.1441,2.1441,2.1441,2.1441,2.1441,2.1455,2.1625,2.1869,2.214,2.231,2.2472,2.2527,2.2554,2.2574,2.2615,2.2642,2.2486,2.2459,2.25,2.2439,2.2418,2.2384,2.2371,2.235,2.2344,2.2344,2.2344,2.2344,2.2344,2.2344,2.2344,2.2316,2.2303,2.392,2.7276,2.7293,2.4676,2.4084,2.2414,2.2194,2.2228,2.2208,2.2215,2.216,2.1699,2.1565,2.176,2.1638,2.1475,2.1421,2.1421,2.1428,2.1428,2.1421,2.1421,2.3002,2.3134,2.4376,2.4543,2.4692,3.2758,4.1634,3.8644,3.4359,3.5633,3.8289,3.9654,4.158,4.2323,4.2189,4.2027,4.1537,4.1049,4.0863,3.8776,3.9382,4.0628,4.0615,4.0451,4.0411,4.0451,4.0601,4.0561,4.0615,4.0708,4.11,4.0989,4.0929,4.1141,4.163,4.2014,4.2108,4.2189,4.2269,4.2296,4.2269,4.2111,2.1441,2.1441,2.1441,2.1441,2.1441,2.1441,2.1441,2.1441,2.1441,2.1441,2.1441,2.1441,2.1441,2.1441,2.1441,2.1441,2.1441,2.1441,2.1441,2.1441,2.1441,2.1441,2.1475,2.1557,2.1652,2.1903,2.2181,2.233,2.2486,2.2534,2.2506,2.2445,2.2703,2.2703,2.2567,2.2574,2.2608,2.2288,2.2221,2.2452,2.2275,2.2228,2.2357,2.2344,2.2344,2.2344,2.2344,2.2344,2.2344,2.2303,2.2496,2.3544,2.7731,3.2558,3.1896,2.7842,2.5621,2.5373,2.5956,2.5956,2.6261,2.5373,2.4877,2.3069,2.2708,2.2055,2.1944,2.138,2.138,2.1394,2.1394,2.138,2.1645,2.6674,2.8697,3.331,3.5979,3.6078,3.9291,4.2028,4.1054,3.926,3.9477,4.0821,4.1074,4.2191,4.2191,4.231,4.2162,4.196,4.151,4.1128,4.0969,4.1243,4.1737,4.0796,4.0537,4.0458,4.065,4.0624,4.061,4.0829,4.0935,4.1369,4.135,4.1301,4.1513,4.1897,4.1991,4.2071,4.2124,4.2191,4.2218,4.2218,4.2218]}]]